[[{"header":{"parameterUnit":"m.s-1","parameterCategory":1,"la1":30.6,"la2":29.2853,"lo1":-89.7004,"lo2":-87.6739,"dy":0.0162,"dx":0.0183,"nx":112,"ny":82,"refTime":"2023-08-09T12:00:00:Z","depth":0,"parameterNumber":2,"parameterNumberName":"U-component_of_WINDS"},"data":[0.0,0.0,0.0,0.0,0.0,0.0,0.0,0.0,0.0,0.0,0.0,0.0,0.0,0.0,0.0,0.0,0.0,0.0,0.0,0.0,0.0,0.0,0.0,0.0,0.0,0.0,0.0,0.0,0.0,0.0,0.0,0.0,0.0,0.0,0.0,0.0,0.0,0.0,0.0,0.0,0.0,0.0,0.0,0.0,0.0,0.0,0.0,0.0,0.0,0.0,0.0,0.0,0.0,0.0,0.0,0.0,0.0,0.0,0.0,0.0,0.0,0.0,0.0,0.0,0.0,0.0,0.0,0.0,0.0,0.0,0.0,0.0,0.0,0.0,0.0,0.0,0.0,0.0,0.0,0.0,0.0,0.0,0.0,0.0,0.0,0.0,0.0,0.0,0.0,0.0,-4.2879,-4.7031,-5.2976,-5.7167,-5.8545,-5.9582,-5.6627,-4.8464,0.0,0.0,0.0,0.0,0.0,0.0,0.0,0.0,0.0,0.0,0.0,0.0,0.0,0.0,0.0,0.0,0.0,0.0,0.0,0.0,0.0,0.0,0.0,0.0,0.0,0.0,0.0,0.0,0.0,0.0,0.0,0.0,0.0,0.0,0.0,0.0,0.0,0.0,0.0,0.0,0.0,0.0,0.0,0.0,0.0,0.0,0.0,0.0,0.0,0.0,0.0,0.0,0.0,0.0,0.0,0.0,0.0,0.0,0.0,0.0,0.0,0.0,0.0,0.0,0.0,0.0,0.0,0.0,0.0,0.0,0.0,0.0,0.0,0.0,0.0,0.0,0.0,0.0,0.0,0.0,0.0,0.0,0.0,0.0,0.0,0.0,0.0,0.0,0.0,0.0,0.0,0.0,0.0,0.0,0.0,0.0,0.0,0.0,0.0,0.0,0.0,0.0,0.0,0.0,-4.3597,-4.9898,-5.3754,-5.6174,-5.6911,-5.5895,-5.2852,-4.7349,0.0,0.0,0.0,0.0,0.0,0.0,0.0,0.0,0.0,0.0,0.0,0.0,0.0,0.0,0.0,0.0,0.0,0.0,0.0,0.0,0.0,0.0,0.0,0.0,0.0,0.0,0.0,0.0,0.0,0.0,0.0,0.0,0.0,0.0,0.0,0.0,0.0,0.0,0.0,0.0,0.0,0.0,0.0,0.0,0.0,0.0,0.0,0.0,0.0,0.0,0.0,0.0,0.0,0.0,0.0,0.0,0.0,0.0,0.0,0.0,0.0,0.0,0.0,0.0,0.0,0.0,0.0,0.0,0.0,0.0,0.0,0.0,0.0,0.0,0.0,0.0,0.0,0.0,0.0,0.0,0.0,0.0,0.0,0.0,0.0,0.0,0.0,0.0,0.0,0.0,0.0,0.0,0.0,0.0,0.0,0.0,0.0,0.0,0.0,0.0,0.0,0.0,0.0,-4.2426,-4.617,-5.1296,-5.3737,-5.5022,-5.5203,-5.4796,-5.1952,-4.5813,-4.6348,0.0,0.0,0.0,0.0,0.0,0.0,0.0,0.0,0.0,0.0,0.0,0.0,0.0,0.0,0.0,0.0,0.0,0.0,0.0,0.0,0.0,0.0,0.0,0.0,0.0,0.0,0.0,0.0,0.0,0.0,0.0,0.0,0.0,0.0,0.0,0.0,0.0,0.0,0.0,0.0,0.0,0.0,0.0,0.0,0.0,0.0,0.0,0.0,0.0,0.0,0.0,0.0,0.0,0.0,0.0,0.0,0.0,0.0,0.0,0.0,0.0,0.0,0.0,0.0,0.0,0.0,0.0,0.0,0.0,0.0,0.0,0.0,0.0,0.0,0.0,0.0,0.0,0.0,0.0,0.0,0.0,0.0,0.0,0.0,0.0,0.0,0.0,0.0,0.0,0.0,0.0,0.0,0.0,0.0,0.0,0.0,0.0,0.0,0.0,0.0,0.0,0.0,-4.4818,-4.7336,-5.0961,-5.2762,-5.3531,-5.3193,-5.3085,-5.0422,-4.4289,-4.3634,0.0,0.0,0.0,0.0,0.0,0.0,0.0,0.0,0.0,0.0,0.0,0.0,0.0,0.0,0.0,0.0,0.0,0.0,0.0,0.0,0.0,0.0,0.0,0.0,0.0,0.0,0.0,0.0,0.0,0.0,0.0,0.0,0.0,0.0,0.0,0.0,0.0,0.0,0.0,0.0,0.0,0.0,0.0,0.0,0.0,0.0,0.0,0.0,0.0,0.0,0.0,0.0,0.0,0.0,0.0,0.0,0.0,0.0,0.0,0.0,0.0,0.0,0.0,0.0,0.0,0.0,0.0,0.0,0.0,0.0,0.0,0.0,0.0,0.0,0.0,0.0,0.0,0.0,0.0,0.0,0.0,0.0,0.0,0.0,0.0,0.0,0.0,0.0,0.0,0.0,0.0,0.0,0.0,0.0,0.0,0.0,0.0,0.0,0.0,0.0,0.0,0.0,-4.268,-4.4865,-4.8198,-5.0422,-5.1359,-5.0536,-4.8653,-4.6238,-4.3001,-4.0359,0.0,0.0,0.0,0.0,0.0,0.0,0.0,0.0,0.0,0.0,0.0,0.0,0.0,0.0,0.0,0.0,0.0,0.0,0.0,0.0,0.0,0.0,0.0,0.0,0.0,0.0,0.0,0.0,0.0,0.0,0.0,0.0,0.0,0.0,0.0,0.0,0.0,0.0,0.0,0.0,0.0,0.0,0.0,0.0,0.0,0.0,0.0,0.0,0.0,0.0,0.0,0.0,0.0,0.0,0.0,0.0,0.0,0.0,0.0,0.0,0.0,0.0,0.0,0.0,0.0,0.0,0.0,0.0,0.0,0.0,0.0,0.0,0.0,0.0,0.0,0.0,0.0,0.0,0.0,0.0,0.0,0.0,0.0,0.0,0.0,0.0,0.0,0.0,0.0,0.0,0.0,0.0,0.0,0.0,0.0,0.0,0.0,0.0,0.0,0.0,0.0,0.0,-4.2401,-4.4833,0.0,-4.9505,-5.0335,-4.9439,-4.8521,-4.6234,-4.2136,0.0,0.0,0.0,0.0,0.0,0.0,0.0,0.0,0.0,0.0,0.0,0.0,0.0,0.0,0.0,0.0,0.0,0.0,0.0,0.0,0.0,0.0,0.0,0.0,0.0,0.0,0.0,0.0,0.0,0.0,0.0,0.0,0.0,0.0,0.0,0.0,0.0,0.0,0.0,0.0,0.0,0.0,0.0,0.0,0.0,0.0,0.0,0.0,0.0,0.0,0.0,0.0,0.0,0.0,0.0,0.0,0.0,0.0,0.0,0.0,0.0,0.0,0.0,0.0,0.0,0.0,0.0,0.0,0.0,0.0,0.0,0.0,0.0,0.0,0.0,0.0,0.0,0.0,0.0,0.0,0.0,0.0,0.0,0.0,0.0,0.0,0.0,0.0,0.0,0.0,0.0,0.0,0.0,0.0,0.0,0.0,0.0,0.0,0.0,0.0,0.0,0.0,-3.9252,-4.1589,-4.3809,0.0,-4.7916,-4.882,-4.8407,-4.7486,-4.535,-4.1594,0.0,0.0,0.0,0.0,0.0,0.0,0.0,0.0,0.0,0.0,0.0,0.0,0.0,0.0,0.0,0.0,0.0,0.0,0.0,0.0,0.0,0.0,0.0,0.0,0.0,0.0,0.0,0.0,0.0,0.0,0.0,0.0,0.0,0.0,0.0,0.0,0.0,0.0,0.0,0.0,0.0,0.0,0.0,0.0,0.0,0.0,0.0,0.0,0.0,0.0,0.0,0.0,0.0,0.0,0.0,0.0,0.0,0.0,0.0,0.0,0.0,0.0,0.0,0.0,0.0,0.0,0.0,0.0,0.0,0.0,0.0,0.0,0.0,0.0,0.0,0.0,0.0,0.0,0.0,0.0,0.0,0.0,0.0,0.0,0.0,0.0,0.0,0.0,0.0,0.0,0.0,0.0,0.0,0.0,0.0,0.0,0.0,0.0,0.0,0.0,0.0,0.0,-3.843,-3.9775,-4.1535,-4.4018,-4.5514,-4.6591,-4.7249,-4.4855,-4.2791,0.0,0.0,0.0,0.0,0.0,0.0,0.0,0.0,0.0,0.0,0.0,0.0,0.0,0.0,0.0,0.0,0.0,0.0,0.0,0.0,0.0,0.0,0.0,0.0,0.0,0.0,0.0,0.0,0.0,0.0,0.0,0.0,0.0,0.0,0.0,0.0,0.0,0.0,0.0,0.0,0.0,0.0,0.0,0.0,0.0,0.0,0.0,0.0,0.0,0.0,0.0,0.0,0.0,0.0,0.0,0.0,0.0,0.0,0.0,0.0,0.0,0.0,0.0,0.0,0.0,0.0,0.0,0.0,0.0,0.0,0.0,0.0,0.0,0.0,0.0,0.0,0.0,0.0,0.0,0.0,0.0,0.0,0.0,0.0,0.0,0.0,0.0,0.0,0.0,0.0,0.0,0.0,0.0,0.0,0.0,0.0,0.0,0.0,0.0,0.0,0.0,0.0,0.0,-3.7,-3.9092,-4.131,-4.3389,-4.5244,-4.6411,-4.6591,-4.5005,-4.306,-4.0846,0.0,0.0,0.0,0.0,0.0,0.0,0.0,0.0,0.0,0.0,0.0,0.0,0.0,0.0,0.0,0.0,0.0,0.0,0.0,0.0,0.0,0.0,0.0,0.0,0.0,0.0,0.0,0.0,0.0,0.0,0.0,0.0,0.0,0.0,0.0,0.0,0.0,0.0,0.0,0.0,0.0,0.0,0.0,0.0,0.0,0.0,0.0,0.0,0.0,0.0,0.0,0.0,0.0,0.0,0.0,0.0,0.0,0.0,0.0,0.0,0.0,0.0,0.0,0.0,0.0,0.0,0.0,0.0,0.0,0.0,0.0,0.0,0.0,0.0,0.0,0.0,0.0,0.0,0.0,0.0,0.0,0.0,0.0,0.0,0.0,0.0,0.0,0.0,0.0,0.0,0.0,0.0,0.0,0.0,0.0,0.0,0.0,0.0,0.0,0.0,0.0,0.0,-3.6327,-3.8542,-4.0756,-4.2731,-4.4736,-4.5903,-4.5903,-4.5155,-4.3479,-4.0576,0.0,0.0,0.0,0.0,0.0,0.0,0.0,0.0,0.0,0.0,0.0,0.0,0.0,0.0,0.0,0.0,0.0,0.0,0.0,0.0,0.0,0.0,0.0,0.0,0.0,0.0,0.0,0.0,0.0,0.0,0.0,0.0,0.0,0.0,0.0,0.0,0.0,0.0,0.0,0.0,0.0,0.0,0.0,0.0,0.0,0.0,0.0,0.0,0.0,0.0,0.0,0.0,0.0,0.0,0.0,0.0,0.0,0.0,0.0,0.0,0.0,0.0,0.0,0.0,0.0,0.0,0.0,0.0,0.0,0.0,0.0,0.0,0.0,0.0,0.0,0.0,0.0,0.0,0.0,0.0,0.0,0.0,0.0,0.0,0.0,0.0,0.0,0.0,0.0,0.0,0.0,0.0,0.0,0.0,0.0,0.0,0.0,0.0,0.0,0.0,0.0,0.0,-3.6297,-3.8212,-4.0187,-4.2222,-4.4107,-4.5214,-4.5214,-4.5155,-4.3748,-4.0516,0.0,0.0,0.0,0.0,0.0,0.0,0.0,0.0,0.0,0.0,0.0,0.0,0.0,0.0,0.0,0.0,0.0,0.0,0.0,0.0,0.0,0.0,0.0,0.0,0.0,0.0,0.0,0.0,0.0,0.0,0.0,0.0,0.0,0.0,0.0,0.0,0.0,0.0,0.0,0.0,0.0,0.0,0.0,0.0,0.0,0.0,0.0,0.0,0.0,0.0,0.0,0.0,0.0,0.0,0.0,0.0,0.0,0.0,0.0,0.0,-4.854,0.0,0.0,0.0,0.0,0.0,0.0,0.0,0.0,0.0,0.0,0.0,0.0,0.0,0.0,0.0,0.0,0.0,0.0,0.0,0.0,0.0,0.0,0.0,0.0,0.0,0.0,0.0,0.0,0.0,0.0,0.0,0.0,0.0,0.0,0.0,0.0,0.0,0.0,0.0,0.0,0.0,-3.6237,-3.8212,-4.0367,-4.2851,-4.3958,-4.4526,-4.4526,-4.4047,-4.2581,-3.9798,-3.8457,0.0,0.0,0.0,0.0,0.0,0.0,0.0,0.0,0.0,0.0,0.0,0.0,0.0,0.0,0.0,0.0,0.0,0.0,0.0,0.0,0.0,0.0,0.0,0.0,0.0,0.0,0.0,0.0,0.0,0.0,0.0,0.0,0.0,0.0,0.0,0.0,0.0,0.0,0.0,0.0,0.0,0.0,0.0,0.0,0.0,0.0,0.0,0.0,0.0,0.0,0.0,0.0,0.0,0.0,0.0,0.0,0.0,0.0,0.0,0.0,-4.9361,0.0,0.0,0.0,0.0,0.0,0.0,0.0,0.0,0.0,0.0,0.0,0.0,0.0,0.0,0.0,0.0,0.0,0.0,0.0,0.0,0.0,0.0,0.0,0.0,0.0,0.0,0.0,0.0,0.0,0.0,0.0,0.0,0.0,0.0,0.0,0.0,0.0,0.0,0.0,0.0,-3.6626,-3.8392,-4.0307,-4.2611,-4.3748,-4.4197,-4.3868,-4.3838,-4.2514,-3.9416,-3.8325,0.0,0.0,0.0,0.0,0.0,0.0,0.0,0.0,0.0,0.0,0.0,0.0,0.0,0.0,0.0,0.0,0.0,0.0,0.0,0.0,0.0,0.0,0.0,0.0,0.0,0.0,0.0,0.0,0.0,0.0,0.0,0.0,0.0,0.0,0.0,0.0,0.0,0.0,0.0,0.0,0.0,0.0,0.0,0.0,0.0,0.0,0.0,0.0,0.0,0.0,0.0,0.0,0.0,0.0,-6.2522,-6.2205,-6.2413,-6.1628,-5.9762,-5.5119,-5.2632,-5.1735,0.0,0.0,0.0,0.0,0.0,0.0,0.0,0.0,0.0,0.0,0.0,0.0,0.0,0.0,0.0,0.0,0.0,0.0,0.0,0.0,0.0,0.0,0.0,0.0,0.0,-4.097,-4.057,0.0,0.0,0.0,0.0,0.0,0.0,0.0,0.0,0.0,0.0,0.0,0.0,-3.7105,-3.8691,-4.0307,-4.2162,-4.3449,-4.3847,-4.312,-4.3567,-4.2533,-3.9266,-3.8361,-3.6325,0.0,0.0,0.0,0.0,0.0,0.0,0.0,0.0,0.0,0.0,0.0,0.0,0.0,0.0,0.0,0.0,0.0,0.0,0.0,0.0,0.0,0.0,0.0,0.0,0.0,0.0,0.0,0.0,0.0,0.0,0.0,0.0,-4.4858,-4.6222,0.0,0.0,0.0,0.0,0.0,0.0,0.0,0.0,0.0,0.0,0.0,0.0,0.0,0.0,-5.9836,-6.2059,-6.3576,-6.453,-6.6243,-6.77,-6.8769,-6.6431,-6.5459,-6.5539,-6.237,0.0,-5.5012,-5.4701,0.0,0.0,0.0,0.0,0.0,0.0,0.0,0.0,0.0,0.0,0.0,0.0,0.0,0.0,0.0,0.0,0.0,0.0,0.0,0.0,0.0,0.0,-4.2817,-4.2417,-4.2756,-4.294,0.0,-3.9825,-3.7709,-3.5933,0.0,0.0,0.0,0.0,0.0,0.0,0.0,0.0,-3.7225,-3.908,-4.0816,-4.2222,-4.303,-4.3099,-4.2252,-4.2228,-4.1237,-3.8802,-3.759,-3.5949,-3.3653,-3.1947,0.0,0.0,0.0,0.0,0.0,0.0,0.0,0.0,0.0,0.0,0.0,0.0,0.0,0.0,0.0,0.0,0.0,0.0,0.0,0.0,0.0,0.0,0.0,0.0,0.0,0.0,0.0,0.0,0.0,-4.434,-4.6783,-4.6404,-4.8134,-4.8302,0.0,0.0,0.0,0.0,0.0,0.0,0.0,0.0,0.0,-5.9989,-6.1798,-6.3579,-6.5243,-6.7173,-6.8788,-7.0036,-7.1275,-7.2012,-7.2171,-7.0942,-6.96,-6.8103,-6.6387,-6.3772,-6.0496,-5.7495,-5.4839,-5.2425,0.0,0.0,0.0,0.0,0.0,-4.792,-4.8707,0.0,0.0,0.0,0.0,0.0,0.0,0.0,0.0,0.0,0.0,0.0,0.0,0.0,0.0,-4.3618,-4.3925,-4.3973,-4.3396,-4.1663,-3.9637,0.0,-3.7201,-3.6501,-3.4925,0.0,0.0,0.0,0.0,0.0,-3.7734,-3.908,-4.0189,-4.1008,-4.1312,-4.1288,-4.0739,-4.0453,-3.9587,-3.8062,-3.6825,-3.5251,-3.3276,-3.183,-3.0555,0.0,0.0,0.0,0.0,0.0,0.0,0.0,0.0,0.0,0.0,0.0,0.0,0.0,0.0,0.0,0.0,0.0,0.0,0.0,0.0,0.0,0.0,0.0,0.0,0.0,0.0,0.0,0.0,-4.7265,-4.9368,-4.7571,-5.1115,-5.1787,0.0,0.0,0.0,0.0,0.0,0.0,-5.7097,-5.9523,-6.2271,-6.5238,-6.6758,-6.8439,-7.044,-7.1651,-7.2936,-7.4331,-7.4918,-7.4978,-7.4431,-7.4082,-7.2327,-6.9505,-6.8353,-6.6635,-6.4358,-6.0047,-5.746,-5.5943,-5.3307,-5.1843,0.0,-5.0345,-5.0357,-5.0939,-5.1993,-5.1665,-5.0681,-4.9849,0.0,-4.5185,-4.2322,0.0,0.0,0.0,0.0,-4.1001,-4.1863,0.0,-4.3402,-4.4572,-4.4849,-4.4711,-4.4096,-4.3001,-4.1438,0.0,-3.8862,-3.8228,-3.6334,0.0,0.0,0.0,0.0,-3.6567,-3.8182,-3.8894,-3.949,-3.979,-3.9787,-3.9596,-3.9145,-3.8782,-3.809,-3.7192,-3.6222,-3.4954,-3.3404,-3.1836,-3.0581,-2.9719,0.0,0.0,0.0,0.0,0.0,0.0,0.0,0.0,0.0,0.0,0.0,0.0,0.0,0.0,0.0,0.0,0.0,0.0,0.0,0.0,0.0,0.0,0.0,0.0,0.0,0.0,0.0,0.0,0.0,-5.1825,-5.6455,0.0,0.0,0.0,0.0,-5.58,-5.809,-6.0448,-6.2863,-6.5754,-6.8472,-7.1029,-7.248,-7.3707,-7.4588,-7.4698,-7.5139,-7.5983,-7.6019,-7.5996,-7.5971,-7.4568,-7.2584,-7.0198,-6.798,-6.6152,-6.4565,-6.2875,-6.0461,-5.7702,-5.6641,-5.4795,-5.275,-5.2524,-5.2329,-5.2198,-5.2266,-5.133,-5.0146,-5.0782,-4.8548,-4.5449,-4.4648,-4.3075,0.0,0.0,-4.1524,-4.1832,-4.3125,-4.3987,-4.4664,-4.5372,-4.5526,-4.5295,-4.4187,-4.3076,-4.1736,0.0,-3.8841,-3.8153,-3.7434,0.0,-3.6596,-3.7165,-3.7285,-3.7584,-3.8302,-3.8811,-3.915,-3.9131,-3.9053,-3.8613,-3.7727,-3.7615,-3.7192,-3.6271,-3.566,-3.5319,-3.5155,-3.2489,-3.0947,-3.0895,-2.9248,0.0,0.0,0.0,0.0,0.0,0.0,0.0,0.0,0.0,0.0,0.0,0.0,0.0,0.0,0.0,0.0,0.0,0.0,0.0,0.0,0.0,0.0,0.0,0.0,0.0,0.0,0.0,0.0,-5.6483,-6.1291,0.0,0.0,-5.9924,-6.1224,-6.1001,-6.4577,-6.737,-6.8827,-7.0659,-7.265,-7.4601,-7.5014,-7.5616,-7.646,-7.5946,-7.5836,-7.6093,-7.5579,-7.4858,-7.3879,-7.34,-7.1586,-6.8828,-6.76,-6.6117,-6.46,-6.3082,-6.153,-5.9908,-5.8392,-5.6987,-5.5654,-5.4364,-5.4161,-5.4431,-5.3923,-5.2761,-5.1164,-4.9377,-4.7403,-4.5557,-4.5311,-4.4418,-4.3618,-4.4048,-4.4172,-4.4264,-4.4756,-4.5033,-4.5187,-4.4972,-4.4526,-4.4006,-4.3487,-4.2622,-4.1563,-4.0291,-3.9571,-3.8953,-3.8153,-3.7853,-3.7644,-3.7434,-3.7345,-3.7386,-3.7621,-3.7641,-3.7466,-3.6995,-3.6872,-3.6634,-3.612,-3.5717,-3.5336,-3.4999,-3.4502,-3.3875,-3.3117,-3.1731,-3.0634,-2.9902,-2.8882,-2.8386,0.0,0.0,0.0,0.0,0.0,0.0,0.0,0.0,0.0,0.0,0.0,0.0,0.0,0.0,0.0,0.0,0.0,0.0,0.0,0.0,0.0,0.0,0.0,0.0,0.0,0.0,-6.1819,-6.0147,-6.5534,-6.754,-6.2859,-6.5385,-6.7158,-6.685,-7.0235,-7.261,-7.3369,-7.4474,-7.5551,-7.6654,-7.6594,-7.6644,-7.69,-7.6387,-7.5946,-7.5689,-7.5175,-7.415,-7.2645,-7.2438,-7.059,-6.7676,-6.6962,-6.56,-6.3876,-6.2875,-6.1875,-6.0664,-5.9455,-5.8492,-5.7602,-5.5994,-5.5583,-5.5511,-5.3941,-5.2679,-5.1359,-4.8493,-4.7157,-4.6511,-4.6049,-4.5772,-4.5649,-4.5865,-4.5926,-4.5865,-4.5649,-4.5588,-4.5372,-4.4449,-4.3745,-4.3166,-4.2484,-4.1805,-4.1143,-4.0261,-3.9961,-3.9673,-3.8841,-3.8542,-3.8332,-3.8123,-3.7605,-3.7273,-3.7506,-3.6949,-3.6267,-3.5736,-3.544,-3.5192,-3.5031,-3.4633,-3.4319,-3.4136,-3.3796,-3.3064,-3.1888,-3.1104,-3.0241,-2.9301,-2.8699,-2.8281,-2.8098,0.0,0.0,0.0,0.0,0.0,0.0,0.0,0.0,0.0,0.0,0.0,0.0,0.0,0.0,0.0,0.0,0.0,0.0,0.0,0.0,0.0,0.0,0.0,-5.5057,-6.0815,-6.4382,-6.2896,-6.9063,-7.1886,-6.7948,-7.0437,-7.2578,-7.3236,-7.4626,-7.5769,-7.6405,-7.6961,-7.7304,-7.7268,-7.7268,-7.69,-7.6056,-7.6056,-7.5616,-7.4882,-7.4808,-7.397,-7.2444,-7.1749,-6.9742,-6.6882,-6.6185,-6.46,-6.253,-6.2496,-6.1528,-5.9938,-5.9904,-5.9282,-5.8353,-5.7392,-5.6433,-5.5201,-5.2155,-5.1038,-5.0682,-4.8337,-4.805,-4.8296,-4.7004,-4.7034,-4.7404,-4.6788,-4.6573,-4.6419,-4.5741,-4.5588,-4.5249,-4.3895,-4.3407,-4.289,-4.1359,-4.0807,-4.0377,-3.9529,-3.9845,-4.0054,-3.9457,-3.8799,-3.856,-3.9247,-3.8091,0.0,-3.804,-3.6688,-3.5655,-3.5655,-3.4868,-3.4397,-3.4397,-3.4371,-3.4136,-3.3613,-3.3535,-3.3012,-3.1836,-3.0637,-2.9823,-2.9222,-2.8673,-2.8098,-2.7549,0.0,0.0,0.0,0.0,0.0,0.0,0.0,0.0,0.0,0.0,0.0,0.0,0.0,0.0,0.0,0.0,0.0,0.0,0.0,0.0,0.0,0.0,-5.6989,-5.8364,-6.3713,-6.7986,-6.9323,-7.2332,-7.4041,-7.3521,-7.4195,-7.4994,-7.5755,-7.6565,-7.7091,-7.7252,-7.7292,-7.7047,-7.646,-7.6423,-7.6056,-7.5249,-7.4661,-7.4258,-7.4001,-7.2863,-7.1502,-7.0099,-6.9363,-6.7622,-6.5278,-6.5089,-6.4358,-6.3255,-6.2703,-6.1803,-6.0625,-5.9932,-5.8798,-5.7392,-5.6433,-5.5209,-5.382,-5.1827,-5.0788,-5.0005,-4.8182,-4.7404,-4.7065,-4.6696,-4.6388,-4.6203,-4.6511,-4.6234,-4.5834,-4.5649,-4.5588,-4.5249,-4.3895,-4.307,-4.231,-4.1267,-4.0444,-3.9691,-3.8679,-3.8341,-3.8223,-3.8442,-3.8355,-3.8119,-3.7634,0.0,0.0,-3.6346,-3.544,-3.4786,-3.4786,-3.4564,-3.4397,-3.4397,-3.4031,-3.3561,0.0,-3.2542,-3.181,-3.066,-2.9902,-2.9039,-2.802,-2.8255,-2.8307,0.0,0.0,0.0,0.0,0.0,0.0,0.0,0.0,0.0,0.0,0.0,0.0,0.0,0.0,0.0,0.0,0.0,0.0,0.0,0.0,0.0,0.0,-5.5899,-5.9159,-6.1456,-6.5922,-6.9756,-7.1872,-7.358,-7.4677,-7.516,-7.5384,-7.568,-7.6105,-7.6744,-7.6898,-7.647,-7.7035,-7.679,-7.5652,-7.5616,-7.5065,-7.3927,-7.312,-7.2532,-7.2165,-7.1248,-7.0059,-6.8658,-6.7838,-6.6283,0.0,-6.422,-6.3634,-6.2599,-6.2151,-6.1387,0.0,0.0,0.0,0.0,0.0,-5.4499,-5.3247,-5.1303,-5.0399,-4.9618,-4.7434,-4.6696,-4.6542,-4.6265,-4.6111,-4.608,-4.648,-4.6326,-4.5865,-4.5311,-4.5157,-4.4756,-4.3051,-4.2199,-4.1523,-4.0637,-3.9968,-3.9409,-3.8826,0.0,0.0,-3.7394,-3.7347,-3.7253,-3.6916,-3.6188,-3.5655,0.0,-3.495,-3.4397,-3.4397,-3.4397,-3.4397,-3.4397,-3.3901,0.0,0.0,0.0,-3.1263,-3.0189,-2.9588,0.0,0.0,0.0,-2.8987,0.0,0.0,0.0,0.0,-2.7519,-2.7092,0.0,0.0,0.0,0.0,0.0,0.0,0.0,0.0,0.0,0.0,0.0,0.0,0.0,0.0,0.0,0.0,-5.7802,-6.0978,-6.407,-6.7272,-6.9855,-7.1495,-7.305,-7.4014,-7.4125,-7.47,-7.5105,-7.5043,-7.5779,-7.5868,-7.4955,0.0,0.0,0.0,0.0,-7.3854,-7.2239,-7.1541,-7.0807,-7.011,-7.0,-6.9259,-6.7838,-6.6946,-6.5435,-6.3462,-6.3462,-6.2703,-6.1427,-6.1427,-6.0731,-5.9549,-5.9453,-5.8353,-5.6605,-5.5041,-5.4059,0.0,0.0,0.0,0.0,-4.65,-4.5926,-4.6265,-4.5649,-4.5895,-4.6357,-4.6357,-4.6357,-4.608,-4.488,-4.451,-4.3987,-4.1893,-4.1188,-4.08,-3.9919,-3.9553,-3.9337,-3.9192,-3.8458,-3.7422,-3.6031,-3.5871,-3.6115,-3.6465,-3.5946,0.0,-3.5575,-3.4868,-3.4397,-3.4397,0.0,0.0,-3.4319,-3.3796,-3.3221,-3.2646,-3.2071,-3.1261,-3.0116,-2.964,-2.9353,-2.9274,-2.9771,-2.9797,-2.9274,-3.0047,-3.0157,-2.9423,-2.8384,-2.7578,0.0,0.0,0.0,0.0,0.0,0.0,0.0,0.0,0.0,0.0,0.0,0.0,0.0,0.0,0.0,-5.6916,-5.9833,-6.2409,-6.493,-6.6001,-6.7321,-6.9562,-7.0671,-7.1521,-7.2224,-7.2835,-7.346,-7.4159,-7.4816,-7.5102,-7.4918,-7.5212,0.0,-7.301,-7.2973,-7.2202,-7.0587,-7.0403,-7.0257,-7.0073,0.0,0.0,-6.6981,-6.5554,-6.4164,-6.2703,-6.2703,-6.253,-6.2255,-6.211,-6.096,-5.9196,-5.725,-5.5958,-5.4974,-5.4025,-5.3619,-5.3146,-5.0812,-4.9653,-4.878,-4.6344,-4.5311,-4.4941,-4.4818,-4.4849,0.0,-4.4972,-4.4972,-4.491,-4.4633,-4.4172,-4.3525,-4.2383,-4.1668,-4.0944,-3.9919,-3.9696,-3.9235,-3.7663,-3.6561,-3.5395,-3.4286,-3.463,-3.492,-3.434,-3.4124,-3.4146,-3.4594,-3.4481,-3.4397,-3.4397,-3.4397,-3.4214,-3.3796,-3.3195,-3.262,-3.2045,-3.147,-3.0843,-3.0163,-3.0032,-2.9745,-2.9301,-2.9379,-2.9379,-2.9274,-2.9125,-2.9263,-2.9548,-2.9554,-2.9073,0.0,0.0,0.0,0.0,0.0,0.0,0.0,0.0,0.0,0.0,0.0,-4.6743,0.0,0.0,-5.5122,-5.8768,-6.0719,-6.2328,-6.3934,-6.4572,-6.552,-6.7192,-6.8078,-6.8926,-6.979,-7.044,-7.114,-7.1985,-7.2737,-7.2936,-7.2532,-7.3266,-7.2973,-7.1358,-7.1284,-7.0734,-6.9522,-6.9082,-6.8678,-6.8274,-6.7561,-6.6424,-6.5019,-6.3527,-6.2319,-6.1358,-6.1358,-6.1252,-6.118,-6.0857,-5.975,-5.8035,-5.6362,-5.548,-5.5006,-5.3923,-5.3011,-5.2063,-5.0144,-4.882,-4.7636,-4.5739,-4.4849,-4.4572,-4.4572,-4.4572,-4.451,-4.4172,-4.4079,-4.3925,-4.3248,-4.2848,-4.2417,-4.1495,-4.0954,-4.0477,-3.9828,-3.9307,-3.862,-3.7691,-3.6416,-3.5151,-3.4339,-3.394,-3.3569,-3.3223,-3.3143,-3.3247,-3.3509,-3.3535,-3.3535,-3.3535,-3.3535,-3.343,-3.3169,-3.2594,-3.2019,-3.1444,-3.1156,-3.0843,-3.0581,-3.0555,-3.0424,-3.0137,-3.0424,-3.0424,-3.0137,-3.0413,-3.0292,-2.9729,-3.0044,-2.9598,0.0,0.0,0.0,0.0,0.0,0.0,0.0,0.0,-4.2767,-4.6033,-4.7955,-5.0057,-5.3292,-5.5207,-5.7262,-6.0162,-6.13,-6.2071,-6.2732,-6.3392,-6.4067,-6.4683,-6.5713,-6.6669,-6.7295,-6.7998,-6.8788,-6.9559,-7.0403,-7.0624,-7.011,-7.1321,-7.1358,-6.9926,-6.9853,-6.9412,-6.8458,-6.7797,-6.7063,-6.6256,-6.5604,-6.4577,-6.327,-6.1863,-6.0831,-6.0185,-6.0185,-6.0045,-5.9727,-5.9439,-5.8409,-5.6944,-5.6057,-5.5615,-5.5344,-5.3991,-5.2639,-5.1187,-4.9518,-4.8087,-4.6729,-4.5135,-4.4572,-4.4572,-4.4572,-4.4479,-4.4264,-4.371,-4.3464,-4.3125,-4.2078,-4.1709,-4.1392,-4.0598,-4.0243,-3.994,-3.9696,-3.887,-3.8127,-3.7947,-3.6682,-3.533,-3.4631,-3.3542,-3.2725,-3.2855,-3.2672,-3.2594,-3.2829,-3.2751,-3.2698,-3.2698,-3.2698,-3.2646,-3.2542,-3.1993,-3.147,-3.1026,-3.0973,-3.0973,-3.0973,-3.0973,-3.0973,-3.0973,-3.1444,-3.1444,-3.0973,-3.1526,-3.1073,-2.9745,-2.9687,-2.913,-3.0142,-3.1775,-3.4253,-3.6047,-3.7513,-3.9708,0.0,0.0,-4.5975,-5.0652,-5.1774,-5.2862,-5.5852,-5.7703,-5.9391,-6.1153,-6.2144,-6.2695,-6.2805,-6.2879,-6.2732,-6.2071,-6.4053,-6.5485,-6.5558,-6.6292,-6.71,-6.7907,-6.8715,-6.9449,-7.0073,-7.0257,-6.9963,-6.9082,-6.9045,-6.8311,-6.6769,-6.6659,-6.6219,-6.5448,-6.4712,-6.4072,-6.327,-6.1863,-6.0831,-6.0185,-6.0045,-5.9727,-5.9366,-5.9366,-5.8337,-5.6731,-5.5987,-5.531,-5.46,-5.3788,-5.2909,-5.19,-4.9763,-4.8447,-4.7452,-4.5285,-4.4572,-4.4572,-4.4572,-4.4172,-4.3679,-4.3587,-4.3156,-4.2694,-4.254,-4.2048,-4.1515,-4.1066,-4.0436,-3.994,-3.9481,-3.8797,-3.7947,-3.7204,-3.5852,-3.4631,-3.3911,-3.3171,-3.2881,-3.3404,-3.262,-3.2306,-3.3352,-3.3012,-3.2698,-3.2698,-3.2698,-3.2489,-3.1993,-3.1418,-3.1052,-3.0973,-3.0973,-3.0973,-3.0973,-3.0973,-3.0973,-3.0973,-3.1052,-3.1052,-3.0973,-3.0009,-2.9386,-2.918,-2.7653,-2.7148,-3.2114,-3.3403,-3.4951,0.0,-3.8653,-4.1013,-4.5067,-4.5747,-4.7017,-5.2425,-5.3551,-5.4509,-5.762,-5.9134,-6.0272,0.0,-6.2291,-6.2658,-6.2181,-6.2108,-6.1814,-6.1006,-6.2218,-6.3319,-6.3796,-6.4604,-6.5448,-6.6256,-6.7063,-6.765,-6.7981,-6.8458,-6.8531,-6.8201,-6.776,-6.7173,-6.6512,-6.6035,-6.5411,-6.4604,-6.3543,-6.2677,-6.1818,-6.0534,-5.9734,-5.9391,-5.904,-5.8791,-5.8613,-5.8027,-5.7412,-5.6697,-5.5513,-5.46,-5.3856,-5.3078,-5.1731,-5.0212,-4.8828,-4.7333,-4.5856,-4.4892,-4.4572,-4.451,-4.411,-4.3802,-4.3402,-4.2633,-4.2232,-4.1925,-4.1494,-4.1186,-4.09,-4.0619,-4.0264,-3.994,-3.9625,-3.8472,-3.7386,-3.6972,-3.5598,-3.4442,-3.414,-3.3587,-3.3404,-3.3979,-3.3064,-3.2385,-3.2542,-3.2359,-3.2071,-3.1731,-3.1705,-3.1601,-3.1365,-3.113,-3.0973,-3.0973,-3.0973,-3.0973,-3.0973,-3.0973,-3.0973,-3.0973,-3.0973,-3.0748,-3.0266,-2.9471,-2.8585,-2.7545,-2.6518,-2.5915,-3.3177,0.0,0.0,-3.7725,-3.9834,-4.2323,-4.5659,-4.6578,-4.8034,-5.306,-5.3885,-5.4656,-5.7666,-5.8877,-5.9832,-6.108,-6.1961,-6.2291,-6.1667,-6.141,-6.1043,-6.0456,-6.0713,-6.1337,-6.2365,-6.3246,-6.409,-6.4897,-6.5705,-6.6256,-6.6476,-6.7247,-6.7577,-6.7357,-6.6806,-6.6292,-6.5852,-6.5264,-6.4479,-6.3518,-6.2371,-6.1366,-6.0555,-5.9415,-5.8771,-5.8631,-5.8109,-5.7899,-5.7759,-5.687,-5.6393,-5.6089,-5.5006,-5.416,-5.3382,-5.2367,-5.076,-4.8931,-4.8167,-4.6557,-4.4874,-4.4648,-4.4449,-4.4202,-4.371,-4.331,-4.2817,-4.1863,-4.1463,-4.1186,-4.0662,-4.0539,-4.047,-4.0261,-4.0152,-3.994,-3.9696,-3.8219,-3.6894,-3.6894,-3.5575,-3.4397,-3.4397,-3.4084,-3.3953,-3.4345,-3.3692,-3.296,-3.2385,-3.2045,-3.1627,-3.1052,-3.0973,-3.0973,-3.0973,-3.0973,-3.0973,-3.0973,-3.0973,-3.0973,-3.0973,-3.0973,-3.0898,-3.0672,-3.0672,-3.019,-2.9316,-2.8664,-2.7706,-2.6483,-2.5735,-2.5105,0.0,0.0,-3.4868,-3.8677,-4.1139,-4.3613,-4.7283,-4.8451,-4.9567,-5.2627,-5.2637,-5.2821,-5.5244,-5.6381,-5.7703,-6.0052,-6.1117,-6.163,-6.1594,-6.0933,-6.0419,-6.0419,-5.9758,-5.9905,0.0,-6.2365,-6.3209,-6.4053,-6.4897,-6.5705,-6.6476,-6.7247,-6.732,-6.6549,-6.6512,-6.5742,-6.4163,-6.4127,-6.3393,-6.1933,-6.1243,-6.0494,-5.9709,-5.8841,-5.8419,-5.8137,-5.7423,-5.7046,-5.6765,-5.6055,-5.531,-5.4668,-5.46,-5.416,-5.3315,-5.1792,-5.029,-4.8894,-4.8144,-4.6885,-4.5551,-4.4874,-4.4141,-4.3587,-4.3587,-4.2663,-4.1648,-4.1617,-4.1093,-4.057,-4.0539,-4.0539,-4.0401,-4.0081,-4.0011,-3.9869,-3.9481,-3.8069,-3.6894,-3.6894,-3.5575,-3.4397,-3.4397,-3.4371,-3.4371,-3.4397,-3.4371,-3.4136,-3.3613,-3.2542,-3.1627,-3.1052,-3.0973,-3.0973,-3.0973,-3.0973,-3.0973,-3.0973,-3.0973,-3.0973,-3.0973,-3.0973,-3.0596,-2.9781,-2.9704,-2.9291,-2.8426,-2.7197,-2.6565,-2.6483,-2.5189,-2.455,-3.2916,0.0,-3.7191,-3.9834,-4.1773,-4.379,-4.6728,-4.7465,-4.8315,-5.1041,-5.0508,-4.9958,-5.1279,-5.3115,-5.4876,-5.6198,-5.8877,-6.0639,-6.0089,-6.0676,-6.0603,-5.8988,-5.9979,0.0,0.0,0.0,0.0,-6.3135,-6.3503,-6.4016,-6.4861,-6.5668,-6.5999,-6.5705,-6.5191,-6.464,-6.409,-6.3401,-6.2615,-6.1696,-6.0458,-5.9543,-5.8909,-5.7943,-5.7528,-5.7423,-5.6535,-5.6159,-5.6021,-5.5277,-5.4803,-5.4499,-5.345,-5.2638,-5.186,-5.0845,-4.9226,-4.7528,-4.7253,-4.6176,-4.4856,-4.4123,-4.3741,-4.3402,-4.254,-4.1955,-4.1494,-4.1032,-4.0724,-4.0539,-4.0539,-4.0539,-4.0401,-4.0081,-4.0011,-3.9696,-3.8797,-3.7691,-3.6738,-3.6188,-3.5169,-3.4397,-3.4397,-3.4397,-3.4397,-3.4397,-3.4084,-3.3796,-3.3613,-3.2908,-3.2176,-3.1601,-3.1548,-3.1392,-3.1026,-3.0973,-3.0973,-3.0973,-3.0973,-3.0973,-3.0973,-3.0973,-3.0823,-3.057,-3.0012,-2.9291,-2.8426,-2.7116,-2.6235,-2.5589,-2.4871,-2.455,-3.4731,-3.6841,-3.8942,-4.1464,-4.295,-4.4384,-4.6468,-4.6811,-4.727,-4.9102,-4.8159,-4.7278,-4.8086,-4.9774,-5.1499,-5.2894,-5.5537,-5.774,-5.8657,-5.9171,-5.9391,-5.9281,-6.0162,0.0,0.0,0.0,0.0,-6.2695,-6.3099,-6.3503,-6.4053,-6.4861,-6.5191,-6.4897,-6.4347,-6.3943,-6.3599,-6.291,-6.2112,-6.1207,-5.9394,-5.8359,-5.801,-5.7049,-5.6639,-5.6535,-5.5719,-5.531,-5.5243,-5.4194,-5.3788,-5.3653,-5.2401,-5.1623,-5.1116,-5.0371,-4.8895,-4.7151,-4.6892,-4.5841,-4.451,-4.4079,-4.3618,-4.3063,-4.2232,-4.1617,-4.1124,-4.0662,-4.0539,-4.0539,-4.0539,-4.047,-4.0331,-4.0081,-3.994,-3.9625,-3.8797,-3.7691,-3.6738,-3.6215,-3.5196,-3.4397,-3.4397,-3.4397,-3.4397,-3.4397,-3.411,-3.3822,-3.3613,-3.3247,-3.2803,-3.2202,-3.1967,-3.1705,-3.1313,-3.1104,-3.0973,-3.0973,-3.0973,-3.0973,-3.0973,-3.0973,-3.0748,-3.0114,-2.9549,-2.8664,-2.7487,-2.6505,-2.5757,-2.5189,-2.47,-2.455,-3.7168,-3.8757,-4.008,-4.3441,-4.462,-4.5246,-4.6468,-4.6521,-4.6404,-4.6762,-4.5626,-4.4745,0.0,0.0,-4.7865,-5.0288,-5.1573,-5.3628,-5.7519,-5.6859,-5.7336,0.0,0.0,0.0,0.0,0.0,0.0,-6.2695,0.0,-6.398,-6.4016,-6.4751,-6.4824,-6.4053,-6.4016,-6.3599,-6.2603,-6.2479,-6.177,-6.03,-5.8048,-5.7049,-5.7015,-5.6057,-5.5649,-5.5615,-5.4803,-5.4465,-5.4363,-5.2875,-5.2232,-5.2164,-5.1454,-5.115,-5.1082,-5.0304,-4.9127,-4.7772,-4.7054,-4.5841,-4.4572,-4.451,-4.3618,-4.2602,-4.2509,-4.1586,-4.0539,-4.0539,-4.0539,-4.0539,-4.0539,-4.0401,-4.0261,-4.0081,-3.9839,-3.9625,-3.9337,-3.7994,-3.6894,-3.6766,-3.5521,-3.4397,-3.4397,-3.4397,-3.4397,-3.4397,-3.4397,-3.4214,-3.3692,-3.3639,-3.3404,-3.2803,-3.2254,-3.1914,-3.1785,-3.1339,-3.1026,-3.0973,-3.0973,-3.0973,-3.0973,-3.0973,-3.019,-2.8505,-2.8426,-2.7649,-2.599,-2.5464,-2.5189,-2.5189,-2.47,-2.455,-3.8465,-4.0561,-4.2358,-4.3251,-4.3988,-4.4565,-4.5036,-4.4963,-4.4576,-4.3688,-4.2658,-4.1669,0.0,0.0,0.0,-4.8636,-5.3188,0.0,-5.8694,-6.0089,0.0,-6.075,0.0,-6.1887,-6.1887,-6.2071,0.0,0.0,-6.2438,-6.2511,-6.3099,-6.3356,-6.3356,-6.3135,-6.3035,-6.2874,-6.2603,-6.0896,-5.9479,-5.8405,-5.6848,-5.6057,-5.6024,-5.5209,-5.4871,-5.4803,-5.3484,-5.2875,-5.2807,-5.1894,-5.1488,-5.142,-5.0676,-5.0371,-5.0304,-4.956,-4.833,-4.7054,-4.6892,-4.5841,-4.4418,-4.3433,-4.2879,-4.2417,-4.137,-4.0816,-4.0539,-4.0539,-4.0539,-4.0539,-4.0539,-4.0401,-4.0261,-4.0081,-3.9839,-3.9307,-3.7814,-3.7204,-3.6503,-3.5277,-3.4703,-3.4397,-3.4397,-3.4397,-3.4397,-3.4397,-3.4397,-3.4345,-3.4214,-3.4188,-3.3979,-3.343,-3.3221,-3.2803,-3.1914,-3.1705,-3.1444,-3.1026,-3.0973,-3.0973,-3.0973,-3.0973,-3.0495,-2.9394,-2.8743,-2.7867,-2.6857,-2.5779,-2.5189,-2.5189,-2.47,-2.455,-4.0569,-4.217,-4.337,-4.3975,-4.3975,-4.386,-4.3953,-4.3337,-4.2624,-4.1933,-4.0822,0.0,-3.9313,0.0,0.0,0.0,0.0,0.0,-5.774,-5.9318,-6.0493,0.0,-6.2254,0.0,-6.2181,-6.2548,-6.2805,0.0,-6.2401,-6.2328,-6.2805,-6.2805,-6.2755,-6.2705,-6.2654,-6.2552,-6.2449,-5.9844,-5.8369,-5.8141,-5.6131,-5.5209,-5.5209,-5.4465,-5.3923,-5.3551,0.0,-5.2131,-5.1758,-5.1014,-5.071,-5.0642,-4.9898,-4.9627,-4.956,-4.9154,-4.8065,-4.6763,-4.6471,-4.5397,-4.4018,-4.3279,-4.2633,-4.2017,-4.1247,-4.0786,-4.0539,-4.0539,-4.0539,-4.0539,-4.0539,-4.0331,-4.0152,-4.0011,-3.9768,-3.9307,-3.8219,-3.7434,-3.6425,-3.4703,-3.4397,-3.4397,-3.4397,-3.4397,-3.4397,-3.4397,-3.4397,-3.4397,-3.4397,-3.4397,-3.4267,-3.3979,-3.3744,-3.3221,-3.2306,-3.1993,-3.1601,-3.1026,-3.0973,-3.0973,-3.0973,-3.0973,-3.0419,-2.9135,-2.8664,-2.7787,-2.6633,-2.5695,-2.5189,-2.5189,-2.47,-2.455,-4.3065,-4.3686,-4.394,-4.5251,-4.4527,-4.3429,-4.32,-4.1949,-4.0835,-4.069,0.0,-3.8731,-3.946,-4.1075,-4.291,-4.4745,0.0,-5.0765,-5.6345,-5.7226,-5.8657,-6.2365,-6.2805,-6.2805,-6.2805,-6.2805,-6.2805,-6.2805,-6.2805,-6.2805,-6.2805,-6.2755,-6.2705,-6.2552,-6.2442,-6.2178,-6.1751,-5.897,-5.779,-5.8191,-5.5651,-5.4431,-5.4431,-5.3687,-5.2976,-5.23,0.0,0.0,-5.1014,-5.027,-4.9932,-4.9898,-4.9255,-4.9018,-4.8984,-4.8883,-4.7899,-4.6568,-4.5856,-4.4605,-4.331,-4.331,-4.254,-4.1586,-4.1494,-4.1032,-4.0539,-4.0539,-4.0539,-4.0539,-4.047,-4.0261,-4.0011,-4.0011,-3.9625,-3.9337,-3.909,-3.7767,-3.6108,-3.4703,-3.4397,-3.4397,-3.4397,-3.4397,-3.4397,-3.4397,-3.4397,-3.4397,-3.4397,-3.4397,-3.4397,-3.4397,-3.3979,-3.343,-3.2751,-3.2228,-3.1679,-3.1026,-3.0973,-3.0973,-3.0973,-3.0898,-3.0012,-2.8426,-2.8267,-2.7487,-2.5906,-2.5464,-2.5189,-2.5189,-2.47,-2.455,-4.4854,-4.5645,-4.6079,-4.6355,-4.5699,-4.4524,-4.266,-4.1392,0.0,0.0,-3.779,-3.7546,-3.7881,-4.0304,-4.3277,-4.6214,-4.9297,0.0,0.0,0.0,-6.0529,0.0,0.0,0.0,0.0,0.0,0.0,0.0,0.0,0.0,-6.2805,-6.2705,-6.25,-6.2291,-6.1636,-6.0629,-5.9286,-5.7577,-5.6178,-5.5167,-5.4156,-5.3687,-5.3653,-5.2875,-5.2435,-5.2232,0.0,0.0,-5.0236,-4.9492,-4.9187,-4.9187,-4.9052,-4.9018,-4.8951,-4.8342,-4.7231,-4.5824,-4.5111,-4.359,-4.1955,-4.1955,-4.1771,-4.1494,-4.0909,-4.0632,-4.0539,-4.0539,-4.0539,-4.047,-4.0331,-4.0121,-3.994,-3.9768,-3.9553,-3.9017,-3.7587,-3.6029,-3.4786,-3.4481,-3.4397,-3.4397,-3.4397,-3.4397,-3.4397,-3.4397,-3.4397,-3.4397,-3.4397,-3.4397,-3.4397,-3.4397,-3.4319,-3.3822,-3.2777,-3.2594,-3.2097,-3.1052,-3.0973,-3.0973,-3.0973,-3.0343,-2.9471,-2.8426,-2.773,-2.694,-2.5906,-2.5464,-2.5189,-2.5189,-2.47,-2.455,-4.5417,-4.5814,-4.6113,-4.6527,-4.4785,-4.2555,-4.0875,0.0,0.0,0.0,-3.6577,-3.6894,-3.7796,-3.9983,0.0,-4.4784,-4.7571,0.0,0.0,0.0,0.0,0.0,0.0,0.0,0.0,0.0,0.0,0.0,0.0,0.0,-6.2705,-6.25,-6.2344,-6.2185,-6.097,-5.9998,-5.9331,-5.7058,-5.5628,-5.5041,-5.3954,-5.3518,-5.3484,-5.2672,-5.2097,-5.1691,0.0,0.0,-4.9492,-4.9154,-4.9018,-4.9018,-4.9018,-4.9018,-4.8917,-4.8173,-4.6969,-4.5664,-4.4561,-4.3087,-4.1524,-4.1155,-4.1032,-4.097,-4.0632,-4.0539,-4.0539,-4.0539,-4.0539,-4.047,-4.0401,-4.0191,-4.0011,-3.9839,-3.9625,-3.8943,-3.7281,-3.6267,-3.5413,-3.4564,-3.4397,-3.4397,-3.4397,-3.4397,-3.4397,-3.4397,-3.4397,-3.4397,-3.4397,-3.4397,-3.4397,-3.4397,-3.4136,-3.3639,-3.2751,-3.2411,-3.1888,-3.1026,-3.0973,-3.0973,-3.0973,-3.0312,-2.9402,-2.8426,-2.7608,-2.6748,-2.5738,-2.5295,-2.502,-2.5041,-2.47,-2.455,-4.6196,-4.6167,-4.6025,-4.6645,-4.4113,-4.103,-3.9408,-3.7812,0.0,0.0,-3.595,-3.6748,-3.8141,-3.9552,-4.1156,0.0,-4.504,0.0,0.0,0.0,0.0,0.0,0.0,0.0,0.0,0.0,0.0,0.0,0.0,0.0,0.0,-6.2291,-6.2112,-6.1914,-6.0392,-5.9529,-5.9366,-5.674,-5.5279,-5.511,-5.3817,-5.3179,-5.2976,-5.2198,-5.1522,-5.0913,0.0,0.0,0.0,-4.8849,-4.8849,-4.8984,-4.8849,-4.8781,-4.868,-4.7585,-4.6441,-4.5177,-4.3686,-4.2446,-4.1278,-4.0724,-4.0539,-4.0539,-4.0539,-4.0539,-4.0539,-4.0539,-4.0539,-4.047,-4.047,-4.0191,-4.0011,-3.9869,-3.9337,-3.8472,-3.7204,-3.666,-3.5949,-3.462,-3.4397,-3.4397,-3.4397,-3.4397,-3.4397,-3.4397,-3.4397,-3.4397,-3.4397,-3.4397,-3.4397,-3.4397,-3.3927,-3.3404,-3.2934,-3.2254,-3.1653,-3.1209,-3.1052,-3.0973,-3.0973,-3.0128,-2.9227,-2.8426,-2.727,-2.6336,-2.557,-2.5126,-2.4871,-2.485,-2.4615,-2.455,-4.8247,-4.808,-4.7472,-4.743,-4.5589,-4.2943,-3.9569,0.0,0.0,-3.5964,-3.6295,-3.7317,-3.8218,-3.8606,-3.9735,0.0,0.0,-4.6287,0.0,0.0,0.0,0.0,0.0,0.0,0.0,0.0,0.0,0.0,0.0,0.0,0.0,-6.2185,-6.1805,-6.0955,-6.005,-5.8988,-5.7723,-5.614,-5.472,-5.3494,-5.2762,-5.2063,-5.1386,-5.0642,-5.027,-5.0101,0.0,0.0,0.0,-4.8308,-4.8409,-4.8951,-4.8274,-4.8037,-4.7774,-4.5724,-4.4545,-4.3686,-4.2202,-4.1252,-4.0632,-4.0539,-4.0539,-4.0539,-4.0539,-4.0539,-4.0539,-4.0539,-4.0539,-4.047,-4.0331,-4.0152,-3.994,-3.9553,-3.8219,-3.7127,-3.6972,-3.5709,-3.4538,-3.4397,-3.4397,-3.4397,-3.4397,-3.4397,-3.4397,-3.4397,-3.4397,-3.4397,-3.4397,-3.4397,-3.4397,-3.4397,-3.3927,-3.3561,-3.3509,-3.2489,-3.181,-3.1757,-3.1287,-3.0973,-3.0973,-2.8999,-2.8028,-2.8402,-2.6174,-2.5218,-2.557,-2.5126,-2.4871,-2.485,-2.4615,-2.455,-4.6481,-4.6977,-4.699,-4.6845,-4.4334,-4.1454,-3.9593,0.0,-3.6475,-3.5565,-3.6114,-3.7104,-3.8365,-3.8997,-3.9995,0.0,0.0,0.0,0.0,0.0,0.0,0.0,0.0,0.0,0.0,0.0,0.0,0.0,0.0,0.0,0.0,-6.1335,-6.0972,-6.0122,-5.8934,-5.7672,-5.6255,-5.478,-5.3383,-5.2009,-5.1787,-5.1488,-5.1183,-5.0439,-4.9864,-4.939,0.0,0.0,0.0,-4.7868,-4.7834,-4.7699,-4.7868,-4.7631,-4.7064,-4.5782,-4.4594,-4.3588,-4.2462,-4.1393,-4.0539,-4.0539,-4.0539,-4.0539,-4.0539,-4.0539,-4.0539,-4.0539,-4.0539,-4.047,-4.0331,-4.0051,-3.9768,-3.9481,-3.8472,-3.7539,-3.7049,-3.5976,-3.5032,-3.4481,-3.4397,-3.4397,-3.4397,-3.4397,-3.4397,-3.4397,-3.4397,-3.4397,-3.4397,-3.4397,-3.4397,-3.4397,-3.3587,-3.3064,-3.3064,-3.1993,-3.1339,-3.1339,-3.1104,-3.0748,-3.0266,-2.8999,-2.8106,-2.7706,-2.6094,-2.53,-2.538,-2.4871,-2.4615,-2.4615,-2.4529,-2.455,-4.515,-4.5973,-4.6453,-4.6254,-4.3476,-4.0504,0.0,0.0,-3.5697,-3.533,-3.6166,-3.7218,-3.8183,-3.9157,-4.0233,0.0,0.0,-4.3467,0.0,0.0,0.0,0.0,0.0,0.0,0.0,0.0,0.0,0.0,0.0,0.0,0.0,-5.9868,-5.947,-5.8927,-5.7944,-5.6597,-5.5009,-5.3847,-5.2502,-5.1196,-5.0943,-5.0676,-5.0236,-4.9695,-4.9052,0.0,0.0,0.0,0.0,-4.7124,-4.709,-4.6819,-4.7124,-4.6921,-4.638,-4.537,-4.4324,-4.3233,-4.2462,-4.1459,-4.0539,-4.0539,-4.0539,-4.0539,-4.0539,-4.0539,-4.0539,-4.0539,-4.047,-4.0401,-4.0191,-3.991,-3.9625,-3.9409,-3.8826,-3.7947,-3.7049,-3.6267,-3.544,-3.4564,-3.4397,-3.4397,-3.4397,-3.4397,-3.4397,-3.4397,-3.4397,-3.4397,-3.4397,-3.4397,-3.4397,-3.4397,-3.3535,-3.296,-3.296,-3.1888,-3.1235,-3.1235,-3.0851,-3.0343,-2.9704,-2.8669,-2.7795,-2.7162,-2.5954,-2.5218,-2.5189,-2.47,-2.455,-2.455,-2.455,-2.455,-4.5058,-4.5726,-4.622,-4.5976,-4.362,-4.1002,0.0,-3.8162,-3.6939,-3.5497,-3.669,-3.7897,-3.7574,-3.8865,-4.0163,-4.0599,0.0,0.0,0.0,0.0,0.0,0.0,0.0,0.0,0.0,0.0,0.0,0.0,0.0,0.0,0.0,0.0,-5.7224,-5.7224,-5.7224,-5.6176,-5.4044,-5.3329,-5.238,-5.1104,-5.0441,-4.9357,-4.7936,-4.7936,0.0,0.0,0.0,0.0,0.0,-4.6007,-4.6143,-4.6718,-4.6007,-4.5737,-4.5544,-4.4064,-4.3075,-4.2395,-4.1787,-4.1091,-4.0539,-4.0539,-4.0539,-4.0539,-4.0539,-4.0539,-4.0539,-4.0539,-4.0401,-4.0191,-3.9839,-3.9696,-3.9625,-3.9409,-3.8826,-3.7947,-3.7049,-3.6267,-3.544,-3.4564,-3.4397,-3.4397,-3.4397,-3.4397,-3.4397,-3.4397,-3.4397,-3.4397,-3.4397,-3.4397,-3.4397,-3.4397,-3.3901,-3.3587,-3.3587,-3.2515,-3.1759,-3.1759,-3.0496,-2.9704,-2.9704,-2.7608,-2.6634,-2.7185,-2.5404,-2.4743,-2.5189,-2.47,-2.455,-2.455,-2.455,-2.455,-4.1926,-4.2293,-4.2313,-4.2211,-4.066,-3.8996,-3.841,-3.7136,-3.6048,-3.5572,-3.6612,-3.7798,-3.8607,-3.9889,-4.1312,-4.2774,0.0,0.0,0.0,0.0,0.0,0.0,0.0,0.0,0.0,0.0,0.0,0.0,0.0,0.0,0.0,0.0,-5.5347,-5.5845,-5.4848,-5.3631,-5.2053,-5.1356,-5.0317,-4.8882,-4.8734,-4.8105,-4.7158,-4.7158,0.0,0.0,0.0,0.0,0.0,-4.5602,-4.5534,-4.5297,-4.5602,-4.5399,-4.4891,-4.4394,-4.3529,-4.2458,-4.2269,-4.1459,-4.0539,-4.0539,-4.0539,-4.0539,-4.0539,-4.0539,-4.047,-4.0401,-4.0191,-4.0051,-3.9768,-3.9625,-3.9481,-3.9409,-3.8323,-3.7204,-3.6972,-3.5789,-3.4703,-3.4481,-3.4397,-3.4397,-3.4397,-3.4397,-3.4397,-3.4397,-3.4397,-3.4397,-3.4397,-3.4397,-3.4397,-3.4397,-3.4241,-3.4005,-3.3613,-3.2515,-3.1759,-3.1759,-3.1059,-3.0012,-2.8821,-2.81,-2.7301,-2.6302,-2.5398,-2.5146,-2.5464,-2.4786,-2.455,-2.455,-2.455,-2.455,0.0,-4.0089,-4.0436,-4.0387,-3.9166,0.0,-3.8261,-3.7144,-3.6129,-3.6434,-3.7274,-3.8219,-3.8842,-4.0305,-4.168,-4.2757,0.0,0.0,0.0,0.0,0.0,0.0,0.0,0.0,0.0,0.0,0.0,0.0,0.0,0.0,0.0,0.0,-5.3303,-5.3278,-5.2529,-5.1542,-5.0241,-4.9521,-4.8583,-4.7496,-4.7496,-4.709,-4.638,0.0,0.0,0.0,0.0,0.0,0.0,-4.5094,-4.4993,-4.4621,-4.5094,-4.4993,-4.4587,-4.4587,-4.3856,-4.2831,-4.2583,-4.1787,-4.0851,-4.0578,-4.0539,-4.0539,-4.0539,-4.0539,-4.047,-4.0261,-4.0081,-3.994,-3.9625,-3.9481,-3.9409,-3.9409,-3.8397,-3.7281,-3.6972,-3.5869,-3.4786,-3.4481,-3.4397,-3.4397,-3.4397,-3.4397,-3.4397,-3.4397,-3.4397,-3.4397,-3.4397,-3.4397,-3.4397,-3.4397,-3.4397,-3.4267,-3.3927,-3.3038,-3.2306,-3.1785,-3.0855,-2.9774,-2.8426,-2.7787,-2.694,-2.5906,-2.5549,-2.538,-2.5464,-2.4786,-2.455,-2.455,-2.455,-2.455,0.0,-3.8928,-3.9932,0.0,0.0,0.0,-3.8734,-3.7855,0.0,-3.7753,-3.8497,-3.8914,-3.87,-4.02,-4.1419,-4.1238,0.0,0.0,0.0,0.0,0.0,0.0,0.0,0.0,0.0,0.0,0.0,0.0,0.0,0.0,0.0,0.0,0.0,-4.9769,-5.0195,-4.9846,-4.8643,-4.7885,-4.7261,-4.6718,-4.6718,-4.6346,-4.5635,0.0,0.0,0.0,0.0,0.0,0.0,-4.4587,-4.4587,-4.4587,-4.4587,-4.4587,-4.4587,-4.4587,-4.4121,-4.3317,-4.2707,-4.2013,-4.1327,-4.0715,-4.0539,-4.0539,-4.0539,-4.0539,-4.047,-4.0051,-4.0011,-3.994,-3.9481,-3.9409,-3.9409,-3.9409,-3.8723,-3.7872,-3.7049,-3.6188,-3.5359,-3.4564,-3.4397,-3.4397,-3.4397,-3.4397,-3.4397,-3.4397,-3.4397,-3.4397,-3.4397,-3.4397,-3.4397,-3.4397,-3.4397,-3.4397,-3.4397,-3.3901,-3.3117,-3.1967,-3.0318,-2.9165,-2.845,-2.694,-2.6052,-2.5841,-2.5673,-2.5443,-2.5126,-2.468,-2.4488,-2.4488,-2.4488,-2.4488,-3.7,0.0,-3.6852,-3.7522,-3.7373,-3.7246,0.0,-3.7889,-3.7686,-3.7855,-3.8497,-3.9253,-4.0122,-4.0654,-4.1441,0.0,0.0,0.0,0.0,0.0,0.0,0.0,0.0,0.0,0.0,0.0,0.0,0.0,0.0,0.0,0.0,0.0,0.0,-4.7563,-4.7158,-4.7022,-4.7257,-4.7087,-4.6656,-4.5974,-4.5974,-4.5568,-4.4857,0.0,0.0,0.0,0.0,0.0,0.0,-4.4587,-4.4587,-4.4587,-4.4587,-4.4587,-4.4587,-4.4587,-4.3798,-4.2707,-4.2583,-4.1722,-4.0715,-4.0509,-4.0539,-4.0539,-4.0539,-4.0539,-4.047,-4.0051,-4.0011,-3.994,-3.9481,-3.9409,-3.9409,-3.9409,-3.8323,-3.7127,-3.6972,-3.5709,-3.4647,-3.4481,-3.4397,-3.4397,-3.4397,-3.4397,-3.4397,-3.4397,-3.4397,-3.4397,-3.4397,-3.4397,-3.4397,-3.4397,-3.4397,-3.4397,-3.4397,-3.3901,-3.3273,-3.2542,-3.1681,-3.036,-2.845,-2.8028,-2.7059,-2.5442,-2.5092,-2.4849,-2.4615,-2.4367,-2.42,-2.4033,-2.4033,-2.4033,-3.7767,-3.7246,-3.6671,-3.6831,-3.7055,-3.7483,-3.8227,0.0,0.0,0.0,0.0,0.0,0.0,0.0,0.0,0.0,0.0,0.0,0.0,0.0,0.0,0.0,0.0,0.0,0.0,0.0,0.0,0.0,0.0,0.0,0.0,0.0,0.0,0.0,-4.5906,-4.5906,-4.6278,-4.594,-4.5568,-4.5196,-4.5196,-4.4993,-4.4587,0.0,0.0,0.0,0.0,0.0,-4.4587,-4.4587,-4.4587,-4.4553,-4.4181,-4.4248,-4.4519,-4.3866,-4.3322,-4.2892,-4.2269,-4.1327,-4.0539,-4.0539,-4.0539,-4.047,-4.0401,-4.0401,-4.0331,-4.0081,-3.994,-3.9768,-3.9481,-3.9409,-3.9409,-3.9409,-3.8144,-3.6894,-3.6894,-3.5575,-3.4397,-3.4397,-3.4397,-3.4397,-3.4397,-3.4397,-3.4397,-3.4397,-3.4397,-3.4397,-3.4397,-3.4397,-3.4293,-3.4058,-3.4031,-3.3927,-3.3639,-3.3352,-3.3038,-3.2698,-3.1391,-2.992,-2.8168,-2.7144,-2.6154,-2.5082,-2.4866,-2.4682,-2.4409,-2.4159,-2.3929,-2.3557,-2.3557,-2.3557,-3.8836,-3.8802,-3.8328,-3.7381,-3.7618,-3.8261,-3.9005,0.0,0.0,0.0,0.0,0.0,0.0,-4.1203,0.0,0.0,0.0,0.0,0.0,0.0,0.0,0.0,0.0,0.0,0.0,0.0,0.0,0.0,0.0,0.0,0.0,0.0,0.0,0.0,-4.5534,-4.5534,-4.5534,-4.4891,-4.4587,-4.4587,-4.4587,-4.4519,-4.4418,-4.4418,0.0,0.0,0.0,0.0,-4.4587,-4.4587,-4.4587,-4.4485,-4.3707,-4.391,-4.4395,-4.2865,-4.2675,-4.3032,-4.1565,-4.0645,-4.0232,-4.0232,-4.0232,-4.0163,-4.0147,-4.0109,-4.0069,-3.998,-3.9778,-3.9474,-3.9331,-3.92,-3.911,-3.911,-3.7941,-3.6754,-3.6754,-3.5494,-3.4397,-3.4397,-3.4397,-3.4397,-3.4397,-3.4397,-3.4397,-3.4397,-3.4397,-3.4397,-3.4397,-3.4319,-3.4136,-3.3744,-3.3639,-3.343,-3.2986,-3.2854,-3.2748,-3.2564,-3.0698,-2.8979,-2.7603,-2.5622,-2.461,-2.4734,-2.4808,-2.4619,-2.4221,-2.3992,-2.3639,-2.3184,-2.3184,-2.3143,-3.8971,-4.0257,-4.1136,-3.914,-3.8734,-3.9005,-3.9749,-3.9918,0.0,0.0,0.0,0.0,0.0,0.0,0.0,0.0,0.0,0.0,0.0,0.0,0.0,0.0,0.0,0.0,0.0,0.0,0.0,0.0,0.0,0.0,0.0,0.0,0.0,0.0,0.0,-4.4756,-4.4756,-4.4654,-4.4587,-4.4587,-4.444,-4.4103,-4.3606,-4.344,-4.3495,0.0,0.0,0.0,-4.4587,-4.4587,-4.4587,-4.4485,-4.3707,-4.391,-4.4328,-4.2299,-4.1683,-4.1549,-3.9624,-3.8882,-3.8816,-3.8816,-3.8816,-3.8872,-3.9259,-3.9268,-3.9282,-3.9617,-3.9274,-3.8782,-3.8612,-3.8123,-3.7704,-3.7704,-3.6852,-3.6031,-3.6031,-3.5223,-3.4397,-3.4397,-3.4397,-3.4397,-3.4397,-3.4397,-3.4397,-3.4397,-3.4397,-3.4397,-3.4397,-3.4005,-3.3875,-3.4241,-3.3875,-3.3744,-3.411,-3.3444,-3.271,-3.2256,-3.111,-2.9242,-2.6744,-2.5378,-2.4669,-2.453,-2.4345,-2.4388,-2.4447,-2.4053,-2.3639,-2.3184,-2.3184,-2.2977,-3.958,-4.0324,-4.1035,-4.0832,-4.1407,-4.2083,-4.2422,-4.2523,0.0,0.0,0.0,0.0,0.0,0.0,0.0,0.0,0.0,0.0,0.0,0.0,0.0,0.0,0.0,0.0,0.0,0.0,0.0,0.0,0.0,0.0,0.0,0.0,0.0,0.0,0.0,0.0,-4.4587,-4.4091,-4.4091,-4.4587,-4.4091,-4.363,-4.3293,-4.2888,-4.2867,0.0,0.0,-4.3732,-4.444,-4.444,-4.426,-4.3876,-4.3098,-4.3031,-4.3124,-4.1493,-4.043,-3.9787,-3.8797,-3.8508,-3.8508,-3.8508,-3.8442,-3.8371,-3.8544,-3.8432,-3.8318,-3.8451,-3.8772,-3.9032,-3.8931,-3.8721,-3.8482,-3.8482,-3.7403,-3.6473,-3.6473,-3.5385,-3.4397,-3.4397,-3.4397,-3.4397,-3.4397,-3.4397,-3.4397,-3.4397,-3.4397,-3.4397,-3.4397,-3.4188,-3.4005,-3.3979,-3.3744,-3.3561,-3.3483,-3.2612,-3.1571,-3.0374,-2.9306,-2.7693,-2.5328,-2.4588,-2.4147,-2.3985,-2.3991,-2.4054,-2.4178,-2.3971,-2.3639,-2.3184,-2.2936,-2.2708,-4.0087,-4.0324,-4.0865,-4.2016,-4.2929,-4.3809,-4.4857,-4.4823,-4.4451,0.0,0.0,0.0,0.0,0.0,0.0,0.0,0.0,0.0,0.0,0.0,0.0,0.0,0.0,0.0,0.0,0.0,0.0,0.0,0.0,0.0,0.0,0.0,0.0,0.0,0.0,0.0,-4.399,-4.3271,-4.3373,-4.4226,-4.3428,-4.2901,-4.2589,-4.2126,-4.2139,-4.2456,-4.2601,-4.306,-4.3732,-4.3732,-4.3452,-4.2989,-4.2267,-4.1755,-4.1264,-4.0442,-3.9247,-3.8046,-3.8046,-3.7981,-3.795,-3.795,-3.7851,-3.775,-3.7734,-3.7563,-3.7429,-3.7443,-3.8153,-3.896,-3.896,-3.896,-3.8859,-3.8716,-3.7647,-3.6592,-3.6437,-3.5305,-3.4397,-3.4397,-3.4397,-3.4397,-3.4397,-3.4397,-3.4397,-3.4397,-3.4397,-3.4397,-3.4397,-3.4162,-3.3953,-3.3796,-3.3535,-3.3086,-3.2346,-3.1644,-3.0385,-2.8482,-2.7402,-2.5954,-2.3996,-2.3951,-2.3773,-2.3507,-2.3826,-2.4033,-2.4033,-2.4033,-2.3743,-2.3184,-2.2832,-2.2604,-4.0087,-4.1068,-4.2151,-4.2252,-4.1339,-4.1508,-4.5669,-4.5568,0.0,-4.797,0.0,0.0,0.0,0.0,0.0,0.0,0.0,0.0,0.0,0.0,0.0,0.0,0.0,0.0,0.0,0.0,0.0,0.0,0.0,0.0,0.0,0.0,0.0,0.0,0.0,0.0,-4.2274,-4.2206,-4.2543,-4.3305,-4.2433,-4.1619,-4.095,-4.0936,-4.097,-4.095,-4.095,-4.1406,-4.2076,-4.2076,-4.2043,-4.1942,-4.1331,-4.0059,-3.8674,-3.9242,-3.8261,-3.663,-3.663,-3.6505,-3.6348,-3.6348,-3.6285,-3.6246,-3.6688,-3.6803,-3.6857,-3.7293,-3.7494,-3.7554,-3.7554,-3.7554,-3.7347,-3.6616,-3.6225,-3.5746,-3.4998,-3.4659,-3.4397,-3.4397,-3.4397,-3.4397,-3.4397,-3.4397,-3.4397,-3.4397,-3.4397,-3.4397,-3.4397,-3.3483,-3.3195,-3.4214,-3.3404,-3.229,-3.1162,-3.0955,-2.9942,-2.7503,-2.6323,-2.4923,-2.3232,-2.3858,-2.3948,-2.3507,-2.4137,-2.4488,-2.4488,-2.4488,-2.4033,-2.3184,-2.3163,-2.2915,-4.0087,-4.1508,-4.2861,-4.2388,-4.2591,0.0,0.0,-4.8071,-4.8206,-4.8849,-4.9661,0.0,0.0,0.0,0.0,0.0,0.0,0.0,0.0,0.0,0.0,0.0,0.0,0.0,0.0,0.0,0.0,0.0,0.0,0.0,0.0,0.0,0.0,0.0,0.0,0.0,0.0,-4.1418,-4.1352,-4.1586,-4.1352,-4.103,-4.0675,-4.0314,-4.0294,-4.0546,-4.0654,-4.1109,-4.1777,-4.1777,-4.1565,-4.1171,-4.0538,-3.9454,-3.823,-3.8602,-3.7725,-3.6289,-3.6289,-3.6226,-3.61,-3.61,-3.5973,-3.5876,-3.5989,-3.6045,-3.5974,-3.6148,-3.6237,-3.6417,-3.7195,-3.7404,-3.7287,-3.6895,-3.6351,-3.5774,-3.5407,-3.4872,-3.4397,-3.4397,-3.4397,-3.4397,-3.4397,-3.4397,-3.4397,-3.4397,-3.4397,-3.4267,-3.3953,-3.3822,-3.3639,-3.3352,-3.2426,-3.1518,-3.0555,-2.9593,-2.7989,-2.5352,-2.5721,-2.555,-2.4548,-2.4323,-2.4033,-2.3783,-2.3681,-2.3846,-2.4136,-2.4136,-2.395,-2.3619,-2.3619,-2.337,-4.0426,-4.1542,-4.2726,-4.2658,0.0,0.0,-4.8849,-4.9898,-5.0405,-5.1555,-5.1691,-5.098,-4.8984,0.0,0.0,0.0,0.0,0.0,0.0,0.0,0.0,0.0,0.0,0.0,0.0,0.0,0.0,0.0,0.0,0.0,0.0,0.0,0.0,0.0,0.0,0.0,0.0,-4.0188,-3.9768,-3.9481,-3.9587,-3.9721,-3.9814,-3.9206,-3.9254,-3.9686,-3.9794,-4.028,-4.0912,-4.0912,-4.0754,-4.0327,-3.9982,-3.9115,-3.8116,-3.8254,-3.7413,-3.6196,-3.6196,-3.607,-3.591,-3.591,-3.5782,-3.5653,-3.5653,-3.5524,-3.5519,-3.5519,-3.5519,-3.5699,-3.6567,-3.679,-3.6733,-3.6764,-3.6118,-3.5549,-3.5305,-3.4786,-3.4397,-3.4397,-3.4397,-3.4397,-3.4397,-3.4397,-3.4397,-3.4397,-3.4267,-3.4005,-3.3639,-3.3587,-3.3193,-3.2173,-3.1487,-3.0686,-2.9367,-2.821,-2.6422,-2.4111,-2.4887,-2.5082,-2.4196,-2.399,-2.3825,-2.366,-2.3619,-2.3764,-2.4095,-2.4095,-2.4012,-2.3867,-2.3722,-2.3494,-4.1204,-4.1204,-4.1576,-4.3064,0.0,0.0,-5.0033,-5.0642,-5.1589,-5.6799,-5.3721,-5.0101,-5.0101,0.0,0.0,0.0,0.0,0.0,0.0,0.0,0.0,0.0,0.0,0.0,0.0,0.0,0.0,0.0,0.0,0.0,0.0,0.0,0.0,0.0,0.0,0.0,0.0,-3.8369,-3.7951,-3.7102,-3.7102,-3.75,-3.8162,-3.7586,-3.7619,-3.8195,-3.8195,-3.8593,-3.9309,-3.9288,-3.9362,-3.9468,-3.9625,-3.9061,-3.8084,-3.8222,-3.7413,-3.6196,-3.6196,-3.5943,-3.5657,-3.5657,-3.5589,-3.5489,-3.5489,-3.5489,-3.5489,-3.5489,-3.5489,-3.5489,-3.5489,-3.5377,-3.535,-3.5808,-3.5278,-3.4685,-3.4406,-3.4397,-3.4397,-3.4397,-3.4397,-3.4397,-3.4397,-3.4397,-3.4397,-3.4397,-3.3927,-3.3613,-3.3587,-3.2568,-3.1526,-3.0716,-3.0612,-2.9782,-2.751,-2.668,-2.5701,-2.4306,-2.3727,-2.3008,-2.1859,-2.2708,-2.3184,-2.3184,-2.4074,-2.4529,-2.4529,-2.4529,-2.4302,-2.3846,-2.3412,-2.3184,-4.0561,-4.1576,0.0,-4.3301,0.0,0.0,0.0,-5.142,0.0,0.0,-5.3856,-5.1488,-5.098,0.0,0.0,0.0,0.0,0.0,0.0,0.0,0.0,0.0,0.0,0.0,0.0,0.0,0.0,0.0,0.0,0.0,0.0,0.0,0.0,0.0,0.0,0.0,0.0,0.0,-3.7385,-3.7102,-3.6572,-3.6704,-3.7433,-3.7252,-3.7285,-3.7433,-3.7433,-3.7831,-3.856,-3.9056,-3.9063,-3.8702,-3.8493,-3.7654,-3.6667,-3.6901,-3.5966,-3.4699,-3.5155,-3.4817,-3.4145,-3.4145,-3.4145,-3.4083,-3.4083,-3.4083,-3.4083,-3.4083,-3.3754,-3.3604,-3.4532,-3.3631,-3.2829,-3.4281,-3.4038,-3.3473,-3.3224,-3.3535,-3.3822,-3.3822,-3.4136,-3.4397,-3.4397,-3.4397,-3.4267,-3.3875,-3.4005,-3.4031,-3.3639,-3.2568,-3.15,-3.077,-2.9337,-2.7795,-2.6442,-2.4949,-2.3708,-2.3003,-2.2674,-2.2688,-2.2987,-2.3119,-2.3184,-2.3184,-2.3122,-2.3101,-2.3101,-2.3101,-2.3039,-2.2915,-2.3432,-2.3494,-4.1373,-4.2388,0.0,-4.4514,-4.6851,-4.9593,-5.1792,0.0,0.0,0.0,0.0,0.0,0.0,0.0,0.0,0.0,0.0,0.0,0.0,0.0,0.0,0.0,0.0,0.0,0.0,0.0,0.0,0.0,0.0,0.0,0.0,0.0,0.0,0.0,0.0,0.0,0.0,0.0,0.0,-3.6208,-3.5777,-3.581,-3.6241,-3.6241,-3.6406,-3.6671,-3.697,-3.7201,-3.74,-3.8129,-3.8048,-3.7435,-3.7288,-3.6669,-3.5915,-3.583,-3.5047,-3.403,-3.4394,-3.409,-3.3484,-3.3484,-3.3484,-3.3484,-3.3484,-3.3484,-3.3484,-3.3484,-3.3215,-3.3035,-3.3532,-3.2522,-3.1797,-3.362,-3.3293,-3.2581,-3.2647,-3.2986,-3.3221,-3.3221,-3.3509,-3.3718,-3.3718,-3.3718,-3.3613,-3.3273,-3.3509,-3.3509,-3.296,-3.1733,-3.0598,-2.9646,-2.771,-2.6053,-2.4989,-2.3623,-2.2645,-2.2273,-2.2101,-2.2199,-2.2762,-2.2891,-2.2915,-2.2915,-2.2811,-2.277,-2.277,-2.277,-2.277,-2.277,-2.3163,-2.3267,-4.2861,0.0,0.0,-4.6079,-4.7892,0.0,-5.173,-5.4258,-5.6014,-5.5376,0.0,0.0,0.0,0.0,0.0,0.0,0.0,0.0,0.0,0.0,0.0,0.0,0.0,0.0,0.0,0.0,0.0,0.0,0.0,0.0,0.0,0.0,0.0,0.0,0.0,0.0,0.0,0.0,0.0,0.0,-3.4769,-3.4769,-3.4883,-3.4883,-3.528,-3.5943,-3.6671,-3.6638,-3.6075,-3.6804,-3.6671,-3.5943,-3.613,-3.5873,-3.5377,-3.4917,-3.4287,-3.3727,-3.3698,-3.3577,-3.3305,-3.3305,-3.3305,-3.3305,-3.3305,-3.3305,-3.3305,-3.3305,-3.3305,-3.3183,-3.2591,-3.1919,-3.1808,-3.3424,-3.2705,-3.1836,-3.2359,-3.2542,-3.262,-3.262,-3.2646,-3.2698,-3.2698,-3.2751,-3.2751,-3.2698,-3.2646,-3.2385,-3.1757,-3.0497,-2.9148,-2.769,-2.5972,-2.4514,-2.3426,-2.2734,-2.2252,-2.2101,-2.1873,-2.1797,-2.1797,-2.2211,-2.2439,-2.2439,-2.2853,-2.306,-2.306,-2.306,-2.306,-2.306,-2.2666,-2.2729,0.0,-4.2055,0.0,0.0,-4.8348,-5.0343,-5.0978,-5.1214,-5.1487,0.0,0.0,0.0,0.0,0.0,0.0,0.0,0.0,0.0,0.0,0.0,0.0,0.0,0.0,0.0,0.0,0.0,0.0,0.0,0.0,0.0,0.0,0.0,0.0,0.0,0.0,0.0,-3.2819,-3.3463,-3.3944,0.0,-3.3665,-3.394,-3.4883,-3.4883,-3.4982,-3.5181,-3.5909,-3.6141,-3.6075,-3.6804,-3.6437,-3.5411,-3.5025,-3.3996,-3.2729,-3.3213,-3.257,-3.1615,-3.2672,-3.2526,-3.1958,-3.1958,-3.1958,-3.1958,-3.1958,-3.1958,-3.1958,-3.1958,-3.1958,-3.1901,-3.174,-3.154,-3.1299,-3.1213,-3.0833,-3.0529,-3.066,-3.1392,-3.2019,-3.2019,-3.2385,-3.2698,-3.2698,-3.3091,-3.3247,-3.2751,-3.2306,-3.1653,-3.0634,-2.9678,-2.8425,-2.665,-2.5303,-2.4055,-2.2972,-2.2315,-2.1949,-2.2101,-2.1873,-2.1797,-2.1797,-2.1901,-2.1963,-2.1963,-2.2045,-2.2108,-2.2108,-2.2108,-2.2108,-2.2108,-2.2377,-2.2542,0.0,0.0,0.0,0.0,0.0,0.0,0.0,0.0,0.0,0.0,0.0,0.0,0.0,0.0,0.0,0.0,0.0,0.0,0.0,0.0,0.0,0.0,0.0,0.0,0.0,0.0,0.0,0.0,0.0,0.0,0.0,0.0,0.0,0.0,0.0,0.0,-3.231,-3.2573,-3.2863,-3.3201,-3.3096,-3.368,-3.4883,-3.4883,-3.4883,-3.4916,-3.5313,-3.528,-3.5015,-3.5744,-3.5334,-3.4183,-3.3962,-3.3203,-3.216,-3.1901,-3.1403,-3.092,-3.1501,-3.1387,-3.1091,-3.1362,-3.1482,-3.1482,-3.1482,-3.1482,-3.1482,-3.1482,-3.1482,-3.1367,-3.0733,-3.0715,-3.0554,-2.9349,-2.9557,-3.0059,-2.9771,-3.0424,-3.1026,-3.1026,-3.1496,-3.1888,-3.1888,-3.1914,-3.1836,-3.1522,-3.1209,-3.0742,-3.0215,-2.8897,-2.7483,-2.6142,-2.4511,-2.3263,-2.2499,-2.2101,-2.1949,-2.1949,-2.1873,-2.1797,-2.1797,-2.1797,-2.1797,-2.1797,-2.1797,-2.1797,-2.1797,-2.1797,-2.1797,-2.1818,-2.2045,-2.2397,0.0,0.0,0.0,0.0,0.0,0.0,0.0,0.0,0.0,0.0,0.0,0.0,0.0,0.0,0.0,0.0,0.0,0.0,0.0,0.0,0.0,0.0,0.0,0.0,0.0,0.0,0.0,0.0,0.0,0.0,0.0,0.0,0.0,0.0,0.0,-3.2185,-3.2063,-3.1933,-3.1966,-3.2069,-3.2545,-3.3258,-3.4225,-3.4358,-3.4556,-3.4883,-3.475,-3.4419,-3.4021,-3.4651,-3.4185,-3.3062,-3.3149,-3.2801,-3.2081,-3.0925,-3.0573,-3.0594,-3.0398,-3.0402,-3.0582,-3.118,-3.1392,-3.1482,-3.1482,-3.1482,-3.1482,-3.1482,-3.1482,-3.1219,-2.9813,-3.0003,-3.0072,-2.8014,-2.8778,-2.9823,-2.9248,-2.9588,-2.998,-2.998,-3.0372,-3.0712,-3.0817,-3.0451,-3.0111,-3.0006,-2.998,-2.9829,-2.9476,-2.7852,-2.6332,-2.5512,-2.372,-2.2478,-2.2101,-2.2101,-2.1949,-2.1797,-2.1797,-2.1797,-2.1797,-2.1797,-2.1797,-2.1797,-2.1797,-2.1797,-2.1797,-2.1797,-2.1797,-2.1797,-2.1797,-2.2252,0.0,0.0,0.0,0.0,0.0,0.0,0.0,0.0,0.0,0.0,0.0,0.0,0.0,0.0,0.0,0.0,0.0,0.0,0.0,0.0,0.0,0.0,0.0,0.0,0.0,0.0,0.0,0.0,0.0,0.0,0.0,0.0,-3.1988,-3.0821,-3.1327,0.0,-3.0754,-3.0774,-3.0989,-3.1526,-3.147,-3.1438,-3.1486,-3.2104,-3.3317,-3.4849,-3.422,-3.4253,-3.475,-3.4849,-3.4202,-3.3192,-3.3203,-3.2199,-3.0724,-3.0578,-3.0163,-2.9768,-2.9714,-3.0043,-3.0522,-3.0612,-3.1061,-3.1482,-3.1482,-3.1482,-3.1482,-3.1482,-3.1482,-3.1219,-2.9813,-3.0311,-3.0571,-2.8093,-2.849,-2.9222,-2.8621,-2.8961,-2.9405,-2.9405,-2.9457,-2.9666,-3.0163,-3.0189,-2.9954,-2.9457,-2.9405,-2.8802,-2.7101,-2.5942,-2.492,-2.415,-2.2927,-2.2176,-2.2101,-2.1949,-2.1797,-2.1797,-2.1797,-2.1797,-2.1797,-2.1797,-2.1797,-2.1797,-2.1797,-2.1797,-2.1797,-2.1797,-2.1797,-2.1797,-2.1797,-2.2087,0.0,0.0,0.0,0.0,0.0,0.0,0.0,0.0,0.0,0.0,0.0,0.0,0.0,0.0,0.0,0.0,0.0,0.0,0.0,0.0,0.0,0.0,0.0,0.0,0.0,0.0,0.0,0.0,0.0,0.0,0.0,-3.1958,-3.1689,-3.1091,-3.1001,0.0,-3.0492,-2.9804,-2.9554,-2.9693,-2.9632,-2.9927,-3.0573,-3.0706,-3.2014,-3.4253,-3.3922,-3.422,-3.4883,-3.4883,-3.4267,-3.3182,-3.3182,-3.2331,-3.1001,-3.0253,-2.9804,-2.9535,-2.9175,-2.9205,-2.9505,-2.9864,-3.0432,-3.0971,-3.0971,-3.121,-3.1541,-3.1988,-3.1486,-3.0776,-3.0177,-3.0109,-2.9804,-2.7907,-2.8177,-2.8621,-2.802,-2.836,-2.8882,-2.9222,-2.9274,-2.9248,-2.917,-2.9144,-2.8961,-2.8386,-2.8569,-2.8187,-2.6446,-2.58,-2.4917,-2.3621,-2.2681,-2.2025,-2.1949,-2.1873,-2.1797,-2.1797,-2.1797,-2.1797,-2.1797,-2.1797,-2.1797,-2.1797,-2.1797,-2.1797,-2.1797,-2.1797,-2.1797,-2.1797,-2.1797,-2.1859,0.0,0.0,0.0,0.0,0.0,0.0,0.0,0.0,0.0,0.0,0.0,0.0,0.0,0.0,0.0,0.0,0.0,0.0,0.0,0.0,0.0,0.0,0.0,0.0,0.0,0.0,0.0,0.0,0.0,0.0,-3.1482,-3.1482,-3.1392,-3.1213,-3.0761,-3.0432,-3.0283,-2.9175,-2.8454,-2.8222,-2.8174,-2.8711,-2.9785,-2.9526,-3.0674,-3.2905,-3.3135,-3.3756,-3.4618,-3.4475,-3.3956,-3.3182,-3.3055,-3.2351,-3.139,-3.0073,-2.9594,-2.9475,-2.8637,-2.8457,-2.8697,-2.9175,-2.9774,-3.0313,-3.0462,-3.0851,-3.1362,-3.1812,-3.1278,-3.0444,-3.0094,-2.9701,-2.908,-2.7788,-2.7968,-2.8229,-2.7654,-2.7863,-2.8307,-2.8752,-2.883,-2.8699,-2.8255,-2.815,-2.802,-2.7602,-2.7889,-2.7584,-2.6025,-2.566,-2.4865,-2.3128,-2.2381,-2.1949,-2.1797,-2.1797,-2.1797,-2.1797,-2.1797,-2.1797,-2.1797,-2.1921,-2.1921,-2.1797,-2.1921,-2.1921,-2.1797,-2.1797,-2.1721,-2.1492,-2.1492,-2.141,0.0,0.0,0.0,0.0,0.0,0.0,0.0,0.0,0.0,0.0,0.0,0.0,0.0,0.0,0.0,0.0,0.0,0.0,0.0,0.0,0.0,0.0,0.0,0.0,0.0,0.0,0.0,0.0,0.0,0.0,-3.1482,-3.1482,-3.124,-3.0582,-3.0522,-3.0223,-2.9624,-2.8936,-2.8248,-2.761,-2.761,-2.791,-2.8398,-2.8415,-2.9106,-3.0434,-3.1307,-3.2531,-3.3809,-3.3306,-3.3155,-3.313,-3.2656,-3.2079,-3.139,-3.0073,-2.9594,-2.9385,-2.812,-2.8068,-2.8607,-2.8637,-2.9086,-2.9744,-3.0342,-3.0522,-3.0589,-3.0572,-3.0539,-3.0208,-2.8958,-2.9007,-2.908,-2.7788,-2.7968,-2.8229,-2.7654,-2.7549,-2.7575,-2.7602,-2.7628,-2.7602,-2.7575,-2.7575,-2.7575,-2.7523,-2.7549,-2.6918,-2.5252,-2.4898,-2.4131,-2.2327,-2.1949,-2.1797,-2.1797,-2.1797,-2.1797,-2.1797,-2.1797,-2.1797,-2.1797,-2.2232,-2.2252,-2.1818,-2.2232,-2.2252,-2.1797,-2.1797,-2.1415,-2.0547,-2.0547,-2.0387,0.0,0.0,0.0,0.0,0.0,0.0,0.0,0.0,0.0,0.0,0.0,0.0,0.0,0.0,0.0,0.0,0.0,0.0,0.0,0.0,0.0,0.0,0.0,0.0,0.0,0.0,0.0,0.0,0.0,0.0,-3.1452,-3.0731,-3.0342,-3.0492,-2.9714,-2.8966,-2.8359,-2.8068,-2.759,-2.6931,-2.738,-2.745,-2.7225,-2.7959,-2.8539,-2.9075,-3.0532,-3.1981,-3.3368,-3.3616,-3.354,-3.313,-3.2602,-3.2023,-3.139,-3.0073,-2.9594,-2.9385,-2.809,-2.779,-2.7949,-2.7949,-2.8397,-2.8996,-2.9205,-2.9864,-3.0529,-3.0513,-3.0208,-2.9741,-2.9268,-2.8651,-2.8026,-2.7642,-2.768,-2.7785,-2.7575,-2.7523,-2.7523,-2.7523,-2.7523,-2.7523,-2.7523,-2.7837,-2.8072,-2.8072,-2.8726,-2.8247,-2.5684,-2.5607,-2.4746,-2.2164,-2.1797,-2.1797,-2.1797,-2.1797,-2.1797,-2.1797,-2.1797,-2.1942,-2.2232,-2.2418,-2.2563,-2.2687,-2.2853,-2.2563,-2.1797,-2.1242,-2.0779,-2.0469,-1.9982,-1.9476,-3.6028,0.0,0.0,0.0,0.0,0.0,0.0,0.0,0.0,0.0,0.0,0.0,0.0,0.0,0.0,0.0,0.0,0.0,0.0,0.0,0.0,0.0,0.0,0.0,0.0,0.0,0.0,0.0,0.0,0.0,-3.118,-3.0372,-2.9809,-2.9559,-2.8711,-2.7935,-2.7306,-2.7509,-2.74,-2.6931,-2.74,-2.74,-2.698,-2.7746,-2.8198,-2.8522,-3.0244,-3.1675,-3.2756,-3.3223,-3.3335,-3.313,-3.2382,-3.1853,-3.139,-3.0313,-2.9744,-2.9415,-2.8308,-2.7769,-2.761,-2.761,-2.7889,-2.8308,-2.8517,-2.9163,-2.9805,-2.9638,-2.9238,-2.8816,-2.8363,-2.7762,-2.7288,-2.7497,-2.7523,-2.7523,-2.7523,-2.7523,-2.7523,-2.7523,-2.7523,-2.7523,-2.7523,-2.7837,-2.8098,-2.8098,-2.8472,-2.7915,-2.5563,-2.5424,-2.4596,-2.2109,-2.2087,-2.2149,-2.1838,-2.1942,-2.2045,-2.2045,-2.2045,-2.2252,-2.2708,-2.2873,-2.3039,-2.3184,-2.3329,-2.2857,-2.1764,-2.1214,-2.0663,-2.006,-1.9469,-1.8854,0.0,0.0,0.0,0.0,0.0,0.0,0.0,0.0,0.0,0.0,0.0,0.0,0.0,0.0,0.0,0.0,0.0,0.0,0.0,0.0,0.0,0.0,0.0,0.0,0.0,0.0,0.0,0.0,0.0,-3.1153,-3.0496,-3.0406,-2.9559,-2.7694,-2.758,-2.7255,-2.6736,-2.7306,-2.756,-2.761,-2.761,-2.761,-2.761,-2.761,-2.7949,-2.8659,-3.0417,-3.147,-3.1948,-3.2069,-3.2562,-3.3077,-3.1936,-3.1482,-3.1392,-3.0761,-3.0133,-2.9505,-2.8846,-2.8188,-2.767,-2.764,-2.764,-2.7709,-2.8368,-2.8567,-2.8424,-2.7824,-2.7621,-2.739,-2.6169,-2.6269,-2.6817,-2.7392,-2.7523,-2.7523,-2.7523,-2.7523,-2.7523,-2.7523,-2.7523,-2.7523,-2.7523,-2.7549,-2.7482,-2.7482,-2.6714,-2.5791,-2.4826,-2.4249,-2.333,-2.1915,-2.2625,-2.2811,-2.1901,-2.2252,-2.2522,-2.2522,-2.2522,-2.2729,-2.3184,-2.3639,-2.3681,-2.3246,-2.3681,-2.3225,-2.1734,-2.1714,-2.0881,-1.9311,-1.9138,-1.8462,-3.5519,0.0,0.0,0.0,0.0,0.0,0.0,0.0,0.0,0.0,0.0,0.0,0.0,0.0,0.0,0.0,0.0,0.0,0.0,0.0,0.0,0.0,0.0,0.0,0.0,0.0,0.0,0.0,0.0,-2.9987,-2.9927,-2.8568,-2.7369,-2.6351,-2.6315,-2.6443,-2.6683,-2.6893,-2.7152,-2.761,-2.761,-2.761,-2.761,-2.761,-2.773,-2.794,-2.9304,-3.0261,-3.0923,-3.2321,-3.3024,-3.3077,-3.1936,-3.1482,-3.1392,-3.0761,-3.0402,-3.0103,-2.8996,-2.8786,-2.8876,-2.794,-2.7919,-2.8196,-2.7483,-2.754,-2.7705,-2.6602,-2.669,-2.6992,-2.6538,-2.6556,-2.6817,-2.7392,-2.7523,-2.7523,-2.7523,-2.7523,-2.7523,-2.7523,-2.7523,-2.7523,-2.7523,-2.7728,-2.7945,-2.7945,-2.7485,-2.6724,-2.5295,-2.4476,-2.3504,-2.1915,-2.2335,-2.2584,-2.2335,-2.2729,-2.2998,-2.2998,-2.2998,-2.3205,-2.3681,-2.3805,-2.3971,-2.4157,-2.4302,-2.3588,-2.2181,-2.1286,-2.0272,-1.9173,-1.8443,-1.7975,-3.5579,-3.5519,-3.5519,0.0,0.0,0.0,0.0,-3.5519,0.0,0.0,0.0,0.0,0.0,0.0,0.0,0.0,0.0,0.0,0.0,0.0,0.0,0.0,0.0,0.0,0.0,0.0,0.0,0.0,-3.0623,-2.9314,-2.8915,-2.7286,-2.6106,-2.5495,-2.5687,-2.5851,-2.5988,-2.6472,-2.6893,-2.7255,-2.7458,-2.761,-2.761,-2.761,-2.7739,-2.806,-2.9031,-2.9909,-3.0865,-3.1986,-3.2645,-3.2788,-3.1853,-3.1482,-3.1392,-3.0761,-3.0492,-3.0313,-2.9056,-2.9026,-2.9355,-2.806,-2.8038,-2.8353,-2.7097,-2.6957,-2.7058,-2.5791,-2.5576,-2.5795,-2.6212,-2.6321,-2.653,-2.734,-2.7523,-2.7523,-2.7523,-2.7523,-2.7523,-2.7523,-2.7523,-2.7456,-2.739,-2.7608,-2.761,-2.717,-2.6646,-2.585,-2.4568,-2.3851,-2.299,-2.1935,-2.2563,-2.2915,-2.2522,-2.3101,-2.3474,-2.3474,-2.3474,-2.3681,-2.4136,-2.4157,-2.4281,-2.4529,-2.455,-2.37,-2.2111,-2.1349,-2.0305,-1.9007,-1.8169,-1.7842,-3.5669,-3.5519,-3.5519,-3.5519,0.0,0.0,-3.5519,-3.5519,-3.5669,0.0,0.0,0.0,0.0,0.0,0.0,0.0,0.0,0.0,0.0,0.0,0.0,0.0,0.0,0.0,0.0,0.0,0.0,-3.2362,-3.0409,-2.8708,-2.7558,-2.6301,-2.5356,-2.4905,-2.5356,-2.5412,-2.5018,-2.6068,-2.663,-2.6736,-2.7306,-2.761,-2.761,-2.761,-2.7919,-2.8539,-2.8992,-2.993,-3.1221,-3.1221,-3.1651,-3.2327,-3.1739,-3.1482,-3.1392,-3.0851,-3.0612,-3.0432,-2.9235,-2.9235,-2.9564,-2.8077,-2.8077,-2.8337,-2.6939,-2.6519,-2.6272,-2.5211,-2.4505,-2.4387,-2.5537,-2.5824,-2.6112,-2.7262,-2.7523,-2.7523,-2.7523,-2.7523,-2.7482,-2.7561,-2.7509,-2.7482,-2.7426,-2.7307,-2.6918,-2.598,-2.5016,-2.4036,-2.3305,-2.2743,-2.2273,-2.1838,-2.2956,-2.3391,-2.2563,-2.3308,-2.3826,-2.3867,-2.3888,-2.4074,-2.4529,-2.455,-2.455,-2.455,-2.4272,-2.3299,-2.1516,-2.1427,-2.0529,-1.8812,-1.8176,-1.8049,-3.5549,-3.5519,-3.5519,0.0,0.0,0.0,-3.5519,-3.5519,-3.5549,0.0,0.0,0.0,0.0,0.0,0.0,0.0,0.0,0.0,0.0,0.0,0.0,0.0,0.0,0.0,0.0,0.0,-3.2234,-3.165,-2.8934,-2.6972,-2.6233,-2.5084,-2.439,-2.4274,-2.439,-2.462,-2.5018,-2.5632,-2.6229,-2.6736,-2.7306,-2.761,-2.761,-2.761,-2.77,-2.782,-2.7921,-2.8725,-2.9961,-2.9961,-3.0928,-3.2327,-3.1739,-3.1482,-3.1452,-3.1332,-3.133,-3.1153,-3.0402,-3.0582,-3.0738,-2.84,-2.8144,-2.8245,-2.5995,-2.5354,-2.5211,-2.4474,-2.4184,-2.4387,-2.5537,-2.5824,-2.6112,-2.7262,-2.7523,-2.7523,-2.7523,-2.7523,-2.7613,-2.7919,-2.766,-2.7478,-2.7877,-2.7293,-2.6728,-2.6355,-2.511,-2.3913,-2.3128,-2.2412,-2.1901,-2.1818,-2.2377,-2.2687,-2.2522,-2.2998,-2.3474,-2.3846,-2.3888,-2.4074,-2.4529,-2.455,-2.455,-2.455,-2.3018,-2.1695,-2.0619,-1.9729,-1.918,-1.8827,-1.8684,-1.8653,0.0,0.0,0.0,-3.5519,0.0,0.0,0.0,-3.5519,-3.5519,0.0,0.0,0.0,0.0,0.0,0.0,0.0,0.0,0.0,0.0,0.0,0.0,0.0,0.0,0.0,0.0,0.0,-3.0908,-2.9535,-2.7507,-2.6171,-2.5824,-2.4726,-2.4125,-2.4125,-2.4125,-2.4216,-2.4563,-2.5356,-2.596,-2.6283,-2.7203,-2.761,-2.761,-2.761,-2.761,-2.764,-2.7949,-2.8637,-2.9594,-2.9924,-3.0779,-3.191,-3.1655,-3.1482,-3.1422,-3.115,-3.124,-3.1332,-3.0402,-3.0462,-3.0619,-2.8437,-2.7952,-2.7818,-2.5659,-2.4791,-2.4505,-2.4184,-2.4125,-2.4308,-2.5171,-2.5615,-2.6033,-2.6896,-2.7314,-2.7523,-2.7523,-2.7523,-2.7639,-2.8006,-2.7808,-2.7636,-2.7806,-2.7232,-2.6377,-2.5397,-2.4792,-2.4055,-2.2895,-2.2569,-2.2418,-2.217,-2.2563,-2.2749,-2.2522,-2.2915,-2.3287,-2.3515,-2.3536,-2.3743,-2.4198,-2.4219,-2.4047,-2.382,-2.2403,-2.1248,-2.0348,-1.9271,-1.8827,-1.8827,-1.8827,-1.8827,0.0,0.0,0.0,0.0,0.0,-3.5519,0.0,0.0,0.0,0.0,0.0,0.0,0.0,0.0,0.0,0.0,0.0,0.0,0.0,0.0,0.0,0.0,0.0,0.0,0.0,0.0,-2.9548,-2.7628,-2.6687,-2.6059,-2.5824,-2.4831,-2.423,-2.4125,-2.4125,-2.4125,-2.4125,-2.516,-2.5632,-2.5687,-2.6864,-2.7408,-2.7408,-2.756,-2.761,-2.767,-2.8308,-2.8966,-2.9624,-3.0253,-3.0911,-3.1482,-3.1482,-3.1482,-3.1392,-3.0911,-3.1061,-3.1332,-3.0313,-3.0138,-3.0089,-2.8272,-2.742,-2.672,-2.5268,-2.4505,-2.4125,-2.4125,-2.4125,-2.4256,-2.4805,-2.5301,-2.5824,-2.6504,-2.7027,-2.7392,-2.743,-2.7456,-2.7572,-2.7937,-2.7901,-2.7717,-2.7728,-2.7303,-2.6342,-2.456,-2.4631,-2.4399,-2.2736,-2.2894,-2.3018,-2.2542,-2.2832,-2.2873,-2.2397,-2.2708,-2.2956,-2.3039,-2.3143,-2.3391,-2.3867,-2.3971,-2.3649,-2.2824,-2.205,-2.1159,-1.9985,-1.918,-1.8827,-1.8827,-1.8827,-1.8827,0.0,0.0,0.0,0.0,-3.5519,0.0,0.0,0.0,0.0,0.0,0.0,0.0,0.0,0.0,0.0,0.0,0.0,0.0,0.0,0.0,0.0,0.0,0.0,0.0,0.0,0.0,0.0,-2.7654,-2.7419,-2.6896,-2.5876,-2.5223,-2.4648,-2.4125,-2.4125,-2.4125,-2.4125,-2.4791,-2.5104,-2.5104,-2.6229,-2.6788,-2.6841,-2.7357,-2.761,-2.767,-2.8308,-2.8966,-2.9624,-3.0253,-3.0911,-3.1482,-3.1482,-3.1482,-3.1452,-3.1392,-3.1392,-3.1452,-3.1302,-3.0598,-2.958,-2.8197,-2.629,-2.4469,-2.4242,-2.4184,-2.4125,-2.4125,-2.4125,-2.4256,-2.4805,-2.5014,-2.5328,-2.6425,-2.6713,-2.6922,-2.7219,-2.7348,-2.7369,-2.7615,-2.7672,-2.7754,-2.8236,-2.8116,-2.7212,-2.5164,-2.5233,-2.478,-2.2778,-2.2894,-2.3018,-2.2542,-2.2542,-2.2397,-2.1921,-2.1942,-2.2149,-2.2542,-2.2956,-2.3391,-2.3867,-2.426,-2.3607,-2.1872,-2.1784,-2.0799,-1.9012,-1.8827,-1.8827,-1.8827,-1.8827,-1.8827,0.0,0.0,0.0,0.0,0.0,0.0,-3.5519,0.0,-3.5519,0.0,0.0,0.0,0.0,0.0,0.0,0.0,0.0,0.0,0.0,0.0,0.0,0.0,0.0,0.0,0.0,0.0,0.0,0.0,0.0,-2.7027,-2.5876,-2.5589,-2.5066,-2.4151,-2.4439,-2.4439,-2.4125,-2.4677,-2.516,-2.5467,-2.6283,-2.6893,-2.7255,-2.7458,-2.761,-2.767,-2.8697,-2.9325,-2.9654,-3.0672,-3.127,-3.1482,-3.1482,-3.1482,-3.1482,-3.1482,-3.1482,-3.1482,-3.1482,-3.048,-2.8798,-2.6833,-2.5226,-2.4125,-2.4125,-2.4125,-2.4125,-2.4125,-2.4125,-2.4256,-2.4805,-2.5223,-2.5667,-2.6375,-2.6791,-2.7037,-2.7095,-2.7146,-2.7259,-2.7545,-2.7855,-2.8062,-2.8217,-2.753,-2.6384,-2.4742,-2.4664,-2.4303,-2.2699,-2.3143,-2.3308,-2.2563,-2.2501,-2.2315,-2.1838,-2.1797,-2.188,-2.2087,-2.2791,-2.3267,-2.3474,-2.4157,-2.3647,-2.1695,-2.1695,-2.0709,-1.8827,-1.8827,-1.8827,-1.8827,-1.8827,-1.8827,-3.5519,0.0,0.0,0.0,0.0,0.0,0.0,0.0,0.0,0.0,0.0,0.0,0.0,0.0,-3.2652,-3.1299,0.0,0.0,0.0,0.0,0.0,0.0,0.0,0.0,0.0,0.0,0.0,0.0,-2.7445,0.0,-2.5667,-2.5589,-2.5145,-2.4151,-2.4517,-2.4543,-2.4125,-2.4505,-2.4935,-2.5356,-2.6068,-2.6654,-2.7152,-2.7667,-2.7859,-2.7919,-2.9265,-2.9834,-2.9924,-3.1061,-3.1482,-3.1482,-3.1482,-3.1482,-3.1482,-3.1482,-3.1394,-3.119,-3.107,-2.9666,-2.7627,-2.5431,-2.4447,-2.4125,-2.4125,-2.4125,-2.4125,-2.4125,-2.423,-2.4439,-2.4857,-2.5406,-2.5892,-2.6298,-2.6738,-2.7007,-2.6918,-2.6943,-2.7003,-2.7272,-2.786,-2.8217,-2.7896,-2.7238,-2.6232,-2.4599,-2.4537,-2.4255,-2.2829,-2.3494,-2.3764,-2.2956,-2.277,-2.2501,-2.2025,-2.188,-2.1921,-2.217,-2.2811,-2.3308,-2.3557,-2.4198,-2.3647,-2.1695,-2.1695,-2.0709,-1.8827,-1.8827,-1.8827,-1.8827,-1.8732,-1.8732,0.0,0.0,0.0,-3.5519,0.0,0.0,0.0,0.0,-3.5519,0.0,0.0,0.0,0.0,-3.3087,-3.1738,-3.0637,-3.029,0.0,0.0,0.0,0.0,0.0,0.0,0.0,0.0,0.0,0.0,0.0,-2.721,0.0,-2.5092,-2.5048,-2.4726,-2.4125,-2.4125,-2.4125,-2.4125,-2.4125,-2.4125,-2.4184,-2.53,-2.5851,-2.5906,-2.7777,-2.8577,-2.8637,-2.9924,-3.0462,-3.0522,-3.124,-3.1482,-3.1482,-3.1482,-3.1482,-3.1482,-3.1482,-3.1102,-3.0422,-2.993,-2.8138,-2.5864,-2.4543,-2.4125,-2.4125,-2.4125,-2.4125,-2.4125,-2.4125,-2.4517,-2.4996,-2.5022,-2.5406,-2.5892,-2.6298,-2.6427,-2.6477,-2.668,-2.6714,-2.6671,-2.6559,-2.7369,-2.7946,-2.7394,-2.7924,-2.7615,-2.5321,-2.5418,-2.5117,-2.3429,-2.395,-2.4343,-2.3888,-2.3432,-2.2977,-2.2522,-2.2066,-2.219,-2.308,-2.3163,-2.3577,-2.4467,-2.4529,-2.3647,-2.1695,-2.1695,-2.0709,-1.8827,-1.8827,-1.8827,-1.8812,-1.8478,-1.8494,0.0,0.0,-3.5519,-3.5519,0.0,0.0,0.0,0.0,0.0,0.0,0.0,0.0,0.0,-3.2434,-3.1685,-3.0432,-3.0125,-2.9666,0.0,0.0,0.0,0.0,0.0,0.0,0.0,0.0,0.0,-2.6765,-2.6844,-2.6373,0.0,-2.5756,-2.5667,-2.47,-2.504,-2.5066,-2.4674,-2.4308,-2.4274,-2.4734,-2.5882,-2.6465,-2.6447,-2.8409,-2.9026,-2.8667,-2.9953,-3.0492,-3.0552,-3.124,-3.1482,-3.1482,-3.1482,-3.1482,-3.1482,-3.1482,-3.0865,-2.9696,-2.7879,-2.6682,-2.5778,-2.4516,-2.4125,-2.4125,-2.4125,-2.4125,-2.4125,-2.4125,-2.4517,-2.504,-2.5432,-2.5955,-2.6466,-2.6734,-2.6796,-2.678,-2.662,-2.6602,-2.6634,-2.7012,-2.7595,-2.7875,-2.714,-2.7299,-2.7069,-2.5631,-2.4938,-2.4199,-2.3348,-2.3722,-2.3805,-2.3039,-2.3101,-2.2998,-2.2542,-2.2625,-2.2729,-2.2729,-2.3018,-2.3453,-2.4074,-2.4095,-2.3368,-2.1695,-2.1695,-2.0709,-1.8827,-1.8827,-1.8716,-1.8478,-1.8351,-1.8494,-3.5519,-3.5519,0.0,0.0,-3.5067,0.0,-3.4706,0.0,0.0,0.0,0.0,0.0,0.0,0.0,-3.1276,-3.0026,-2.9823,-2.9431,0.0,-2.8124,0.0,0.0,0.0,0.0,0.0,0.0,-2.768,-2.6739,-2.6661,-2.6164,0.0,0.0,-2.5929,-2.5048,-2.5511,-2.5641,-2.5275,-2.47,-2.4648,-2.4972,-2.6244,-2.6776,-2.6816,-2.8971,-2.9684,-2.9325,-3.0402,-3.0881,-3.0881,-3.1091,-3.115,-3.1123,-3.0863,-3.0658,-3.0567,-3.0774,-2.9842,-2.8138,-2.6249,-2.5517,-2.5159,-2.4347,-2.4125,-2.4125,-2.4125,-2.4125,-2.4151,-2.436,-2.4831,-2.5406,-2.5981,-2.6492,-2.6947,-2.7002,-2.6943,-2.6807,-2.6533,-2.6615,-2.6791,-2.6967,-2.7528,-2.7631,-2.6795,-2.6674,-2.631,-2.5318,-2.4583,-2.395,-2.3494,-2.3826,-2.3888,-2.3287,-2.335,-2.3246,-2.277,-2.2873,-2.2956,-2.2998,-2.3122,-2.3474,-2.4095,-2.4115,-2.3368,-2.1695,-2.1695,-2.0709,-1.8827,-1.8827,-1.8653,-1.8303,-1.843,-1.8478]},{"header":{"parameterUnit":"m.s-1","parameterCategory":1,"la1":30.6,"la2":29.2853,"lo1":-89.7004,"lo2":-87.6739,"dy":0.0162,"dx":0.0183,"nx":112,"ny":82,"refTime":"2023-08-09T12:00:00:Z","depth":0,"parameterNumber":3,"parameterNumberName":"V-component_of_WINDS"},"data":[0.0,0.0,0.0,0.0,0.0,0.0,0.0,0.0,0.0,0.0,0.0,0.0,0.0,0.0,0.0,0.0,0.0,0.0,0.0,0.0,0.0,0.0,0.0,0.0,0.0,0.0,0.0,0.0,0.0,0.0,0.0,0.0,0.0,0.0,0.0,0.0,0.0,0.0,0.0,0.0,0.0,0.0,0.0,0.0,0.0,0.0,0.0,0.0,0.0,0.0,0.0,0.0,0.0,0.0,0.0,0.0,0.0,0.0,0.0,0.0,0.0,0.0,0.0,0.0,0.0,0.0,0.0,0.0,0.0,0.0,0.0,0.0,0.0,0.0,0.0,0.0,0.0,0.0,0.0,0.0,0.0,0.0,0.0,0.0,0.0,0.0,0.0,0.0,0.0,0.0,-2.602,-2.729,-3.0586,-3.3172,-3.4142,-3.4922,-3.3857,-3.0431,0.0,0.0,0.0,0.0,0.0,0.0,0.0,0.0,0.0,0.0,0.0,0.0,0.0,0.0,0.0,0.0,0.0,0.0,0.0,0.0,0.0,0.0,0.0,0.0,0.0,0.0,0.0,0.0,0.0,0.0,0.0,0.0,0.0,0.0,0.0,0.0,0.0,0.0,0.0,0.0,0.0,0.0,0.0,0.0,0.0,0.0,0.0,0.0,0.0,0.0,0.0,0.0,0.0,0.0,0.0,0.0,0.0,0.0,0.0,0.0,0.0,0.0,0.0,0.0,0.0,0.0,0.0,0.0,0.0,0.0,0.0,0.0,0.0,0.0,0.0,0.0,0.0,0.0,0.0,0.0,0.0,0.0,0.0,0.0,0.0,0.0,0.0,0.0,0.0,0.0,0.0,0.0,0.0,0.0,0.0,0.0,0.0,0.0,0.0,0.0,0.0,0.0,0.0,0.0,-2.5425,-2.8809,-3.1035,-3.3089,-3.5046,-3.4758,-3.4159,-3.3308,0.0,0.0,0.0,0.0,0.0,0.0,0.0,0.0,0.0,0.0,0.0,0.0,0.0,0.0,0.0,0.0,0.0,0.0,0.0,0.0,0.0,0.0,0.0,0.0,0.0,0.0,0.0,0.0,0.0,0.0,0.0,0.0,0.0,0.0,0.0,0.0,0.0,0.0,0.0,0.0,0.0,0.0,0.0,0.0,0.0,0.0,0.0,0.0,0.0,0.0,0.0,0.0,0.0,0.0,0.0,0.0,0.0,0.0,0.0,0.0,0.0,0.0,0.0,0.0,0.0,0.0,0.0,0.0,0.0,0.0,0.0,0.0,0.0,0.0,0.0,0.0,0.0,0.0,0.0,0.0,0.0,0.0,0.0,0.0,0.0,0.0,0.0,0.0,0.0,0.0,0.0,0.0,0.0,0.0,0.0,0.0,0.0,0.0,0.0,0.0,0.0,0.0,0.0,-2.6898,-2.7061,-3.0822,-3.2448,-3.3717,-3.4831,-3.5755,-3.5373,-3.3438,-3.3366,0.0,0.0,0.0,0.0,0.0,0.0,0.0,0.0,0.0,0.0,0.0,0.0,0.0,0.0,0.0,0.0,0.0,0.0,0.0,0.0,0.0,0.0,0.0,0.0,0.0,0.0,0.0,0.0,0.0,0.0,0.0,0.0,0.0,0.0,0.0,0.0,0.0,0.0,0.0,0.0,0.0,0.0,0.0,0.0,0.0,0.0,0.0,0.0,0.0,0.0,0.0,0.0,0.0,0.0,0.0,0.0,0.0,0.0,0.0,0.0,0.0,0.0,0.0,0.0,0.0,0.0,0.0,0.0,0.0,0.0,0.0,0.0,0.0,0.0,0.0,0.0,0.0,0.0,0.0,0.0,0.0,0.0,0.0,0.0,0.0,0.0,0.0,0.0,0.0,0.0,0.0,0.0,0.0,0.0,0.0,0.0,0.0,0.0,0.0,0.0,0.0,0.0,-2.9244,-2.9436,-3.2622,-3.3938,-3.4763,-3.5207,-3.6484,-3.6132,-3.3526,-3.3482,0.0,0.0,0.0,0.0,0.0,0.0,0.0,0.0,0.0,0.0,0.0,0.0,0.0,0.0,0.0,0.0,0.0,0.0,0.0,0.0,0.0,0.0,0.0,0.0,0.0,0.0,0.0,0.0,0.0,0.0,0.0,0.0,0.0,0.0,0.0,0.0,0.0,0.0,0.0,0.0,0.0,0.0,0.0,0.0,0.0,0.0,0.0,0.0,0.0,0.0,0.0,0.0,0.0,0.0,0.0,0.0,0.0,0.0,0.0,0.0,0.0,0.0,0.0,0.0,0.0,0.0,0.0,0.0,0.0,0.0,0.0,0.0,0.0,0.0,0.0,0.0,0.0,0.0,0.0,0.0,0.0,0.0,0.0,0.0,0.0,0.0,0.0,0.0,0.0,0.0,0.0,0.0,0.0,0.0,0.0,0.0,0.0,0.0,0.0,0.0,0.0,0.0,-3.0303,-3.215,-3.3592,-3.4979,-3.6297,-3.7566,-3.6496,-3.5479,-3.4977,-3.327,0.0,0.0,0.0,0.0,0.0,0.0,0.0,0.0,0.0,0.0,0.0,0.0,0.0,0.0,0.0,0.0,0.0,0.0,0.0,0.0,0.0,0.0,0.0,0.0,0.0,0.0,0.0,0.0,0.0,0.0,0.0,0.0,0.0,0.0,0.0,0.0,0.0,0.0,0.0,0.0,0.0,0.0,0.0,0.0,0.0,0.0,0.0,0.0,0.0,0.0,0.0,0.0,0.0,0.0,0.0,0.0,0.0,0.0,0.0,0.0,0.0,0.0,0.0,0.0,0.0,0.0,0.0,0.0,0.0,0.0,0.0,0.0,0.0,0.0,0.0,0.0,0.0,0.0,0.0,0.0,0.0,0.0,0.0,0.0,0.0,0.0,0.0,0.0,0.0,0.0,0.0,0.0,0.0,0.0,0.0,0.0,0.0,0.0,0.0,0.0,0.0,0.0,-3.109,-3.2127,0.0,-3.6133,-3.7246,-3.7594,-3.808,-3.744,-3.5044,0.0,0.0,0.0,0.0,0.0,0.0,0.0,0.0,0.0,0.0,0.0,0.0,0.0,0.0,0.0,0.0,0.0,0.0,0.0,0.0,0.0,0.0,0.0,0.0,0.0,0.0,0.0,0.0,0.0,0.0,0.0,0.0,0.0,0.0,0.0,0.0,0.0,0.0,0.0,0.0,0.0,0.0,0.0,0.0,0.0,0.0,0.0,0.0,0.0,0.0,0.0,0.0,0.0,0.0,0.0,0.0,0.0,0.0,0.0,0.0,0.0,0.0,0.0,0.0,0.0,0.0,0.0,0.0,0.0,0.0,0.0,0.0,0.0,0.0,0.0,0.0,0.0,0.0,0.0,0.0,0.0,0.0,0.0,0.0,0.0,0.0,0.0,0.0,0.0,0.0,0.0,0.0,0.0,0.0,0.0,0.0,0.0,0.0,0.0,0.0,0.0,0.0,-3.1786,-3.1912,-3.2863,0.0,-3.7268,-3.8142,-3.8161,-3.8625,-3.7717,-3.4901,0.0,0.0,0.0,0.0,0.0,0.0,0.0,0.0,0.0,0.0,0.0,0.0,0.0,0.0,0.0,0.0,0.0,0.0,0.0,0.0,0.0,0.0,0.0,0.0,0.0,0.0,0.0,0.0,0.0,0.0,0.0,0.0,0.0,0.0,0.0,0.0,0.0,0.0,0.0,0.0,0.0,0.0,0.0,0.0,0.0,0.0,0.0,0.0,0.0,0.0,0.0,0.0,0.0,0.0,0.0,0.0,0.0,0.0,0.0,0.0,0.0,0.0,0.0,0.0,0.0,0.0,0.0,0.0,0.0,0.0,0.0,0.0,0.0,0.0,0.0,0.0,0.0,0.0,0.0,0.0,0.0,0.0,0.0,0.0,0.0,0.0,0.0,0.0,0.0,0.0,0.0,0.0,0.0,0.0,0.0,0.0,0.0,0.0,0.0,0.0,0.0,0.0,-3.168,-3.2934,-3.4545,-3.6935,-3.8191,-3.9094,-3.9647,-3.7638,-3.5906,0.0,0.0,0.0,0.0,0.0,0.0,0.0,0.0,0.0,0.0,0.0,0.0,0.0,0.0,0.0,0.0,0.0,0.0,0.0,0.0,0.0,0.0,0.0,0.0,0.0,0.0,0.0,0.0,0.0,0.0,0.0,0.0,0.0,0.0,0.0,0.0,0.0,0.0,0.0,0.0,0.0,0.0,0.0,0.0,0.0,0.0,0.0,0.0,0.0,0.0,0.0,0.0,0.0,0.0,0.0,0.0,0.0,0.0,0.0,0.0,0.0,0.0,0.0,0.0,0.0,0.0,0.0,0.0,0.0,0.0,0.0,0.0,0.0,0.0,0.0,0.0,0.0,0.0,0.0,0.0,0.0,0.0,0.0,0.0,0.0,0.0,0.0,0.0,0.0,0.0,0.0,0.0,0.0,0.0,0.0,0.0,0.0,0.0,0.0,0.0,0.0,0.0,0.0,-3.0773,-3.2657,-3.451,-3.6408,-3.7965,-3.8944,-3.9094,-3.7764,-3.6132,-3.4274,0.0,0.0,0.0,0.0,0.0,0.0,0.0,0.0,0.0,0.0,0.0,0.0,0.0,0.0,0.0,0.0,0.0,0.0,0.0,0.0,0.0,0.0,0.0,0.0,0.0,0.0,0.0,0.0,0.0,0.0,0.0,0.0,0.0,0.0,0.0,0.0,0.0,0.0,0.0,0.0,0.0,0.0,0.0,0.0,0.0,0.0,0.0,0.0,0.0,0.0,0.0,0.0,0.0,0.0,0.0,0.0,0.0,0.0,0.0,0.0,0.0,0.0,0.0,0.0,0.0,0.0,0.0,0.0,0.0,0.0,0.0,0.0,0.0,0.0,0.0,0.0,0.0,0.0,0.0,0.0,0.0,0.0,0.0,0.0,0.0,0.0,0.0,0.0,0.0,0.0,0.0,0.0,0.0,0.0,0.0,0.0,0.0,0.0,0.0,0.0,0.0,0.0,-3.0482,-3.234,-3.4198,-3.5855,-3.7538,-3.8517,-3.8517,-3.7889,-3.6483,-3.4048,0.0,0.0,0.0,0.0,0.0,0.0,0.0,0.0,0.0,0.0,0.0,0.0,0.0,0.0,0.0,0.0,0.0,0.0,0.0,0.0,0.0,0.0,0.0,0.0,0.0,0.0,0.0,0.0,0.0,0.0,0.0,0.0,0.0,0.0,0.0,0.0,0.0,0.0,0.0,0.0,0.0,0.0,0.0,0.0,0.0,0.0,0.0,0.0,0.0,0.0,0.0,0.0,0.0,0.0,0.0,0.0,0.0,0.0,0.0,0.0,0.0,0.0,0.0,0.0,0.0,0.0,0.0,0.0,0.0,0.0,0.0,0.0,0.0,0.0,0.0,0.0,0.0,0.0,0.0,0.0,0.0,0.0,0.0,0.0,0.0,0.0,0.0,0.0,0.0,0.0,0.0,0.0,0.0,0.0,0.0,0.0,0.0,0.0,0.0,0.0,0.0,0.0,-3.0457,-3.2064,-3.3721,-3.5429,-3.701,-3.7939,-3.7939,-3.7889,-3.6709,-3.3997,0.0,0.0,0.0,0.0,0.0,0.0,0.0,0.0,0.0,0.0,0.0,0.0,0.0,0.0,0.0,0.0,0.0,0.0,0.0,0.0,0.0,0.0,0.0,0.0,0.0,0.0,0.0,0.0,0.0,0.0,0.0,0.0,0.0,0.0,0.0,0.0,0.0,0.0,0.0,0.0,0.0,0.0,0.0,0.0,0.0,0.0,0.0,0.0,0.0,0.0,0.0,0.0,0.0,0.0,0.0,0.0,0.0,0.0,0.0,0.0,-2.4069,0.0,0.0,0.0,0.0,0.0,0.0,0.0,0.0,0.0,0.0,0.0,0.0,0.0,0.0,0.0,0.0,0.0,0.0,0.0,0.0,0.0,0.0,0.0,0.0,0.0,0.0,0.0,0.0,0.0,0.0,0.0,0.0,0.0,0.0,0.0,0.0,0.0,0.0,0.0,0.0,0.0,-3.0407,-3.2064,-3.3872,-3.5956,-3.6885,-3.7362,-3.7362,-3.696,-3.573,-3.3395,-3.3283,0.0,0.0,0.0,0.0,0.0,0.0,0.0,0.0,0.0,0.0,0.0,0.0,0.0,0.0,0.0,0.0,0.0,0.0,0.0,0.0,0.0,0.0,0.0,0.0,0.0,0.0,0.0,0.0,0.0,0.0,0.0,0.0,0.0,0.0,0.0,0.0,0.0,0.0,0.0,0.0,0.0,0.0,0.0,0.0,0.0,0.0,0.0,0.0,0.0,0.0,0.0,0.0,0.0,0.0,0.0,0.0,0.0,0.0,0.0,0.0,-2.5559,0.0,0.0,0.0,0.0,0.0,0.0,0.0,0.0,0.0,0.0,0.0,0.0,0.0,0.0,0.0,0.0,0.0,0.0,0.0,0.0,0.0,0.0,0.0,0.0,0.0,0.0,0.0,0.0,0.0,0.0,0.0,0.0,0.0,0.0,0.0,0.0,0.0,0.0,0.0,0.0,-3.0733,-3.2215,-3.3822,-3.5755,-3.6709,-3.7086,-3.681,-3.6784,-3.5991,-3.4264,-3.3907,0.0,0.0,0.0,0.0,0.0,0.0,0.0,0.0,0.0,0.0,0.0,0.0,0.0,0.0,0.0,0.0,0.0,0.0,0.0,0.0,0.0,0.0,0.0,0.0,0.0,0.0,0.0,0.0,0.0,0.0,0.0,0.0,0.0,0.0,0.0,0.0,0.0,0.0,0.0,0.0,0.0,0.0,0.0,0.0,0.0,0.0,0.0,0.0,0.0,0.0,0.0,0.0,0.0,0.0,-2.3843,-2.4975,-2.6012,-2.7439,-2.9309,-2.8541,-2.7985,-2.7508,0.0,0.0,0.0,0.0,0.0,0.0,0.0,0.0,0.0,0.0,0.0,0.0,0.0,0.0,0.0,0.0,0.0,0.0,0.0,0.0,0.0,0.0,0.0,0.0,0.0,-3.201,-3.1697,0.0,0.0,0.0,0.0,0.0,0.0,0.0,0.0,0.0,0.0,0.0,0.0,-3.1135,-3.2466,-3.3822,-3.5378,-3.6458,-3.6956,-3.6666,-3.7045,-3.6811,-3.5667,-3.5152,-3.4471,0.0,0.0,0.0,0.0,0.0,0.0,0.0,0.0,0.0,0.0,0.0,0.0,0.0,0.0,0.0,0.0,0.0,0.0,0.0,0.0,0.0,0.0,0.0,0.0,0.0,0.0,0.0,0.0,0.0,0.0,0.0,0.0,-2.1276,-2.0458,0.0,0.0,0.0,0.0,0.0,0.0,0.0,0.0,0.0,0.0,0.0,0.0,0.0,0.0,-2.1189,-2.2281,-2.314,-2.3487,-2.5594,-2.6157,-2.5541,-2.9231,-3.0524,-2.9695,-3.1608,0.0,-2.925,-2.9085,0.0,0.0,0.0,0.0,0.0,0.0,0.0,0.0,0.0,0.0,0.0,0.0,0.0,0.0,0.0,0.0,0.0,0.0,0.0,0.0,0.0,0.0,-3.3452,-3.314,-3.3404,-3.3549,0.0,-3.1821,-3.04,-2.9489,0.0,0.0,0.0,0.0,0.0,0.0,0.0,0.0,-3.1235,-3.2792,-3.4248,-3.5429,-3.6107,-3.681,-3.7546,-3.769,-3.7622,-3.7308,-3.7263,-3.6582,-3.5001,-3.4409,0.0,0.0,0.0,0.0,0.0,0.0,0.0,0.0,0.0,0.0,0.0,0.0,0.0,0.0,0.0,0.0,0.0,0.0,0.0,0.0,0.0,0.0,0.0,0.0,0.0,0.0,0.0,0.0,0.0,-1.8707,-1.9139,-1.8513,-1.8597,-1.782,0.0,0.0,0.0,0.0,0.0,0.0,0.0,0.0,0.0,-2.051,-2.1732,-2.2671,-2.3585,-2.4449,-2.5037,-2.5491,-2.6649,-2.8004,-2.971,-3.1586,-3.2826,-3.3769,-3.4559,-3.3908,-3.2166,-3.0571,-2.9159,-2.7875,0.0,0.0,0.0,0.0,0.0,-2.7389,-2.798,0.0,0.0,0.0,0.0,0.0,0.0,0.0,0.0,0.0,0.0,0.0,0.0,0.0,0.0,-3.4078,-3.4318,-3.451,-3.4673,-3.3588,-3.2241,0.0,-3.053,-3.0089,-2.9176,0.0,0.0,0.0,0.0,0.0,-3.1662,-3.2792,-3.4022,-3.5647,-3.6071,-3.6689,-3.7989,-3.7723,-3.7731,-3.8228,-3.7637,-3.6824,-3.584,-3.4889,-3.3935,0.0,0.0,0.0,0.0,0.0,0.0,0.0,0.0,0.0,0.0,0.0,0.0,0.0,0.0,0.0,0.0,0.0,0.0,0.0,0.0,0.0,0.0,0.0,0.0,0.0,0.0,0.0,0.0,-1.8025,-1.809,-1.7432,-1.7725,-1.7328,0.0,0.0,0.0,0.0,0.0,0.0,-1.869,-2.0061,-2.1442,-2.2782,-2.364,-2.4741,-2.5638,-2.6079,-2.6547,-2.7054,-2.7268,-2.8781,-3.1594,-3.2404,-3.3727,-3.5415,-3.5772,-3.543,-3.422,-3.1928,-3.0552,-2.9745,-2.8793,-2.8295,0.0,-2.8339,-2.8636,-2.9114,-2.9867,-3.089,-3.1823,-3.1605,0.0,-3.3435,-3.146,0.0,0.0,0.0,0.0,-3.2034,-3.2707,0.0,-3.3909,-3.4823,-3.504,-3.5089,-3.5549,-3.4666,-3.3555,0.0,-3.1893,-3.1373,-3.0353,0.0,0.0,0.0,0.0,-3.0683,-3.2039,-3.3073,-3.4178,-3.567,-3.614,-3.6924,-3.83,-3.7945,-3.809,-3.9021,-3.8003,-3.732,-3.7099,-3.5357,-3.3964,-3.3006,0.0,0.0,0.0,0.0,0.0,0.0,0.0,0.0,0.0,0.0,0.0,0.0,0.0,0.0,0.0,0.0,0.0,0.0,0.0,0.0,0.0,0.0,0.0,0.0,0.0,0.0,0.0,0.0,0.0,-1.8991,-2.0548,0.0,0.0,0.0,0.0,-1.8131,-1.9296,-2.0372,-2.1034,-2.2962,-2.4416,-2.5153,-2.6201,-2.6827,-2.7148,-2.7188,-2.7348,-2.7655,-2.7669,-2.7848,-2.8027,-3.1269,-3.2316,-3.1622,-3.4451,-3.5174,-3.433,-3.3431,-3.2148,-3.0681,-3.0594,-3.0062,-2.924,-2.9565,-2.9909,-3.0137,-3.0176,-3.069,-3.1793,-3.3612,-3.4789,-3.5349,-3.4726,-3.3503,0.0,0.0,-3.2442,-3.2683,-3.3693,-3.4366,-3.4895,-3.5449,-3.5569,-3.5547,-3.5622,-3.4572,-3.3497,0.0,-3.2591,-3.2014,-3.1411,0.0,-3.0708,-3.1185,-3.1286,-3.1537,-3.2139,-3.3887,-3.5096,-3.5234,-3.6418,-3.7615,-3.8559,-3.8613,-3.9021,-3.9931,-3.9431,-3.9054,-3.9044,-3.6083,-3.437,-3.4312,-3.2483,0.0,0.0,0.0,0.0,0.0,0.0,0.0,0.0,0.0,0.0,0.0,0.0,0.0,0.0,0.0,0.0,0.0,0.0,0.0,0.0,0.0,0.0,0.0,0.0,0.0,0.0,0.0,0.0,-1.9173,-2.0806,0.0,0.0,-1.947,-1.9893,-1.982,-2.1451,-2.2705,-2.3029,-2.4675,-2.5727,-2.6418,-2.7118,-2.7522,-2.7829,-2.7642,-2.7602,-2.7696,-2.7509,-2.8548,-3.0791,-3.1915,-3.3191,-3.4504,-3.519,-3.5155,-3.4348,-3.3541,-3.2716,-3.2022,-3.187,-3.1426,-3.085,-3.0914,-3.1112,-3.1426,-3.1133,-3.2174,-3.4026,-3.571,-3.5883,-3.5593,-3.54,-3.4703,-3.4078,-3.4414,-3.4511,-3.4583,-3.4968,-3.5184,-3.5304,-3.5136,-3.4945,-3.4847,-3.5059,-3.4514,-3.3958,-3.3658,-3.3057,-3.2397,-3.2014,-3.1763,-3.1587,-3.1411,-3.2179,-3.2787,-3.2993,-3.4492,-3.5709,-3.6197,-3.6711,-3.7606,-3.8903,-3.8638,-3.8563,-3.887,-3.8318,-3.7622,-3.678,-3.5241,-3.4022,-3.3209,-3.2077,-3.1526,0.0,0.0,0.0,0.0,0.0,0.0,0.0,0.0,0.0,0.0,0.0,0.0,0.0,0.0,0.0,0.0,0.0,0.0,0.0,0.0,0.0,0.0,0.0,0.0,0.0,0.0,-2.0086,-1.9543,-2.1293,-2.1945,-2.0424,-2.1245,-2.1983,-2.2044,-2.35,-2.4648,-2.5084,-2.619,-2.7126,-2.7522,-2.7689,-2.7896,-2.7989,-2.7802,-2.7642,-2.7549,-2.7362,-2.8649,-3.1399,-3.1874,-3.3292,-3.5043,-3.523,-3.488,-3.3963,-3.3431,-3.29,-3.2596,-3.245,-3.2256,-3.1929,-3.1841,-3.193,-3.2211,-3.2411,-3.356,-3.5133,-3.6708,-3.6843,-3.6338,-3.5978,-3.5761,-3.5665,-3.5833,-3.5881,-3.5833,-3.5665,-3.5617,-3.5449,-3.4727,-3.4485,-3.4335,-3.425,-3.4156,-3.3916,-3.3633,-3.3383,-3.2996,-3.2591,-3.234,-3.2164,-3.1989,-3.2834,-3.3561,-3.377,-3.5063,-3.6267,-3.6844,-3.7183,-3.7739,-3.8735,-3.8463,-3.8115,-3.7912,-3.7535,-3.6722,-3.5415,-3.4545,-3.3587,-3.2542,-3.1874,-3.1409,-3.1206,0.0,0.0,0.0,0.0,0.0,0.0,0.0,0.0,0.0,0.0,0.0,0.0,0.0,0.0,0.0,0.0,0.0,0.0,0.0,0.0,0.0,0.0,0.0,-1.7889,-1.976,-2.0919,-2.0436,-2.244,-2.3357,-2.2078,-2.2887,-2.3757,-2.4504,-2.5514,-2.6274,-2.7057,-2.7822,-2.8136,-2.8123,-2.8123,-2.7989,-2.7682,-2.7682,-2.7522,-2.7255,-2.7228,-2.8025,-2.9453,-3.1011,-3.2152,-3.2801,-3.427,-3.4348,-3.3248,-3.323,-3.2887,-3.2544,-3.2525,-3.2523,-3.2346,-3.2306,-3.2254,-3.2354,-3.387,-3.4425,-3.467,-3.659,-3.7541,-3.7733,-3.6723,-3.6747,-3.7036,-3.6555,-3.6386,-3.6266,-3.5737,-3.5617,-3.5352,-3.4294,-3.4219,-3.4117,-3.3342,-3.3341,-3.3433,-3.3169,-3.3582,-3.3758,-3.3255,-3.2701,-3.25,-3.3079,-3.3405,0.0,-3.4402,-3.5896,-3.6922,-3.6922,-3.772,-3.8202,-3.8202,-3.8173,-3.7912,-3.7331,-3.7244,-3.6664,-3.5357,-3.4176,-3.3122,-3.2454,-3.1845,-3.1206,-3.0597,0.0,0.0,0.0,0.0,0.0,0.0,0.0,0.0,0.0,0.0,0.0,0.0,0.0,0.0,0.0,0.0,0.0,0.0,0.0,0.0,0.0,0.0,-1.8517,-1.8963,-2.0702,-2.209,-2.2524,-2.3502,-2.4057,-2.3888,-2.4466,-2.4911,-2.5347,-2.6363,-2.711,-2.7356,-2.7941,-2.8043,-2.7829,-2.7816,-2.7682,-2.7388,-2.7175,-2.7028,-2.6934,-2.652,-2.7806,-3.0298,-3.0521,-3.1893,-3.3982,-3.4427,-3.422,-3.3633,-3.334,-3.3035,-3.2916,-3.288,-3.2592,-3.2306,-3.2254,-3.1875,-3.1544,-3.3657,-3.4096,-3.4207,-3.6473,-3.7036,-3.6771,-3.6483,-3.6242,-3.6098,-3.6338,-3.6122,-3.5809,-3.5665,-3.5617,-3.5352,-3.4294,-3.3953,-3.3655,-3.3269,-3.3044,-3.3158,-3.392,-3.3772,-3.3669,-3.4011,-3.3933,-3.4022,-3.4788,0.0,0.0,-3.6188,-3.7183,-3.7796,-3.7796,-3.8052,-3.8202,-3.8202,-3.7796,-3.7273,0.0,-3.6141,-3.5328,-3.4051,-3.3209,-3.2251,-3.1119,-3.138,-3.1438,0.0,0.0,0.0,0.0,0.0,0.0,0.0,0.0,0.0,0.0,0.0,0.0,0.0,0.0,0.0,0.0,0.0,0.0,0.0,0.0,0.0,0.0,-1.8704,-1.9794,-2.0563,-2.1738,-2.2834,-2.3526,-2.4085,-2.4625,-2.4784,-2.5223,-2.569,-2.6019,-2.68,-2.742,-2.7456,-2.7848,-2.7949,-2.7535,-2.7522,-2.7321,-2.6907,-2.6613,-2.64,-2.6266,-2.5932,-2.7421,-3.0569,-3.0203,-3.1616,0.0,-3.4147,-3.3835,-3.3285,-3.3046,-3.2984,0.0,0.0,0.0,0.0,0.0,-3.1465,-3.1208,-3.3317,-3.3835,-3.3943,-3.5907,-3.6483,-3.6362,-3.6146,-3.6026,-3.6002,-3.6314,-3.6194,-3.5833,-3.54,-3.528,-3.4968,-3.3787,-3.3417,-3.3325,-3.3054,-3.2947,-3.3068,-3.3751,0.0,0.0,-3.4415,-3.4523,-3.4739,-3.5494,-3.6346,-3.6922,0.0,-3.7644,-3.8202,-3.8202,-3.8202,-3.8202,-3.8202,-3.7651,0.0,0.0,0.0,-3.4874,-3.3529,-3.2861,0.0,0.0,0.0,-3.2193,0.0,0.0,0.0,0.0,-3.2079,-3.2287,0.0,0.0,0.0,0.0,0.0,0.0,0.0,0.0,0.0,0.0,0.0,0.0,0.0,0.0,0.0,0.0,-1.9903,-2.0997,-2.2217,-2.2509,-2.3035,-2.3922,-2.4442,-2.4765,-2.4802,-2.5539,-2.6044,-2.6574,-2.6835,-2.7053,-2.7281,0.0,0.0,0.0,0.0,-2.6881,-2.6293,-2.6039,-2.5772,-2.5518,-2.5478,-2.7107,-3.0203,-2.9806,-3.1036,-3.3743,-3.3743,-3.334,-3.2661,-3.2661,-3.2803,-3.3009,-3.2617,-3.2346,-3.2189,-3.1618,-3.1211,0.0,0.0,0.0,0.0,-3.5199,-3.5881,-3.6146,-3.5665,-3.5857,-3.6218,-3.6218,-3.6218,-3.6002,-3.5064,-3.4775,-3.4366,-3.3174,-3.3057,-3.3039,-3.276,-3.2896,-3.3154,-3.3326,-3.3875,-3.4442,-3.4947,-3.4944,-3.5029,-3.5678,-3.642,0.0,-3.7,-3.772,-3.8202,-3.8202,0.0,0.0,-3.8115,-3.7535,-3.6896,-3.6257,-3.5619,-3.4719,-3.3594,-3.2919,-3.26,-3.2513,-3.3064,-3.3093,-3.2513,-3.3813,-3.4237,-3.3997,-3.3087,-3.3307,0.0,0.0,0.0,0.0,0.0,0.0,0.0,0.0,0.0,0.0,0.0,0.0,0.0,0.0,0.0,-1.9598,-2.0602,-2.1641,-2.2834,-2.2726,-2.2852,-2.3783,-2.4162,-2.4452,-2.4692,-2.5435,-2.6013,-2.6261,-2.6862,-2.7335,-2.7268,-2.7375,0.0,-2.6573,-2.656,-2.6279,-2.5692,-2.5625,-2.5571,-2.5504,0.0,0.0,-2.9822,-2.9186,-3.0433,-3.334,-3.334,-3.3248,-3.3101,-3.3373,-3.3444,-3.3321,-3.2556,-3.1983,-3.1579,-3.1191,-3.0957,-3.1149,-3.2997,-3.3334,-3.3369,-3.5082,-3.54,-3.5112,-3.5016,-3.504,0.0,-3.5136,-3.5136,-3.5088,-3.4871,-3.4511,-3.4006,-3.3562,-3.3144,-3.2861,-3.276,-3.2723,-3.3215,-3.4815,-3.4393,-3.4481,-3.6447,-3.6175,-3.6003,-3.6825,-3.7077,-3.7428,-3.7919,-3.8127,-3.8202,-3.8202,-3.8202,-3.7999,-3.7535,-3.6867,-3.6228,-3.559,-3.4951,-3.4254,-3.3499,-3.3354,-3.3035,-3.2542,-3.2629,-3.2629,-3.2513,-3.3064,-3.3515,-3.3991,-3.4451,-3.5112,0.0,0.0,0.0,0.0,0.0,0.0,0.0,0.0,0.0,0.0,0.0,-1.8295,0.0,0.0,-1.952,-2.0811,-2.1502,-2.2225,-2.2955,-2.3025,-2.3041,-2.3465,-2.3774,-2.407,-2.4201,-2.4944,-2.5542,-2.5845,-2.6294,-2.6547,-2.64,-2.6667,-2.656,-2.5972,-2.5945,-2.5745,-2.5304,-2.5144,-2.4997,-2.485,-2.5428,-2.6837,-2.8948,-2.9119,-3.0395,-3.2625,-3.2625,-3.274,-3.2873,-3.3387,-3.3291,-3.2835,-3.2377,-3.2031,-3.1758,-3.1133,-3.107,-3.1592,-3.2876,-3.3241,-3.351,-3.4781,-3.504,-3.4823,-3.4823,-3.4823,-3.4775,-3.4511,-3.4438,-3.4318,-3.3789,-3.3477,-3.314,-3.2859,-3.2723,-3.2631,-3.2686,-3.3129,-3.3869,-3.4841,-3.5167,-3.5614,-3.6504,-3.6396,-3.6314,-3.6736,-3.6809,-3.6925,-3.7215,-3.7244,-3.7244,-3.7244,-3.7244,-3.7128,-3.6838,-3.6199,-3.5561,-3.4922,-3.4603,-3.4254,-3.3964,-3.3935,-3.379,-3.347,-3.379,-3.379,-3.347,-3.4376,-3.5001,-3.5429,-3.6285,-3.655,0.0,0.0,0.0,0.0,0.0,0.0,0.0,0.0,-1.8707,-1.8599,-1.8408,-1.8591,-1.9529,-2.0094,-2.0842,-2.1897,-2.2311,-2.2592,-2.2832,-2.3073,-2.316,-2.3064,-2.3432,-2.3773,-2.3996,-2.4581,-2.5037,-2.5317,-2.5625,-2.5705,-2.5518,-2.5959,-2.5972,-2.5451,-2.5424,-2.5264,-2.4917,-2.4676,-2.4409,-2.4115,-2.5512,-2.6914,-2.817,-2.9177,-3.0495,-3.2001,-3.2001,-3.2263,-3.2767,-3.3287,-3.3046,-3.2382,-3.2202,-3.2109,-3.1953,-3.1172,-3.1162,-3.1676,-3.262,-3.3204,-3.364,-3.4477,-3.4823,-3.4823,-3.4823,-3.4751,-3.4583,-3.415,-3.3958,-3.3693,-3.2875,-3.2587,-3.2485,-3.2293,-3.2299,-3.2487,-3.2723,-3.3641,-3.4481,-3.462,-3.5734,-3.6585,-3.6335,-3.6286,-3.6344,-3.6489,-3.6286,-3.6199,-3.646,-3.6373,-3.6315,-3.6315,-3.6315,-3.6257,-3.6141,-3.5532,-3.4951,-3.4457,-3.4399,-3.4399,-3.4399,-3.4399,-3.4399,-3.4399,-3.4922,-3.4922,-3.4399,-3.579,-3.6544,-3.6732,-3.7827,-3.7963,-2.3024,-2.2043,-2.1404,-2.1233,-2.0794,-2.067,0.0,0.0,-2.1195,-2.0722,-2.0656,-2.0557,-2.0605,-2.1002,-2.1617,-2.2258,-2.2619,-2.2819,-2.2859,-2.2886,-2.2832,-2.2592,-2.3313,-2.3834,-2.3861,-2.4128,-2.4422,-2.4716,-2.501,-2.5277,-2.5504,-2.5571,-2.5464,-2.5144,-2.513,-2.4863,-2.4302,-2.4262,-2.4102,-2.3821,-2.5328,-2.6703,-2.817,-2.9177,-3.0495,-3.2001,-3.2263,-3.2767,-3.3417,-3.3417,-3.3174,-3.2754,-3.2324,-3.1934,-3.1523,-3.1055,-3.0701,-3.0571,-3.2317,-3.2678,-3.2613,-3.428,-3.4823,-3.4823,-3.4823,-3.4511,-3.4126,-3.4054,-3.3717,-3.3356,-3.3236,-3.2851,-3.2581,-3.2959,-3.2744,-3.2487,-3.2982,-3.3725,-3.462,-3.5305,-3.5852,-3.6335,-3.7008,-3.6678,-3.6519,-3.7099,-3.6228,-3.588,-3.7041,-3.6664,-3.6315,-3.6315,-3.6315,-3.6083,-3.5532,-3.4893,-3.4486,-3.4399,-3.4399,-3.4399,-3.4399,-3.4399,-3.4399,-3.4399,-3.4486,-3.4486,-3.4399,-3.5448,-3.5967,-3.6034,-3.8236,-3.95,-2.3119,-2.2005,-2.1314,0.0,-2.1315,-2.1123,-2.1015,-2.0848,-2.0688,-2.0387,-2.0289,-2.0516,-2.1115,-2.1523,-2.1937,0.0,-2.2672,-2.2806,-2.2632,-2.2605,-2.2498,-2.2205,-2.2645,-2.3046,-2.322,-2.3514,-2.3821,-2.4115,-2.4409,-2.4623,-2.4743,-2.4917,-2.4943,-2.4823,-2.4663,-2.4449,-2.4209,-2.4035,-2.3808,-2.3514,-2.5834,-2.709,-2.7685,-2.9688,-3.1096,-3.1912,-3.2558,-3.2925,-3.3162,-3.3165,-3.298,-3.2734,-3.2051,-3.1523,-3.1094,-3.0644,-3.1083,-3.1835,-3.2318,-3.2989,-3.3777,-3.4602,-3.4823,-3.4775,-3.4463,-3.4222,-3.3909,-3.3308,-3.2996,-3.2755,-3.2418,-3.2178,-3.2099,-3.2455,-3.246,-3.2487,-3.281,-3.4037,-3.5169,-3.5548,-3.6543,-3.7422,-3.775,-3.7302,-3.7099,-3.7738,-3.6722,-3.5967,-3.6141,-3.5938,-3.5619,-3.5241,-3.5212,-3.5096,-3.4835,-3.4574,-3.4399,-3.4399,-3.4399,-3.4399,-3.4399,-3.4399,-3.4399,-3.4399,-3.4399,-3.4601,-3.4971,-3.5593,-3.6259,-3.7055,-3.8226,-3.9153,-2.2484,0.0,0.0,-2.1453,-2.1516,-2.1217,-2.0568,-2.0132,-1.9897,-1.9707,-1.9613,-1.9893,-2.0989,-2.143,-2.1777,-2.2231,-2.2552,-2.2672,-2.2445,-2.2352,-2.2218,-2.2004,-2.2098,-2.2325,-2.2699,-2.302,-2.3327,-2.3621,-2.3915,-2.4115,-2.4195,-2.4476,-2.4596,-2.4516,-2.4315,-2.4128,-2.3968,-2.3754,-2.3628,-2.3748,-2.6315,-2.7643,-2.7916,-3.0437,-3.191,-3.2166,-3.2543,-3.2758,-3.2845,-3.2669,-3.2559,-3.2383,-3.1758,-3.1269,-3.082,-3.0234,-3.0953,-3.2233,-3.2184,-3.3209,-3.4433,-3.4726,-3.4727,-3.4535,-3.415,-3.3837,-3.3452,-3.2707,-3.2394,-3.2178,-3.1769,-3.1673,-3.1761,-3.2025,-3.2225,-3.2487,-3.2723,-3.4262,-3.5628,-3.5628,-3.7,-3.8202,-3.8202,-3.7854,-3.7709,-3.8144,-3.7418,-3.6606,-3.5967,-3.559,-3.5125,-3.4486,-3.4399,-3.4399,-3.4399,-3.4399,-3.4399,-3.4399,-3.4399,-3.4399,-3.4399,-3.4399,-3.4467,-3.4668,-3.4668,-3.5037,-3.5721,-3.6197,-3.6935,-3.7822,-3.8334,-3.8843,0.0,0.0,-2.0847,-2.1109,-2.0962,-2.0802,-2.1052,-2.0317,-1.965,-1.9415,-1.9158,-1.9225,-2.0107,-2.0521,-2.1002,-2.1857,-2.2245,-2.2432,-2.2418,-2.2178,-2.1991,-2.1991,-2.175,-2.1804,0.0,-2.2699,-2.3006,-2.3313,-2.3621,-2.3915,-2.4195,-2.4476,-2.4502,-2.4222,-2.4209,-2.3928,-2.3354,-2.334,-2.3859,-2.5022,-2.647,-2.8048,-2.977,-3.1616,-3.2549,-3.2892,-3.2488,-3.244,-3.2773,-3.2363,-3.1934,-3.1562,-3.1523,-3.1269,-3.0781,-2.9902,-3.0068,-3.085,-3.1866,-3.2677,-3.34,-3.4433,-3.4487,-3.4054,-3.4054,-3.3332,-3.2539,-3.2515,-3.2106,-3.1697,-3.1673,-3.1673,-3.1849,-3.2313,-3.24,-3.2574,-3.2982,-3.4428,-3.5628,-3.5628,-3.7,-3.8202,-3.8202,-3.8173,-3.8173,-3.8202,-3.8173,-3.7912,-3.7331,-3.6141,-3.5125,-3.4486,-3.4399,-3.4399,-3.4399,-3.4399,-3.4399,-3.4399,-3.4399,-3.4399,-3.4399,-3.4399,-3.4735,-3.5335,-3.54,-3.5691,-3.6384,-3.7263,-3.7764,-3.7822,-3.8788,-3.9288,-2.0668,0.0,-2.1364,-2.1516,-2.1862,-2.1952,-2.1049,-2.0638,-2.0136,-1.9084,-1.8384,-1.8183,-1.8664,-1.9332,-1.9973,-2.0454,-2.143,-2.2071,-2.1871,-2.2084,-2.2058,-2.147,-2.183,0.0,0.0,0.0,0.0,-2.2979,-2.3113,-2.33,-2.3607,-2.3901,-2.4022,-2.3915,-2.3728,-2.3527,-2.3327,-2.339,-2.4036,-2.5398,-2.8032,-3.0012,-3.1488,-3.2119,-3.2382,-3.2488,-3.2312,-3.226,-3.2344,-3.1914,-3.1641,-3.1465,-3.0859,-3.0391,-2.9941,-2.9355,-3.0018,-3.1309,-3.1723,-3.2937,-3.4264,-3.4318,-3.4174,-3.3909,-3.3236,-3.2779,-3.2418,-3.2058,-3.1817,-3.1673,-3.1673,-3.1673,-3.1849,-3.2313,-3.24,-3.2723,-3.3725,-3.4841,-3.5789,-3.6346,-3.7386,-3.8202,-3.8202,-3.8202,-3.8202,-3.8202,-3.7854,-3.7535,-3.7331,-3.6548,-3.5735,-3.5096,-3.5038,-3.4864,-3.4457,-3.4399,-3.4399,-3.4399,-3.4399,-3.4399,-3.4399,-3.4399,-3.4534,-3.4706,-3.5139,-3.5691,-3.6384,-3.7322,-3.7994,-3.8479,-3.904,-3.9288,-2.1597,-2.1809,-2.192,-2.2279,-2.2478,-2.225,-2.1054,-2.0476,-1.9701,-1.8358,-1.7528,-1.7208,-1.7502,-1.8116,-1.8744,-1.9252,-2.0214,-2.1015,-2.1349,-2.1537,-2.1617,-2.1577,-2.1897,0.0,0.0,0.0,0.0,-2.2819,-2.2966,-2.3113,-2.3313,-2.3607,-2.3728,-2.3621,-2.342,-2.3273,-2.3305,-2.3365,-2.4467,-2.6455,-2.9613,-3.1522,-3.2321,-3.2277,-3.2208,-3.2312,-3.2007,-3.1934,-3.1894,-3.1289,-3.1055,-3.0976,-3.0254,-2.9805,-2.9512,-2.9082,-3.011,-3.1804,-3.1629,-3.3001,-3.4775,-3.4438,-3.4078,-3.3645,-3.2996,-3.2515,-3.213,-3.1769,-3.1673,-3.1673,-3.1673,-3.1761,-3.1937,-3.2313,-3.2487,-3.281,-3.3725,-3.4841,-3.5789,-3.6373,-3.7414,-3.8202,-3.8202,-3.8202,-3.8202,-3.8202,-3.7883,-3.7564,-3.7331,-3.6925,-3.6431,-3.5764,-3.5503,-3.5212,-3.4777,-3.4545,-3.4399,-3.4399,-3.4399,-3.4399,-3.4399,-3.4399,-3.4601,-3.5103,-3.5529,-3.6197,-3.7147,-3.7854,-3.8367,-3.8788,-3.9148,-3.9288,-2.3225,-2.2944,-2.2446,-2.322,-2.2735,-2.1824,-2.1054,-1.9867,-1.8513,-1.7367,-1.6607,-1.6286,0.0,0.0,-1.7422,-1.8303,-1.8771,-1.9519,-2.0935,-2.0695,-2.0869,0.0,0.0,0.0,0.0,0.0,0.0,-2.2819,0.0,-2.3287,-2.33,-2.3567,-2.3594,-2.3313,-2.33,-2.3305,-2.3406,-2.3515,-2.5113,-2.8279,-3.1027,-3.2277,-3.2258,-3.2202,-3.2129,-3.2109,-3.1641,-3.1445,-3.1387,-3.0527,-3.0156,-3.0117,-2.9707,-2.9531,-2.9492,-2.9043,-3.0253,-3.2071,-3.1738,-3.3001,-3.4823,-3.4775,-3.4078,-3.3284,-3.3212,-3.2491,-3.1673,-3.1673,-3.1673,-3.1673,-3.1673,-3.1849,-3.2025,-3.2313,-3.255,-3.281,-3.3154,-3.4511,-3.5628,-3.5816,-3.7106,-3.8202,-3.8202,-3.8202,-3.8202,-3.8202,-3.8202,-3.7999,-3.7418,-3.736,-3.7099,-3.6431,-3.5822,-3.5444,-3.5456,-3.4806,-3.4457,-3.4399,-3.4399,-3.4399,-3.4399,-3.4399,-3.5037,-3.6322,-3.6384,-3.7027,-3.8351,-3.8655,-3.8788,-3.8788,-3.9148,-3.9288,-2.3803,-2.3418,-2.276,-2.2997,-2.3021,-2.2585,-2.0524,-2.0019,-1.9151,-1.6443,-1.5737,-1.5372,0.0,0.0,0.0,-1.7702,-1.9359,0.0,-2.1363,-2.1871,0.0,-2.2111,0.0,-2.2525,-2.2525,-2.2592,0.0,0.0,-2.2726,-2.2752,-2.2966,-2.306,-2.306,-2.2979,-2.3255,-2.3351,-2.3406,-2.5692,-2.7263,-2.8171,-3.0866,-3.2202,-3.2182,-3.1875,-3.168,-3.1641,-3.0879,-3.0527,-3.0488,-2.9961,-2.9726,-2.9687,-2.9258,-2.9082,-2.9043,-2.8613,-2.9908,-3.1738,-3.1629,-3.3001,-3.4703,-3.3933,-3.3501,-3.314,-3.2322,-3.1889,-3.1673,-3.1673,-3.1673,-3.1673,-3.1673,-3.1849,-3.2025,-3.2313,-3.255,-3.3129,-3.465,-3.5305,-3.6029,-3.7337,-3.7872,-3.8202,-3.8202,-3.8202,-3.8202,-3.8202,-3.8202,-3.8144,-3.7999,-3.797,-3.7738,-3.7128,-3.6896,-3.6431,-3.5444,-3.5212,-3.4922,-3.4457,-3.4399,-3.4399,-3.4399,-3.4399,-3.4773,-3.5657,-3.6134,-3.6814,-3.7653,-3.8399,-3.8788,-3.8788,-3.9148,-3.9288,-2.5228,-2.4224,-2.2939,-2.3382,-2.3382,-2.259,-2.0262,-1.9636,-1.8644,-1.5782,-1.4959,0.0,-1.4309,0.0,0.0,0.0,0.0,0.0,-2.1015,-2.159,-2.2017,0.0,-2.2659,0.0,-2.2632,-2.2766,-2.2859,0.0,-2.2712,-2.2686,-2.2859,-2.2859,-2.2996,-2.3133,-2.327,-2.3543,-2.3816,-2.6644,-2.8154,-2.8357,-3.0794,-3.1875,-3.1875,-3.1445,-3.1133,-3.0918,0.0,-3.0098,-2.9883,-2.9453,-2.9277,-2.9238,-2.8809,-2.8652,-2.8613,-2.8379,-2.9743,-3.1542,-3.1345,-3.2681,-3.439,-3.3813,-3.3308,-3.2827,-3.2226,-3.1865,-3.1673,-3.1673,-3.1673,-3.1673,-3.1673,-3.1937,-3.2225,-3.24,-3.2636,-3.3129,-3.4262,-3.5061,-3.6108,-3.7872,-3.8202,-3.8202,-3.8202,-3.8202,-3.8202,-3.8202,-3.8202,-3.8202,-3.8202,-3.8202,-3.8057,-3.7738,-3.7476,-3.6896,-3.588,-3.5532,-3.5096,-3.4457,-3.4399,-3.4399,-3.4399,-3.4399,-3.4839,-3.5819,-3.6197,-3.6874,-3.786,-3.8455,-3.8788,-3.8788,-3.9148,-3.9288,-2.691,-2.5349,-2.3363,-2.406,-2.3675,-2.2488,-2.003,-1.9007,-1.7861,-1.5315,0.0,-1.4193,-1.4362,-1.495,-1.5618,-1.6286,0.0,-1.8477,-2.0508,-2.0828,-2.1349,-2.2699,-2.2859,-2.2859,-2.2859,-2.2859,-2.2859,-2.2859,-2.2859,-2.2859,-2.2859,-2.2996,-2.3133,-2.3543,-2.3502,-2.3868,-2.4636,-2.6874,-2.8186,-2.8697,-3.0531,-3.1426,-3.1426,-3.0996,-3.0586,-3.0195,0.0,0.0,-2.9453,-2.9023,-2.8828,-2.8809,-2.8437,-2.8301,-2.8281,-2.8223,-2.9641,-3.1411,-3.093,-3.2111,-3.3837,-3.3837,-3.3236,-3.2491,-3.2418,-3.2058,-3.1673,-3.1673,-3.1673,-3.1673,-3.1761,-3.2025,-3.24,-3.24,-3.281,-3.3154,-3.3386,-3.4759,-3.6425,-3.7872,-3.8202,-3.8202,-3.8202,-3.8202,-3.8202,-3.8202,-3.8202,-3.8202,-3.8202,-3.8202,-3.8202,-3.8202,-3.7738,-3.7128,-3.6373,-3.5793,-3.5183,-3.4457,-3.4399,-3.4399,-3.4399,-3.4467,-3.5139,-3.6384,-3.6508,-3.7147,-3.8408,-3.8655,-3.8788,-3.8788,-3.9148,-3.9288,-2.8028,-2.6486,-2.45,-2.4647,-2.4299,-2.3178,-1.9893,-1.9192,0.0,0.0,-1.4035,-1.4131,-1.3788,-1.4669,-1.5752,-1.682,-1.7943,0.0,0.0,0.0,-2.2031,0.0,0.0,0.0,0.0,0.0,0.0,0.0,0.0,0.0,-2.2859,-2.3133,-2.3679,-2.4224,-2.3969,-2.4496,-2.5778,-2.7001,-2.8009,-2.8871,-3.0329,-3.0996,-3.0976,-3.0527,-3.0273,-3.0156,0.0,0.0,-2.9004,-2.8574,-2.8398,-2.8398,-2.832,-2.8301,-2.8262,-2.791,-2.9085,-3.0908,-3.0428,-3.1381,-3.2779,-3.2779,-3.2635,-3.2418,-3.1961,-3.1745,-3.1673,-3.1673,-3.1673,-3.1761,-3.1937,-3.2201,-3.2487,-3.2636,-3.2896,-3.3471,-3.4897,-3.6503,-3.7796,-3.8127,-3.8202,-3.8202,-3.8202,-3.8202,-3.8202,-3.8202,-3.8202,-3.8202,-3.8202,-3.8202,-3.8202,-3.8202,-3.8115,-3.7564,-3.6402,-3.6199,-3.5648,-3.4486,-3.4399,-3.4399,-3.4399,-3.4905,-3.5593,-3.6384,-3.6966,-3.7594,-3.8408,-3.8655,-3.8788,-3.8788,-3.9148,-3.9288,-2.838,-2.6584,-2.4519,-2.4739,-2.3938,-2.2389,-1.9826,0.0,0.0,0.0,-1.4041,-1.3978,-1.4131,-1.4751,0.0,-1.6522,-1.7432,0.0,0.0,0.0,0.0,0.0,0.0,0.0,0.0,0.0,0.0,0.0,0.0,0.0,-2.3133,-2.3679,-2.4088,-2.4495,-2.417,-2.4699,-2.6261,-2.691,-2.7887,-2.9112,-3.037,-3.0898,-3.0879,-3.041,-3.0078,-2.9844,0.0,0.0,-2.8574,-2.8379,-2.8301,-2.8301,-2.8301,-2.8301,-2.8242,-2.7812,-2.9065,-3.0656,-2.9916,-3.0876,-3.2442,-3.2154,-3.2058,-3.201,-3.1745,-3.1673,-3.1673,-3.1673,-3.1673,-3.1761,-3.1849,-3.2113,-3.24,-3.255,-3.281,-3.3556,-3.5224,-3.6267,-3.7155,-3.8052,-3.8202,-3.8202,-3.8202,-3.8202,-3.8202,-3.8202,-3.8202,-3.8202,-3.8202,-3.8202,-3.8202,-3.8202,-3.7912,-3.736,-3.6373,-3.5996,-3.5415,-3.4457,-3.4399,-3.4399,-3.4399,-3.4413,-3.504,-3.6384,-3.6471,-3.7155,-3.852,-3.8766,-3.8898,-3.8931,-3.9148,-3.9288,-2.8309,-2.652,-2.4601,-2.4932,-2.3703,-2.1931,-1.9971,-1.8442,0.0,0.0,-1.4252,-1.3922,-1.4545,-1.4788,-1.5183,0.0,-1.6616,0.0,0.0,0.0,0.0,0.0,0.0,0.0,0.0,0.0,0.0,0.0,0.0,0.0,0.0,-2.4224,-2.4467,-2.4545,-2.4247,-2.481,-2.6277,-2.676,-2.7712,-2.9148,-3.0294,-3.0703,-3.0586,-3.0137,-2.9746,-2.9394,0.0,0.0,0.0,-2.8203,-2.8203,-2.8281,-2.8203,-2.8164,-2.8105,-2.789,-2.8879,-3.0329,-2.9745,-3.0697,-3.225,-3.1817,-3.1673,-3.1673,-3.1673,-3.1673,-3.1673,-3.1673,-3.1673,-3.1761,-3.1761,-3.2113,-3.24,-3.2574,-3.3154,-3.4037,-3.5305,-3.5869,-3.6582,-3.7947,-3.8202,-3.8202,-3.8202,-3.8202,-3.8202,-3.8202,-3.8202,-3.8202,-3.8202,-3.8202,-3.8202,-3.8202,-3.768,-3.7099,-3.6577,-3.5822,-3.5154,-3.4661,-3.4486,-3.4399,-3.4399,-3.4054,-3.4678,-3.6384,-3.6188,-3.6921,-3.8632,-3.8876,-3.904,-3.9007,-3.9202,-3.9288,-2.7996,-2.6788,-2.5374,-2.5618,-2.4753,-2.3074,-2.0598,0.0,0.0,-1.5544,-1.4756,-1.4512,-1.4671,-1.453,-1.4856,0.0,0.0,-1.6962,0.0,0.0,0.0,0.0,0.0,0.0,0.0,0.0,0.0,0.0,0.0,0.0,0.0,-2.4495,-2.4501,-2.4627,-2.4262,-2.4585,-2.5549,-2.6477,-2.7432,-2.8443,-2.97,-3.0059,-2.9668,-2.9238,-2.9023,-2.8926,0.0,0.0,0.0,-2.7891,-2.7949,-2.8262,-2.7871,-2.7734,-2.7721,-2.7882,-2.8515,-2.9467,-2.9964,-3.0804,-3.1745,-3.1673,-3.1673,-3.1673,-3.1673,-3.1673,-3.1673,-3.1673,-3.1673,-3.1761,-3.1937,-3.2225,-3.2487,-3.2896,-3.4262,-3.5386,-3.5548,-3.6816,-3.8023,-3.8202,-3.8202,-3.8202,-3.8202,-3.8202,-3.8202,-3.8202,-3.8202,-3.8202,-3.8202,-3.8202,-3.8202,-3.8202,-3.768,-3.7273,-3.7215,-3.6083,-3.5328,-3.527,-3.4748,-3.4399,-3.4399,-3.4868,-3.5554,-3.6353,-3.7036,-3.7741,-3.8632,-3.8876,-3.904,-3.9007,-3.9202,-3.9288,-2.6836,-2.604,-2.5117,-2.5303,-2.4197,-2.2625,-2.1386,0.0,-1.8585,-1.7346,-1.6173,-1.5559,-1.6088,-1.5362,-1.5053,0.0,0.0,0.0,0.0,0.0,0.0,0.0,0.0,0.0,0.0,0.0,0.0,0.0,0.0,0.0,0.0,-2.4625,-2.448,-2.4291,-2.4713,-2.5376,-2.6232,-2.7312,-2.8235,-2.9126,-2.9598,-2.9726,-2.9551,-2.9121,-2.8789,-2.8516,0.0,0.0,0.0,-2.7637,-2.7617,-2.7539,-2.7637,-2.75,-2.731,-2.7103,-2.8001,-2.9263,-2.932,-3.0351,-3.1673,-3.1673,-3.1673,-3.1673,-3.1673,-3.1673,-3.1673,-3.1673,-3.1673,-3.1761,-3.1937,-3.2288,-3.2636,-3.2982,-3.4037,-3.5006,-3.5467,-3.661,-3.7567,-3.8127,-3.8202,-3.8202,-3.8202,-3.8202,-3.8202,-3.8202,-3.8202,-3.8202,-3.8202,-3.8202,-3.8202,-3.8202,-3.7302,-3.6722,-3.6722,-3.5532,-3.4806,-3.4806,-3.4545,-3.4601,-3.4971,-3.4868,-3.5493,-3.6935,-3.7093,-3.7686,-3.8711,-3.904,-3.9202,-3.9202,-3.9255,-3.9288,-2.5544,-2.5352,-2.496,-2.5245,-2.3975,-2.2568,0.0,0.0,-1.8981,-1.8588,-1.7542,-1.6766,-1.7,-1.632,-1.5848,0.0,0.0,-1.6252,0.0,0.0,0.0,0.0,0.0,0.0,0.0,0.0,0.0,0.0,0.0,0.0,0.0,-2.4188,-2.4027,-2.3808,-2.4447,-2.5199,-2.5944,-2.6994,-2.8063,-2.8818,-2.9264,-2.9258,-2.9004,-2.8691,-2.832,0.0,0.0,0.0,0.0,-2.7207,-2.7187,-2.7031,-2.7207,-2.709,-2.6777,-2.6725,-2.7696,-2.9161,-2.9183,-3.026,-3.1673,-3.1673,-3.1673,-3.1673,-3.1673,-3.1673,-3.1673,-3.1673,-3.1761,-3.1849,-3.2113,-3.2463,-3.281,-3.3068,-3.3751,-3.462,-3.5467,-3.6267,-3.7183,-3.8052,-3.8202,-3.8202,-3.8202,-3.8202,-3.8202,-3.8202,-3.8202,-3.8202,-3.8202,-3.8202,-3.8202,-3.8202,-3.7244,-3.6606,-3.6606,-3.5415,-3.469,-3.469,-3.4718,-3.4905,-3.54,-3.509,-3.5737,-3.7385,-3.7238,-3.7741,-3.8788,-3.9148,-3.9288,-3.9288,-3.9288,-3.9288,-2.4337,-2.4827,-2.5226,-2.5748,-2.4679,-2.3198,0.0,-2.1154,-1.9641,-1.8775,-1.8594,-1.8178,-1.6926,-1.7101,-1.7152,-1.6197,0.0,0.0,0.0,0.0,0.0,0.0,0.0,0.0,0.0,0.0,0.0,0.0,0.0,0.0,0.0,0.0,-2.312,-2.312,-2.312,-2.3412,-2.3921,-2.5294,-2.6259,-2.703,-2.8248,-2.8496,-2.7676,-2.7676,0.0,0.0,0.0,0.0,0.0,-2.6562,-2.6641,-2.6973,-2.6562,-2.6406,-2.6427,-2.7002,-2.784,-2.8866,-2.9806,-3.0824,-3.1673,-3.1673,-3.1673,-3.1673,-3.1673,-3.1673,-3.1673,-3.1673,-3.1849,-3.2113,-3.255,-3.2723,-3.281,-3.3068,-3.3751,-3.462,-3.5467,-3.6267,-3.7183,-3.8052,-3.8202,-3.8202,-3.8202,-3.8202,-3.8202,-3.8202,-3.8202,-3.8202,-3.8202,-3.8202,-3.8202,-3.8202,-3.7651,-3.7302,-3.7302,-3.6112,-3.5427,-3.5427,-3.5392,-3.54,-3.54,-3.598,-3.6658,-3.7417,-3.7663,-3.81,-3.8788,-3.9148,-3.9288,-3.9288,-3.9288,-3.9288,-2.241,-2.2963,-2.3334,-2.3518,-2.277,-2.2063,-2.2065,-2.1225,-2.0292,-2.0023,-1.9672,-1.9259,-1.8414,-1.7969,-1.7643,-1.7282,0.0,0.0,0.0,0.0,0.0,0.0,0.0,0.0,0.0,0.0,0.0,0.0,0.0,0.0,0.0,0.0,-2.4932,-2.3993,-2.4707,-2.5294,-2.5953,-2.7306,-2.7748,-2.7515,-2.7854,-2.7773,-2.7226,-2.7226,0.0,0.0,0.0,0.0,0.0,-2.6328,-2.6289,-2.6152,-2.6328,-2.6211,-2.5918,-2.615,-2.72,-2.8773,-2.905,-3.026,-3.1673,-3.1673,-3.1673,-3.1673,-3.1673,-3.1673,-3.1761,-3.1849,-3.2113,-3.2288,-3.2636,-3.281,-3.2982,-3.3068,-3.4204,-3.5305,-3.5548,-3.6738,-3.7872,-3.8127,-3.8202,-3.8202,-3.8202,-3.8202,-3.8202,-3.8202,-3.8202,-3.8202,-3.8202,-3.8202,-3.8202,-3.8202,-3.8028,-3.7767,-3.7331,-3.6112,-3.5427,-3.5427,-3.4952,-3.5139,-3.6072,-3.6291,-3.6896,-3.8091,-3.8372,-3.8537,-3.8655,-3.9094,-3.9288,-3.9288,-3.9288,-3.9288,0.0,-2.2108,-2.253,-2.2618,-2.2159,0.0,-2.209,-2.1445,-2.0859,-2.1035,-2.0981,-2.0643,-1.9791,-1.9117,-1.8557,-1.8039,0.0,0.0,0.0,0.0,0.0,0.0,0.0,0.0,0.0,0.0,0.0,0.0,0.0,0.0,0.0,0.0,-2.571,-2.5128,-2.5337,-2.5839,-2.6573,-2.7168,-2.7487,-2.7422,-2.7422,-2.7187,-2.6777,0.0,0.0,0.0,0.0,0.0,0.0,-2.6035,-2.5977,-2.5762,-2.6035,-2.5977,-2.5742,-2.5742,-2.6744,-2.8215,-2.8588,-2.9806,-3.1205,-3.156,-3.1673,-3.1673,-3.1673,-3.1673,-3.1761,-3.2025,-3.2313,-3.2487,-3.281,-3.2982,-3.3068,-3.3068,-3.4121,-3.5224,-3.5548,-3.666,-3.7796,-3.8127,-3.8202,-3.8202,-3.8202,-3.8202,-3.8202,-3.8202,-3.8202,-3.8202,-3.8202,-3.8202,-3.8202,-3.8202,-3.8202,-3.8057,-3.768,-3.6693,-3.588,-3.5456,-3.5495,-3.5799,-3.6384,-3.6874,-3.7594,-3.8408,-3.86,-3.8711,-3.8655,-3.9094,-3.9288,-3.9288,-3.9288,-3.9288,0.0,-2.2024,-2.2708,0.0,0.0,0.0,-2.2363,-2.1855,0.0,-2.1797,-2.2227,-2.2129,-2.0903,-2.0483,-1.9867,-1.8685,0.0,0.0,0.0,0.0,0.0,0.0,0.0,0.0,0.0,0.0,0.0,0.0,0.0,0.0,0.0,0.0,0.0,-2.6463,-2.53,-2.5125,-2.6,-2.5595,-2.5928,-2.6973,-2.6973,-2.6758,-2.6348,0.0,0.0,0.0,0.0,0.0,0.0,-2.5742,-2.5742,-2.5742,-2.5742,-2.5742,-2.5742,-2.5742,-2.638,-2.7463,-2.8402,-2.9418,-3.0441,-3.1383,-3.1673,-3.1673,-3.1673,-3.1673,-3.1761,-3.2288,-3.24,-3.2487,-3.2982,-3.3068,-3.3068,-3.3068,-3.381,-3.4703,-3.5467,-3.6346,-3.726,-3.8052,-3.8202,-3.8202,-3.8202,-3.8202,-3.8202,-3.8202,-3.8202,-3.8202,-3.8202,-3.8202,-3.8202,-3.8202,-3.8202,-3.8202,-3.8202,-3.7651,-3.678,-3.5503,-3.6616,-3.6996,-3.6415,-3.7594,-3.8262,-3.8311,-3.8423,-3.8623,-3.8876,-3.9115,-3.9189,-3.9189,-3.9189,-3.9189,-2.1147,0.0,-2.117,-2.1337,-2.1361,-2.1504,0.0,-2.1875,-2.1758,-2.1855,-2.2227,-2.2322,-2.1558,-2.1389,-2.1229,0.0,0.0,0.0,0.0,0.0,0.0,0.0,0.0,0.0,0.0,0.0,0.0,0.0,0.0,0.0,0.0,0.0,0.0,-2.691,-2.6275,-2.6199,-2.6737,-2.6641,-2.6531,-2.6543,-2.6543,-2.6309,-2.5898,0.0,0.0,0.0,0.0,0.0,0.0,-2.5742,-2.5742,-2.5742,-2.5742,-2.5742,-2.5742,-2.5742,-2.6839,-2.8402,-2.8588,-2.9897,-3.1383,-3.1649,-3.1673,-3.1673,-3.1673,-3.1673,-3.1761,-3.2288,-3.24,-3.2487,-3.2982,-3.3068,-3.3068,-3.3068,-3.4204,-3.5386,-3.5548,-3.6816,-3.7976,-3.8127,-3.8202,-3.8202,-3.8202,-3.8202,-3.8202,-3.8202,-3.8202,-3.8202,-3.8202,-3.8202,-3.8202,-3.8202,-3.8202,-3.8202,-3.8202,-3.7651,-3.6954,-3.6141,-3.5966,-3.6022,-3.6415,-3.6692,-3.7074,-3.7543,-3.7731,-3.8264,-3.9202,-3.8619,-3.8355,-3.846,-3.846,-3.846,-2.1695,-2.1504,-2.1172,-2.105,-2.1286,-2.1641,-2.207,0.0,0.0,0.0,0.0,0.0,0.0,0.0,0.0,0.0,0.0,0.0,0.0,0.0,0.0,0.0,0.0,0.0,0.0,0.0,0.0,0.0,0.0,0.0,0.0,0.0,0.0,0.0,-2.6504,-2.6504,-2.6719,-2.6523,-2.6309,-2.6094,-2.6094,-2.5977,-2.5742,0.0,0.0,0.0,0.0,0.0,-2.5742,-2.5742,-2.5742,-2.5723,-2.5508,-2.5547,-2.5703,-2.5968,-2.694,-2.8121,-2.905,-3.0441,-3.1673,-3.1673,-3.1673,-3.1761,-3.1849,-3.1849,-3.1937,-3.2313,-3.2487,-3.2636,-3.2982,-3.3068,-3.3068,-3.3068,-3.4345,-3.5628,-3.5628,-3.7,-3.8202,-3.8202,-3.8202,-3.8202,-3.8202,-3.8202,-3.8202,-3.8202,-3.8202,-3.8202,-3.8202,-3.8202,-3.8086,-3.7825,-3.7796,-3.768,-3.736,-3.7041,-3.6693,-3.6315,-3.6271,-3.6135,-3.5892,-3.6185,-3.6667,-3.7361,-3.7927,-3.8372,-3.8685,-3.8289,-3.7926,-3.7698,-3.7698,-3.7698,-2.2422,-2.2402,-2.2129,-2.1582,-2.1719,-2.209,-2.2519,0.0,0.0,0.0,0.0,0.0,0.0,-2.2839,0.0,0.0,0.0,0.0,0.0,0.0,0.0,0.0,0.0,0.0,0.0,0.0,0.0,0.0,0.0,0.0,0.0,0.0,0.0,0.0,-2.6289,-2.6289,-2.6289,-2.5918,-2.5742,-2.5742,-2.5742,-2.5703,-2.5644,-2.5644,0.0,0.0,0.0,0.0,-2.5742,-2.5742,-2.5742,-2.5684,-2.5234,-2.5352,-2.5761,-2.6268,-2.6796,-2.7547,-2.9512,-3.0767,-3.1432,-3.1432,-3.1432,-3.152,-3.1792,-3.1904,-3.2016,-3.2376,-3.25,-3.2685,-3.2857,-3.2893,-3.2817,-3.2817,-3.4162,-3.5493,-3.5493,-3.6916,-3.8202,-3.8202,-3.8202,-3.8202,-3.8202,-3.8202,-3.8202,-3.8202,-3.8202,-3.8202,-3.8202,-3.8115,-3.7912,-3.7476,-3.736,-3.7128,-3.6635,-3.6648,-3.6691,-3.6645,-3.691,-3.6595,-3.549,-3.6087,-3.6831,-3.7546,-3.8384,-3.8644,-3.8203,-3.8209,-3.7831,-3.7102,-3.7102,-3.7036,-2.25,-2.3242,-2.375,-2.2598,-2.2363,-2.2519,-2.2949,-2.3047,0.0,0.0,0.0,0.0,0.0,0.0,0.0,0.0,0.0,0.0,0.0,0.0,0.0,0.0,0.0,0.0,0.0,0.0,0.0,0.0,0.0,0.0,0.0,0.0,0.0,0.0,0.0,-2.584,-2.584,-2.5781,-2.5742,-2.5742,-2.5917,-2.572,-2.5176,-2.5461,-2.5366,0.0,0.0,0.0,-2.5742,-2.5742,-2.5742,-2.5684,-2.5234,-2.5352,-2.5722,-2.5921,-2.6683,-2.8025,-2.9589,-3.0241,-3.0326,-3.0326,-3.0326,-3.0507,-3.1089,-3.1516,-3.181,-3.2513,-3.2375,-3.2112,-3.2256,-3.1989,-3.1637,-3.1637,-3.3328,-3.4947,-3.4947,-3.6634,-3.8202,-3.8202,-3.8202,-3.8202,-3.8202,-3.8202,-3.8202,-3.8202,-3.8202,-3.8202,-3.8202,-3.7767,-3.7622,-3.8028,-3.7622,-3.7476,-3.7883,-3.8472,-3.8639,-3.8102,-3.7075,-3.6435,-3.6142,-3.6925,-3.7448,-3.7773,-3.8031,-3.8467,-3.9123,-3.8493,-3.7831,-3.7102,-3.7102,-3.6771,-2.2852,-2.3281,-2.3691,-2.3574,-2.3906,-2.4297,-2.4492,-2.4551,0.0,0.0,0.0,0.0,0.0,0.0,0.0,0.0,0.0,0.0,0.0,0.0,0.0,0.0,0.0,0.0,0.0,0.0,0.0,0.0,0.0,0.0,0.0,0.0,0.0,0.0,0.0,0.0,-2.5742,-2.5584,-2.5584,-2.5742,-2.5584,-2.5444,-2.5248,-2.5012,-2.5125,0.0,0.0,-2.5503,-2.5917,-2.5917,-2.5682,-2.5332,-2.4883,-2.4844,-2.5149,-2.618,-2.7657,-2.9173,-2.9904,-3.0086,-3.0086,-3.0086,-3.017,-3.0385,-3.0796,-3.1122,-3.1447,-3.1838,-3.2247,-3.2607,-3.2667,-3.2491,-3.229,-3.229,-3.3826,-3.5221,-3.5221,-3.6803,-3.8202,-3.8202,-3.8202,-3.8202,-3.8202,-3.8202,-3.8202,-3.8202,-3.8202,-3.8202,-3.8202,-3.797,-3.7767,-3.7738,-3.7476,-3.7273,-3.7186,-3.7849,-3.8469,-3.8877,-3.7679,-3.675,-3.6341,-3.6799,-3.7183,-3.7288,-3.784,-3.8308,-3.8692,-3.8361,-3.7831,-3.7102,-3.6704,-3.634,-2.3144,-2.3281,-2.3594,-2.4258,-2.4785,-2.5293,-2.5898,-2.5879,-2.5664,0.0,0.0,0.0,0.0,0.0,0.0,0.0,0.0,0.0,0.0,0.0,0.0,0.0,0.0,0.0,0.0,0.0,0.0,0.0,0.0,0.0,0.0,0.0,0.0,0.0,0.0,0.0,-2.5526,-2.5362,-2.5421,-2.5663,-2.5326,-2.5145,-2.5212,-2.469,-2.4822,-2.551,-2.5345,-2.5491,-2.5889,-2.5889,-2.5595,-2.5071,-2.4526,-2.4473,-2.4916,-2.6515,-2.8254,-2.9725,-2.9725,-2.9808,-2.9784,-2.9784,-2.9973,-3.0162,-3.0556,-3.0827,-3.0991,-3.1279,-3.2014,-3.2692,-3.2692,-3.2692,-3.2751,-3.2921,-3.4196,-3.5491,-3.565,-3.7042,-3.8202,-3.8202,-3.8202,-3.8202,-3.8202,-3.8202,-3.8202,-3.8202,-3.8202,-3.8202,-3.8202,-3.7941,-3.7709,-3.7535,-3.7244,-3.707,-3.7046,-3.7545,-3.8371,-3.9564,-3.8416,-3.7238,-3.6254,-3.6705,-3.696,-3.6898,-3.7945,-3.846,-3.846,-3.846,-3.7996,-3.7102,-3.6539,-3.6174,-2.3144,-2.3711,-2.4336,-2.4394,-2.3867,-2.3965,-2.6367,-2.6309,0.0,-2.7695,0.0,0.0,0.0,0.0,0.0,0.0,0.0,0.0,0.0,0.0,0.0,0.0,0.0,0.0,0.0,0.0,0.0,0.0,0.0,0.0,0.0,0.0,0.0,0.0,0.0,0.0,-2.4901,-2.4861,-2.506,-2.5382,-2.5245,-2.5007,-2.4605,-2.4476,-2.4496,-2.4605,-2.4605,-2.4756,-2.5157,-2.5157,-2.5137,-2.5077,-2.4346,-2.479,-2.5719,-2.6345,-2.7417,-2.8619,-2.8619,-2.8778,-2.8913,-2.8913,-2.8992,-2.9352,-3.0109,-3.0338,-3.0518,-3.1154,-3.1461,-3.1512,-3.1512,-3.1512,-3.1757,-3.2538,-3.378,-3.5128,-3.5927,-3.7168,-3.8202,-3.8202,-3.8202,-3.8202,-3.8202,-3.8202,-3.8202,-3.8202,-3.8202,-3.8202,-3.8202,-3.7186,-3.6867,-3.7999,-3.7099,-3.7146,-3.9001,-3.9266,-3.9554,-4.0393,-3.921,-3.7655,-3.5774,-3.7091,-3.759,-3.6898,-3.8441,-3.9189,-3.9189,-3.9189,-3.846,-3.7102,-3.7069,-3.6671,-2.3144,-2.3965,-2.4746,-2.4473,-2.459,0.0,0.0,-2.7754,-2.7832,-2.8203,-2.8672,0.0,0.0,0.0,0.0,0.0,0.0,0.0,0.0,0.0,0.0,0.0,0.0,0.0,0.0,0.0,0.0,0.0,0.0,0.0,0.0,0.0,0.0,0.0,0.0,0.0,0.0,-2.4887,-2.4847,-2.4987,-2.4847,-2.4775,-2.4682,-2.4223,-2.4331,-2.4968,-2.4791,-2.4946,-2.5351,-2.5351,-2.5098,-2.4616,-2.3998,-2.4654,-2.603,-2.6037,-2.7158,-2.8736,-2.8736,-2.8816,-2.8973,-2.8973,-2.9131,-2.9312,-2.9667,-2.9845,-3.0052,-3.0331,-3.0407,-3.0557,-3.121,-3.1386,-3.1706,-3.293,-3.4046,-3.5155,-3.6347,-3.7396,-3.8202,-3.8202,-3.8202,-3.8202,-3.8202,-3.8202,-3.8202,-3.8202,-3.8202,-3.8057,-3.7709,-3.7564,-3.736,-3.7041,-3.6975,-3.7396,-3.8586,-3.8741,-3.8523,-3.8121,-3.886,-3.8786,-3.7621,-3.7814,-3.7906,-3.7694,-3.7897,-3.8162,-3.8626,-3.8626,-3.8328,-3.7798,-3.7798,-3.74,-2.334,-2.3984,-2.4668,-2.4629,0.0,0.0,-2.8203,-2.8809,-2.9101,-2.9766,-2.9844,-2.9434,-2.8281,0.0,0.0,0.0,0.0,0.0,0.0,0.0,0.0,0.0,0.0,0.0,0.0,0.0,0.0,0.0,0.0,0.0,0.0,0.0,0.0,0.0,0.0,0.0,0.0,-2.4506,-2.437,-2.4313,-2.414,-2.4222,-2.4518,-2.3791,-2.3937,-2.4799,-2.4625,-2.4805,-2.5194,-2.5194,-2.4852,-2.4351,-2.3787,-2.468,-2.6196,-2.5924,-2.7058,-2.8791,-2.8791,-2.8949,-2.9209,-2.9209,-2.9365,-2.9521,-2.9521,-2.9677,-2.9804,-2.9804,-2.9804,-2.9955,-3.0683,-3.1145,-3.1932,-3.3541,-3.4576,-3.5549,-3.7042,-3.7796,-3.8202,-3.8202,-3.8202,-3.8202,-3.8202,-3.8202,-3.8202,-3.8202,-3.8057,-3.7767,-3.736,-3.7302,-3.7026,-3.6365,-3.6704,-3.7225,-3.7928,-3.7778,-3.7387,-3.66,-3.7959,-3.8439,-3.7617,-3.7656,-3.776,-3.7864,-3.7798,-3.803,-3.856,-3.856,-3.8427,-3.8195,-3.7963,-3.7599,-2.3789,-2.3789,-2.4004,-2.4863,0.0,0.0,-2.8887,-2.9238,-2.9785,-3.2793,-3.1016,-2.8926,-2.8926,0.0,0.0,0.0,0.0,0.0,0.0,0.0,0.0,0.0,0.0,0.0,0.0,0.0,0.0,0.0,0.0,0.0,0.0,0.0,0.0,0.0,0.0,0.0,0.0,-2.3512,-2.3371,-2.3184,-2.3184,-2.3432,-2.3846,-2.3145,-2.3166,-2.3867,-2.3867,-2.4115,-2.4444,-2.455,-2.4358,-2.4186,-2.3927,-2.4765,-2.6174,-2.5902,-2.7058,-2.8791,-2.8791,-2.9106,-2.9394,-2.9394,-2.9599,-2.9779,-2.9779,-2.9779,-2.9779,-2.9779,-2.9779,-2.9779,-2.9779,-3.0753,-3.2251,-3.4278,-3.5432,-3.6391,-3.7878,-3.8202,-3.8202,-3.8202,-3.8202,-3.8202,-3.8202,-3.8202,-3.8202,-3.8202,-3.768,-3.7331,-3.7302,-3.617,-3.5634,-3.6283,-3.632,-3.6451,-3.7178,-3.6722,-3.6366,-3.6377,-3.6711,-3.629,-3.4982,-3.634,-3.7102,-3.7102,-3.8526,-3.9255,-3.9255,-3.9255,-3.8891,-3.8162,-3.7466,-3.7102,-2.3418,-2.4004,0.0,-2.5,0.0,0.0,0.0,-2.9687,0.0,0.0,-3.1094,-2.9726,-2.9434,0.0,0.0,0.0,0.0,0.0,0.0,0.0,0.0,0.0,0.0,0.0,0.0,0.0,0.0,0.0,0.0,0.0,0.0,0.0,0.0,0.0,0.0,0.0,0.0,0.0,-2.3247,-2.3184,-2.2853,-2.2936,-2.3391,-2.3165,-2.3185,-2.3391,-2.3391,-2.3639,-2.4095,-2.4405,-2.4173,-2.3716,-2.4053,-2.457,-2.5201,-2.5959,-2.698,-2.7973,-2.8341,-2.8447,-2.8525,-2.8525,-2.8525,-2.8599,-2.8599,-2.8599,-2.8599,-2.8599,-2.8323,-2.8197,-2.8976,-3.0017,-3.129,-3.3105,-3.4187,-3.5119,-3.6577,-3.7244,-3.7564,-3.7564,-3.7912,-3.8202,-3.8202,-3.8202,-3.8057,-3.7622,-3.7767,-3.7796,-3.736,-3.617,-3.5605,-3.6186,-3.5906,-3.5737,-3.5734,-3.5796,-3.5649,-3.5085,-3.5251,-3.5613,-3.6257,-3.682,-3.7102,-3.7102,-3.7003,-3.697,-3.697,-3.697,-3.687,-3.6671,-3.75,-3.7599,-2.3887,-2.4473,0.0,-2.6483,-2.7597,-2.8633,-2.9902,0.0,0.0,0.0,0.0,0.0,0.0,0.0,0.0,0.0,0.0,0.0,0.0,0.0,0.0,0.0,0.0,0.0,0.0,0.0,0.0,0.0,0.0,0.0,0.0,0.0,0.0,0.0,0.0,0.0,0.0,0.0,0.0,-2.2625,-2.2356,-2.2377,-2.2646,-2.2646,-2.2749,-2.2915,-2.3101,-2.3246,-2.337,-2.3826,-2.366,-2.3166,-2.3985,-2.4501,-2.4915,-2.5913,-2.6771,-2.7557,-2.7977,-2.8102,-2.8097,-2.8097,-2.8097,-2.8097,-2.8097,-2.8097,-2.8097,-2.8097,-2.7871,-2.7843,-2.8766,-2.9671,-3.0841,-3.2608,-3.3879,-3.4939,-3.6099,-3.6635,-3.6896,-3.6896,-3.7215,-3.7447,-3.7447,-3.7447,-3.7331,-3.6954,-3.7215,-3.7215,-3.6606,-3.5868,-3.5511,-3.5804,-3.5308,-3.5049,-3.5195,-3.5188,-3.5038,-3.4627,-3.4691,-3.5184,-3.6075,-3.6456,-3.6671,-3.6671,-3.6506,-3.6439,-3.6439,-3.6439,-3.6439,-3.6439,-3.7069,-3.7235,-2.4746,0.0,0.0,-2.8794,-2.9204,0.0,-3.032,-3.1801,-3.2667,-3.2133,0.0,0.0,0.0,0.0,0.0,0.0,0.0,0.0,0.0,0.0,0.0,0.0,0.0,0.0,0.0,0.0,0.0,0.0,0.0,0.0,0.0,0.0,0.0,0.0,0.0,0.0,0.0,0.0,0.0,0.0,-2.1832,-2.1832,-2.1797,-2.1797,-2.2045,-2.2459,-2.2915,-2.2894,-2.2542,-2.2998,-2.2915,-2.2679,-2.3688,-2.4425,-2.5002,-2.5838,-2.6668,-2.7311,-2.7656,-2.7802,-2.7946,-2.7946,-2.7946,-2.7946,-2.7946,-2.7946,-2.7946,-2.7946,-2.7946,-2.8091,-2.8834,-2.9635,-3.0717,-3.2418,-3.4015,-3.5357,-3.5938,-3.6141,-3.6228,-3.6228,-3.6257,-3.6315,-3.6315,-3.6373,-3.6373,-3.6315,-3.6257,-3.5967,-3.527,-3.5237,-3.5202,-3.5124,-3.4623,-3.4526,-3.5226,-3.484,-3.4594,-3.4691,-3.4835,-3.4883,-3.4883,-3.5545,-3.5909,-3.5909,-3.6572,-3.6903,-3.6903,-3.6903,-3.6903,-3.6903,-3.6274,-3.6373,0.0,-2.5269,0.0,0.0,-3.1698,-3.3638,-3.3741,-3.3738,-3.2959,0.0,0.0,0.0,0.0,0.0,0.0,0.0,0.0,0.0,0.0,0.0,0.0,0.0,0.0,0.0,0.0,0.0,0.0,0.0,0.0,0.0,0.0,0.0,0.0,0.0,0.0,0.0,-2.341,-2.3649,-2.3438,0.0,-2.2388,-2.2041,-2.1797,-2.1797,-2.1859,-2.1983,-2.2439,-2.2584,-2.2542,-2.2998,-2.3213,-2.3217,-2.4072,-2.4249,-2.4329,-2.5949,-2.6257,-2.5946,-2.6813,-2.7051,-2.6816,-2.6816,-2.6816,-2.6816,-2.6816,-2.6816,-2.6816,-2.6816,-2.6816,-2.7126,-2.8205,-2.9411,-3.0624,-3.1487,-3.2777,-3.3906,-3.4051,-3.4864,-3.5561,-3.5561,-3.5967,-3.6315,-3.6315,-3.6751,-3.6925,-3.6373,-3.588,-3.5154,-3.4022,-3.4292,-3.433,-3.3805,-3.4195,-3.4514,-3.4543,-3.4693,-3.4787,-3.4691,-3.4835,-3.4883,-3.4883,-3.5048,-3.5148,-3.5148,-3.528,-3.5379,-3.5379,-3.5379,-3.5379,-3.5379,-3.581,-3.6075,0.0,0.0,0.0,0.0,0.0,0.0,0.0,0.0,0.0,0.0,0.0,0.0,0.0,0.0,0.0,0.0,0.0,0.0,0.0,0.0,0.0,0.0,0.0,0.0,0.0,0.0,0.0,0.0,0.0,0.0,0.0,0.0,0.0,0.0,0.0,0.0,-2.4237,-2.3883,-2.3549,-2.3139,-2.2534,-2.2082,-2.1797,-2.1797,-2.1797,-2.1818,-2.2066,-2.2045,-2.188,-2.2335,-2.2618,-2.2948,-2.3891,-2.4345,-2.4566,-2.5718,-2.5772,-2.5376,-2.6083,-2.6221,-2.6088,-2.6433,-2.6533,-2.6533,-2.6533,-2.6533,-2.6533,-2.6533,-2.6533,-2.679,-2.8039,-2.9147,-3.0156,-3.0793,-3.2256,-3.3383,-3.3064,-3.379,-3.4457,-3.4457,-3.498,-3.5415,-3.5415,-3.5444,-3.5357,-3.5009,-3.4661,-3.4292,-3.3558,-3.3984,-3.409,-3.346,-3.4048,-3.4489,-3.4481,-3.4691,-3.4787,-3.4787,-3.4835,-3.4883,-3.4883,-3.4883,-3.4883,-3.4883,-3.4883,-3.4883,-3.4883,-3.4883,-3.4883,-3.4916,-3.528,-3.5843,0.0,0.0,0.0,0.0,0.0,0.0,0.0,0.0,0.0,0.0,0.0,0.0,0.0,0.0,0.0,0.0,0.0,0.0,0.0,0.0,0.0,0.0,0.0,0.0,0.0,0.0,0.0,0.0,0.0,0.0,0.0,0.0,0.0,0.0,0.0,-2.5487,-2.539,-2.4283,-2.3653,-2.3514,-2.2577,-2.2013,-2.1595,-2.1678,-2.1803,-2.1797,-2.1714,-2.1507,-2.1259,-2.1652,-2.2094,-2.2723,-2.3754,-2.4494,-2.5177,-2.5493,-2.5428,-2.5219,-2.5394,-2.5511,-2.5661,-2.6163,-2.6458,-2.6533,-2.6533,-2.6533,-2.6533,-2.6533,-2.6533,-2.6782,-2.8168,-2.91,-2.9811,-3.0438,-3.1961,-3.3122,-3.2483,-3.2861,-3.3296,-3.3296,-3.3732,-3.4109,-3.4225,-3.3819,-3.3441,-3.3325,-3.3296,-3.3274,-3.3171,-3.3638,-3.3856,-3.355,-3.4034,-3.4448,-3.4691,-3.4691,-3.4787,-3.4883,-3.4883,-3.4883,-3.4883,-3.4883,-3.4883,-3.4883,-3.4883,-3.4883,-3.4883,-3.4883,-3.4883,-3.4883,-3.4883,-3.5611,0.0,0.0,0.0,0.0,0.0,0.0,0.0,0.0,0.0,0.0,0.0,0.0,0.0,0.0,0.0,0.0,0.0,0.0,0.0,0.0,0.0,0.0,0.0,0.0,0.0,0.0,0.0,0.0,0.0,0.0,0.0,0.0,-2.6841,-2.5862,-2.617,0.0,-2.5578,-2.5369,-2.4982,-2.43,-2.3075,-2.1911,-2.0939,-2.135,-2.1637,-2.1776,-2.1383,-2.1404,-2.1714,-2.1776,-2.2638,-2.3895,-2.4013,-2.4707,-2.5553,-2.5544,-2.531,-2.4868,-2.4933,-2.5209,-2.5611,-2.5686,-2.6063,-2.6533,-2.6533,-2.6533,-2.6533,-2.6533,-2.6533,-2.6782,-2.8168,-2.9399,-3.0306,-3.0524,-3.1642,-3.2454,-3.1787,-3.2164,-3.2658,-3.2658,-3.2716,-3.2948,-3.3499,-3.3529,-3.3267,-3.2716,-3.2658,-3.2411,-3.1871,-3.2322,-3.2921,-3.3393,-3.4151,-3.4643,-3.4691,-3.4787,-3.4883,-3.4883,-3.4883,-3.4883,-3.4883,-3.4883,-3.4883,-3.4883,-3.4883,-3.4883,-3.4883,-3.4883,-3.4883,-3.4883,-3.4883,-3.5346,0.0,0.0,0.0,0.0,0.0,0.0,0.0,0.0,0.0,0.0,0.0,0.0,0.0,0.0,0.0,0.0,0.0,0.0,0.0,0.0,0.0,0.0,0.0,0.0,0.0,0.0,0.0,0.0,0.0,0.0,0.0,-2.6816,-2.659,-2.6088,-2.6013,0.0,-2.5586,-2.5008,-2.4147,-2.3095,-2.2533,-2.1943,-2.1308,-2.0907,-2.0989,-2.1404,-2.1197,-2.1383,-2.1797,-2.1797,-2.2681,-2.4108,-2.4108,-2.492,-2.6013,-2.5385,-2.5008,-2.4782,-2.4481,-2.4506,-2.4757,-2.5059,-2.5536,-2.5988,-2.5988,-2.6189,-2.6584,-2.6841,-2.7011,-2.7348,-2.8637,-2.9717,-3.0462,-3.0589,-3.1293,-3.1787,-3.1119,-3.1496,-3.2077,-3.2454,-3.2513,-3.2483,-3.2396,-3.2367,-3.2164,-3.1526,-3.1729,-3.186,-3.1657,-3.2435,-3.3216,-3.3578,-3.4267,-3.4739,-3.4787,-3.4835,-3.4883,-3.4883,-3.4883,-3.4883,-3.4883,-3.4883,-3.4883,-3.4883,-3.4883,-3.4883,-3.4883,-3.4883,-3.4883,-3.4883,-3.4883,-3.5671,0.0,0.0,0.0,0.0,0.0,0.0,0.0,0.0,0.0,0.0,0.0,0.0,0.0,0.0,0.0,0.0,0.0,0.0,0.0,0.0,0.0,0.0,0.0,0.0,0.0,0.0,0.0,0.0,0.0,0.0,-2.6533,-2.6533,-2.6458,-2.6307,-2.5812,-2.5536,-2.541,-2.4481,-2.3455,-2.2249,-2.231,-2.213,-2.174,-2.0963,-2.0885,-2.1267,-2.0907,-2.1093,-2.1631,-2.1858,-2.2796,-2.4108,-2.4348,-2.5276,-2.6339,-2.5234,-2.4833,-2.4732,-2.4029,-2.3879,-2.4079,-2.4481,-2.4983,-2.5435,-2.5561,-2.5887,-2.6433,-2.717,-2.743,-2.7775,-2.9062,-2.9961,-3.051,-3.0592,-3.1061,-3.1351,-3.0713,-3.0945,-3.1438,-3.1932,-3.2019,-3.1874,-3.138,-3.1264,-3.1119,-3.0655,-3.0974,-3.1454,-3.1853,-3.2696,-3.345,-3.3968,-3.4464,-3.4787,-3.4883,-3.4883,-3.4883,-3.4883,-3.4883,-3.4883,-3.4883,-3.5081,-3.5081,-3.4883,-3.5081,-3.5081,-3.4883,-3.4883,-3.493,-3.5071,-3.5071,-3.5988,0.0,0.0,0.0,0.0,0.0,0.0,0.0,0.0,0.0,0.0,0.0,0.0,0.0,0.0,0.0,0.0,0.0,0.0,0.0,0.0,0.0,0.0,0.0,0.0,0.0,0.0,0.0,0.0,0.0,0.0,-2.6533,-2.6533,-2.6214,-2.5661,-2.5611,-2.536,-2.4858,-2.428,-2.3703,-2.3065,-2.3065,-2.2702,-2.2087,-2.2002,-2.1933,-2.1708,-2.0428,-2.0327,-2.1229,-2.194,-2.3,-2.4181,-2.4945,-2.5746,-2.6339,-2.5234,-2.4833,-2.4657,-2.3491,-2.3552,-2.4004,-2.4029,-2.4406,-2.4958,-2.546,-2.5611,-2.5895,-2.7167,-2.7497,-2.7802,-2.9212,-3.0038,-3.051,-3.0592,-3.1061,-3.1351,-3.0713,-3.0597,-3.0626,-3.0655,-3.0684,-3.0655,-3.0626,-3.0626,-3.0626,-3.0568,-3.0597,-3.1102,-3.2321,-3.2594,-3.3214,-3.4546,-3.4787,-3.4883,-3.4883,-3.4883,-3.4883,-3.4883,-3.4883,-3.4883,-3.4883,-3.5578,-3.5611,-3.4916,-3.5578,-3.5611,-3.4883,-3.4883,-3.5118,-3.5588,-3.5588,-3.6219,0.0,0.0,0.0,0.0,0.0,0.0,0.0,0.0,0.0,0.0,0.0,0.0,0.0,0.0,0.0,0.0,0.0,0.0,0.0,0.0,0.0,0.0,0.0,0.0,0.0,0.0,0.0,0.0,0.0,0.0,-2.6508,-2.5787,-2.546,-2.5586,-2.4933,-2.4305,-2.3691,-2.3552,-2.315,-2.2598,-2.2975,-2.283,-2.2243,-2.214,-2.2097,-2.191,-2.0886,-2.0968,-2.1773,-2.2461,-2.3267,-2.4181,-2.5016,-2.5816,-2.6339,-2.5234,-2.4833,-2.4657,-2.3466,-2.3215,-2.3452,-2.3452,-2.3828,-2.433,-2.4506,-2.5059,-2.5845,-2.7115,-2.7802,-2.8471,-2.9784,-3.0324,-3.0585,-3.0565,-3.0742,-3.0858,-3.0626,-3.0568,-3.0568,-3.0568,-3.0568,-3.0568,-3.0568,-3.0916,-3.1177,-3.1177,-3.1903,-3.2638,-3.3172,-3.3675,-3.4216,-3.479,-3.4883,-3.4883,-3.4883,-3.4883,-3.4883,-3.4883,-3.4883,-3.5114,-3.5578,-3.5876,-3.6108,-3.6307,-3.6572,-3.6108,-3.4883,-3.5178,-3.5453,-3.5633,-3.5864,-3.6628,-3.0231,0.0,0.0,0.0,0.0,0.0,0.0,0.0,0.0,0.0,0.0,0.0,0.0,0.0,0.0,0.0,0.0,0.0,0.0,0.0,0.0,0.0,0.0,0.0,0.0,0.0,0.0,0.0,0.0,0.0,-2.6163,-2.5485,-2.5124,-2.5357,-2.4305,-2.3649,-2.3424,-2.3185,-2.289,-2.2598,-2.289,-2.289,-2.2539,-2.2469,-2.253,-2.2688,-2.1772,-2.1567,-2.199,-2.2833,-2.3559,-2.4181,-2.53,-2.6025,-2.6339,-2.5435,-2.4958,-2.4682,-2.3753,-2.3301,-2.3065,-2.3065,-2.3401,-2.3753,-2.3929,-2.4798,-2.5909,-2.6921,-2.7867,-2.8691,-2.9628,-3.0033,-3.0306,-3.0539,-3.0568,-3.0568,-3.0568,-3.0568,-3.0568,-3.0568,-3.0568,-3.0568,-3.0568,-3.0916,-3.1206,-3.1206,-3.2182,-3.2974,-3.3315,-3.4203,-3.4803,-3.4871,-3.5346,-3.5446,-3.4949,-3.5114,-3.528,-3.528,-3.528,-3.5611,-3.634,-3.6605,-3.687,-3.7102,-3.7334,-3.6937,-3.5866,-3.6194,-3.6152,-3.582,-3.6809,-3.7609,0.0,0.0,0.0,0.0,0.0,0.0,0.0,0.0,0.0,0.0,0.0,0.0,0.0,0.0,0.0,0.0,0.0,0.0,0.0,0.0,0.0,0.0,0.0,0.0,0.0,0.0,0.0,0.0,0.0,-2.6257,-2.5703,-2.5627,-2.5357,-2.4936,-2.3764,-2.3484,-2.4073,-2.3424,-2.3125,-2.3065,-2.3065,-2.3065,-2.3065,-2.3065,-2.3452,-2.3942,-2.2921,-2.2138,-2.1651,-2.2981,-2.3766,-2.4253,-2.5861,-2.6533,-2.6458,-2.5812,-2.5285,-2.4757,-2.4205,-2.3653,-2.3115,-2.309,-2.309,-2.3251,-2.3803,-2.4833,-2.5932,-2.6519,-2.7621,-2.8612,-2.8684,-2.9174,-2.9784,-3.0422,-3.0568,-3.0568,-3.0568,-3.0568,-3.0568,-3.0568,-3.0568,-3.0568,-3.0568,-3.0597,-3.0657,-3.0657,-3.1278,-3.1992,-3.2648,-3.3996,-3.4915,-3.4901,-3.6208,-3.6506,-3.5048,-3.5611,-3.6042,-3.6042,-3.6042,-3.6373,-3.7102,-3.7831,-3.7897,-3.7201,-3.7897,-3.8086,-3.7835,-3.7801,-3.7285,-3.6318,-3.8384,-3.9146,-2.9804,0.0,0.0,0.0,0.0,0.0,0.0,0.0,0.0,0.0,0.0,0.0,0.0,0.0,0.0,0.0,0.0,0.0,0.0,0.0,0.0,0.0,0.0,0.0,0.0,0.0,0.0,0.0,0.0,-2.6531,-2.6245,-2.5949,-2.5522,-2.5007,-2.4647,-2.4337,-2.4131,-2.3897,-2.3603,-2.3065,-2.3065,-2.3065,-2.3065,-2.3065,-2.3165,-2.3341,-2.2895,-2.2803,-2.3092,-2.3699,-2.3994,-2.4253,-2.5861,-2.6533,-2.6458,-2.5812,-2.5511,-2.5259,-2.433,-2.4155,-2.423,-2.3341,-2.3427,-2.3764,-2.3996,-2.458,-2.5387,-2.6486,-2.7279,-2.8074,-2.9088,-2.9493,-2.9784,-3.0422,-3.0568,-3.0568,-3.0568,-3.0568,-3.0568,-3.0568,-3.0568,-3.0568,-3.0568,-3.1066,-3.1448,-3.1448,-3.2467,-3.3297,-3.3568,-3.4314,-3.4845,-3.4901,-3.5744,-3.6141,-3.5744,-3.6373,-3.6804,-3.6804,-3.6804,-3.7135,-3.7897,-3.8096,-3.8361,-3.8659,-3.8891,-3.8872,-3.8614,-3.8401,-3.8328,-3.8454,-3.9328,-3.9672,-2.9854,-2.9804,-2.9804,0.0,0.0,0.0,0.0,-2.9804,0.0,0.0,0.0,0.0,0.0,0.0,0.0,0.0,0.0,0.0,0.0,0.0,0.0,0.0,0.0,0.0,0.0,0.0,0.0,0.0,-2.7695,-2.7216,-2.6612,-2.5894,-2.5431,-2.5384,-2.5133,-2.4964,-2.4878,-2.4363,-2.3897,-2.3484,-2.3245,-2.3065,-2.3065,-2.3065,-2.3276,-2.3441,-2.2989,-2.3263,-2.4006,-2.4213,-2.4377,-2.4707,-2.6025,-2.6533,-2.6458,-2.5812,-2.5586,-2.5435,-2.4381,-2.4356,-2.4632,-2.3441,-2.3527,-2.4002,-2.4079,-2.4701,-2.5453,-2.6245,-2.6834,-2.7541,-2.8857,-2.9232,-2.9464,-3.0364,-3.0568,-3.0568,-3.0568,-3.0568,-3.0568,-3.0568,-3.0568,-3.0628,-3.0687,-3.1068,-3.1483,-3.1812,-3.2758,-3.3537,-3.3814,-3.4703,-3.5233,-3.4934,-3.6108,-3.6671,-3.6042,-3.697,-3.7566,-3.7566,-3.7566,-3.7897,-3.8626,-3.8659,-3.8858,-3.9255,-3.9288,-3.9443,-3.9685,-3.9525,-3.9852,-4.053,-4.0099,-4.0075,-2.993,-2.9804,-2.9804,-2.9804,0.0,0.0,-2.9804,-2.9804,-2.993,0.0,0.0,0.0,0.0,0.0,0.0,0.0,0.0,0.0,0.0,0.0,0.0,0.0,0.0,0.0,0.0,0.0,0.0,-2.9267,-2.8732,-2.7966,-2.6963,-2.5846,-2.5467,-2.6016,-2.5467,-2.5412,-2.5907,-2.4738,-2.4189,-2.4073,-2.3424,-2.3065,-2.3065,-2.3065,-2.3427,-2.3841,-2.3164,-2.3489,-2.4502,-2.4502,-2.484,-2.537,-2.6164,-2.6533,-2.6458,-2.5887,-2.5686,-2.5536,-2.4531,-2.4531,-2.4808,-2.3664,-2.3664,-2.4202,-2.4256,-2.5056,-2.5931,-2.5993,-2.6394,-2.7084,-2.8361,-2.8681,-2.9,-3.0277,-3.0568,-3.0568,-3.0568,-3.0568,-3.0657,-3.0744,-3.0686,-3.0657,-3.0864,-3.0865,-3.1102,-3.194,-3.2602,-3.3235,-3.3751,-3.5021,-3.5644,-3.4949,-3.6738,-3.7433,-3.6108,-3.7301,-3.8129,-3.8195,-3.8228,-3.8526,-3.9255,-3.9288,-3.9288,-3.9288,-3.9415,-3.9952,-4.0896,-4.0943,-4.1401,-4.2251,-4.0824,-4.0538,-2.9829,-2.9804,-2.9804,0.0,0.0,0.0,-2.9804,-2.9804,-2.9829,0.0,0.0,0.0,0.0,0.0,0.0,0.0,0.0,0.0,0.0,0.0,0.0,0.0,0.0,0.0,0.0,0.0,-2.9408,-3.0035,-2.8683,-2.7931,-2.8254,-2.7135,-2.65,-2.6606,-2.65,-2.6286,-2.5907,-2.5189,-2.4567,-2.4073,-2.3424,-2.3065,-2.3065,-2.3065,-2.314,-2.324,-2.3119,-2.3679,-2.4698,-2.4698,-2.4933,-2.537,-2.6164,-2.6533,-2.6508,-2.6408,-2.6289,-2.6257,-2.5511,-2.5661,-2.6022,-2.4906,-2.49,-2.5432,-2.5545,-2.5689,-2.5993,-2.6476,-2.6741,-2.7084,-2.8361,-2.8681,-2.9,-3.0277,-3.0568,-3.0568,-3.0568,-3.0568,-3.0802,-3.1419,-3.1127,-3.0922,-3.1509,-3.1397,-3.1573,-3.2692,-3.3022,-3.3371,-3.3968,-3.4677,-3.5048,-3.4916,-3.581,-3.6307,-3.6042,-3.6804,-3.7566,-3.8162,-3.8228,-3.8526,-3.9255,-3.9288,-3.9288,-3.9288,-4.007,-4.0802,-4.1356,-4.1831,-4.2086,-4.2287,-4.1966,-4.1895,0.0,0.0,0.0,-2.9804,0.0,0.0,0.0,-2.9804,-2.9804,0.0,0.0,0.0,0.0,0.0,0.0,0.0,0.0,0.0,0.0,0.0,0.0,0.0,0.0,0.0,0.0,0.0,-3.0241,-3.0451,-2.8987,-2.8312,-2.8681,-2.7461,-2.6794,-2.6794,-2.6794,-2.6659,-2.634,-2.5467,-2.4851,-2.4509,-2.3543,-2.3065,-2.3065,-2.3065,-2.3065,-2.309,-2.3452,-2.4029,-2.4833,-2.5109,-2.5485,-2.5955,-2.6327,-2.6533,-2.6483,-2.6138,-2.6214,-2.6408,-2.5511,-2.5561,-2.5921,-2.5159,-2.5058,-2.538,-2.5771,-2.6125,-2.6394,-2.6741,-2.6794,-2.6997,-2.7955,-2.8448,-2.8913,-2.9871,-3.0335,-3.0568,-3.0568,-3.0568,-3.0831,-3.1655,-3.1569,-3.1513,-3.1987,-3.1605,-3.1715,-3.2949,-3.3504,-3.4037,-3.4921,-3.5597,-3.5876,-3.5479,-3.6108,-3.6406,-3.6042,-3.6671,-3.7268,-3.7632,-3.7665,-3.7996,-3.8725,-3.8758,-3.9049,-3.9644,-4.0417,-4.1036,-4.149,-4.2044,-4.2287,-4.2287,-4.2287,-4.2287,0.0,0.0,0.0,0.0,0.0,-2.9804,0.0,0.0,0.0,0.0,0.0,0.0,0.0,0.0,0.0,0.0,0.0,0.0,0.0,0.0,0.0,0.0,0.0,0.0,0.0,0.0,-3.1411,-3.0684,-2.9639,-2.8942,-2.8681,-2.7578,-2.691,-2.6794,-2.6794,-2.6794,-2.6794,-2.5715,-2.5189,-2.5133,-2.3872,-2.3305,-2.3305,-2.3125,-2.3065,-2.3115,-2.3753,-2.4305,-2.4858,-2.5385,-2.5937,-2.6533,-2.6533,-2.6533,-2.6458,-2.5937,-2.6063,-2.6408,-2.5435,-2.5401,-2.5699,-2.5344,-2.5236,-2.5356,-2.5938,-2.6394,-2.6794,-2.6794,-2.6794,-2.6939,-2.7549,-2.81,-2.8681,-2.9435,-3.0016,-3.0422,-3.0598,-3.0628,-3.0891,-3.1716,-3.1955,-3.2167,-3.2466,-3.2109,-3.2098,-3.319,-3.4058,-3.4846,-3.5861,-3.6638,-3.6837,-3.6075,-3.6539,-3.6605,-3.5843,-3.634,-3.6738,-3.687,-3.7036,-3.7433,-3.8195,-3.8361,-3.8972,-4.0136,-4.0611,-4.1082,-4.1666,-4.2086,-4.2287,-4.2287,-4.2287,-4.2287,0.0,0.0,0.0,0.0,-2.9804,0.0,0.0,0.0,0.0,0.0,0.0,0.0,0.0,0.0,0.0,0.0,0.0,0.0,0.0,0.0,0.0,0.0,0.0,0.0,0.0,0.0,0.0,-3.0713,-3.0451,-2.9871,-2.8739,-2.8013,-2.7374,-2.6794,-2.6794,-2.6794,-2.6794,-2.6125,-2.577,-2.577,-2.4567,-2.4015,-2.3956,-2.3365,-2.3065,-2.3115,-2.3753,-2.4305,-2.4858,-2.5385,-2.5937,-2.6533,-2.6533,-2.6533,-2.6508,-2.6458,-2.6458,-2.6508,-2.6382,-2.6365,-2.6401,-2.6409,-2.6521,-2.6587,-2.6688,-2.6741,-2.6794,-2.6794,-2.6794,-2.6939,-2.7549,-2.7781,-2.8129,-2.9348,-2.9668,-2.99,-3.063,-3.0776,-3.1071,-3.2048,-3.2257,-3.2495,-3.306,-3.3212,-3.3455,-3.4007,-3.4731,-3.539,-3.5927,-3.6638,-3.6837,-3.6075,-3.6075,-3.5843,-3.5081,-3.5114,-3.5446,-3.6075,-3.6738,-3.7433,-3.8195,-3.8825,-3.968,-4.0707,-4.0754,-4.1265,-4.2205,-4.2287,-4.2287,-4.2287,-4.2287,-4.2287,0.0,0.0,0.0,0.0,0.0,0.0,-2.9804,0.0,-2.9804,0.0,0.0,0.0,0.0,0.0,0.0,0.0,0.0,0.0,0.0,0.0,0.0,0.0,0.0,0.0,0.0,0.0,0.0,0.0,0.0,-3.0016,-2.8739,-2.8419,-2.7839,-2.6823,-2.7142,-2.7142,-2.6794,-2.6233,-2.5715,-2.5356,-2.4509,-2.3897,-2.3484,-2.3245,-2.3065,-2.3115,-2.4079,-2.4607,-2.4883,-2.5737,-2.6239,-2.6533,-2.6533,-2.6533,-2.6533,-2.6533,-2.6533,-2.6533,-2.6533,-2.6263,-2.6044,-2.614,-2.6466,-2.6794,-2.6794,-2.6794,-2.6794,-2.6794,-2.6794,-2.6939,-2.7549,-2.8013,-2.8507,-2.9551,-3.0017,-3.0426,-3.0896,-3.0955,-3.122,-3.2109,-3.2614,-3.3002,-3.3332,-3.3397,-3.3468,-3.359,-3.4899,-3.5861,-3.5976,-3.7036,-3.7301,-3.6108,-3.6009,-3.5711,-3.4949,-3.4883,-3.5015,-3.5346,-3.6473,-3.7235,-3.7566,-3.8659,-3.9747,-4.0802,-4.0802,-4.1311,-4.2287,-4.2287,-4.2287,-4.2287,-4.2287,-4.2287,-2.9804,0.0,0.0,0.0,0.0,0.0,0.0,0.0,0.0,0.0,0.0,0.0,0.0,0.0,-3.0851,-3.0624,0.0,0.0,0.0,0.0,0.0,0.0,0.0,0.0,0.0,0.0,0.0,0.0,-3.048,0.0,-2.8507,-2.8419,-2.7926,-2.6823,-2.7229,-2.7258,-2.6794,-2.6394,-2.5934,-2.5467,-2.4738,-2.4105,-2.3603,-2.3422,-2.3376,-2.3427,-2.4556,-2.5034,-2.5109,-2.6063,-2.6533,-2.6533,-2.6533,-2.6533,-2.6533,-2.6533,-2.6577,-2.6756,-2.6536,-2.6246,-2.5989,-2.6106,-2.6447,-2.6794,-2.6794,-2.6794,-2.6794,-2.6794,-2.691,-2.7142,-2.7607,-2.8216,-2.8882,-2.9724,-3.0221,-3.0661,-3.1102,-3.1132,-3.1338,-3.1931,-3.2764,-3.3332,-3.3245,-3.3786,-3.4032,-3.3549,-3.5369,-3.6645,-3.6357,-3.7599,-3.803,-3.6738,-3.6439,-3.6009,-3.5247,-3.5015,-3.5081,-3.5479,-3.6506,-3.7301,-3.7698,-3.8725,-3.9747,-4.0802,-4.0802,-4.1311,-4.2287,-4.2287,-4.2287,-4.2287,-4.2073,-4.2073,0.0,0.0,0.0,-2.9804,0.0,0.0,0.0,0.0,-2.9804,0.0,0.0,0.0,0.0,-3.2092,-3.2723,-3.145,-3.2482,0.0,0.0,0.0,0.0,0.0,0.0,0.0,0.0,0.0,0.0,0.0,-3.0219,0.0,-2.7868,-2.7697,-2.7461,-2.6794,-2.6794,-2.6794,-2.6794,-2.6794,-2.6794,-2.6741,-2.5522,-2.4964,-2.4908,-2.4253,-2.3979,-2.4029,-2.5109,-2.5561,-2.5611,-2.6214,-2.6533,-2.6533,-2.6533,-2.6533,-2.6533,-2.6533,-2.6918,-2.7392,-2.6713,-2.6585,-2.6666,-2.6784,-2.6794,-2.6794,-2.6794,-2.6794,-2.6794,-2.6794,-2.7229,-2.7639,-2.7668,-2.8216,-2.8882,-2.9724,-2.987,-3.0191,-3.1101,-3.1278,-3.1366,-3.1511,-3.2617,-3.3305,-3.2647,-3.4638,-3.5827,-3.4376,-3.6469,-3.7948,-3.7133,-3.8328,-3.8957,-3.8228,-3.75,-3.6771,-3.6042,-3.5313,-3.5512,-3.6936,-3.7069,-3.7731,-3.9156,-3.9255,-3.9747,-4.0802,-4.0802,-4.1311,-4.2287,-4.2287,-4.2287,-4.2251,-4.1502,-4.1538,0.0,0.0,-2.9804,-2.9804,0.0,0.0,0.0,0.0,0.0,0.0,0.0,0.0,0.0,-3.2861,-3.3099,-3.2777,-3.3165,-3.2948,0.0,0.0,0.0,0.0,0.0,0.0,0.0,0.0,0.0,-2.9726,-2.9813,-2.929,0.0,-2.8479,-2.8507,-2.7432,-2.781,-2.7839,-2.7403,-2.6997,-2.6606,-2.6179,-2.577,-2.5114,-2.4447,-2.4478,-2.4356,-2.4054,-2.5134,-2.5586,-2.5636,-2.6214,-2.6533,-2.6533,-2.6533,-2.6533,-2.6533,-2.6533,-2.6595,-2.6856,-2.6688,-2.6682,-2.6694,-2.6755,-2.6794,-2.6794,-2.6794,-2.6794,-2.6794,-2.6794,-2.7229,-2.781,-2.8245,-2.8826,-2.9522,-3.0485,-3.069,-3.0807,-3.1306,-3.1424,-3.1601,-3.2049,-3.2886,-3.3517,-3.3665,-3.5577,-3.6582,-3.5117,-3.6799,-3.7985,-3.7184,-3.7963,-3.8096,-3.687,-3.697,-3.6804,-3.6075,-3.6208,-3.6373,-3.6373,-3.6837,-3.7533,-3.8526,-3.856,-3.9277,-4.0802,-4.0802,-4.1311,-4.2287,-4.2287,-4.2037,-4.1502,-4.1217,-4.1538,-2.9804,-2.9804,0.0,0.0,-3.0216,0.0,-3.057,0.0,0.0,0.0,0.0,0.0,0.0,0.0,-3.3539,-3.3202,-3.3122,-3.2687,0.0,-3.1235,0.0,0.0,0.0,0.0,0.0,0.0,-3.0742,-2.9697,-2.961,-2.9058,0.0,0.0,-2.8797,-2.7697,-2.8332,-2.8477,-2.8071,-2.7432,-2.6899,-2.6546,-2.6015,-2.541,-2.4681,-2.4963,-2.4908,-2.4607,-2.5511,-2.5912,-2.5912,-2.6088,-2.6138,-2.6231,-2.6477,-2.6416,-2.6222,-2.64,-2.6518,-2.6585,-2.6945,-2.689,-2.6745,-2.6804,-2.6794,-2.6794,-2.6794,-2.6794,-2.6823,-2.7055,-2.7578,-2.8216,-2.8855,-2.9551,-3.0192,-3.0925,-3.1132,-3.1249,-3.1482,-3.1719,-3.1928,-3.2138,-3.3246,-3.4121,-3.3989,-3.6048,-3.7227,-3.5824,-3.7318,-3.8328,-3.7599,-3.8129,-3.8228,-3.7268,-3.7367,-3.7201,-3.6439,-3.6605,-3.6738,-3.6804,-3.7003,-3.7566,-3.856,-3.8593,-3.9277,-4.0802,-4.0802,-4.1311,-4.2287,-4.2287,-4.1895,-4.1109,-4.1395,-4.1502]}]]